<?xml version="1.0" encoding="UTF-8" standalone="no" ?>
<gpx xmlns="http://www.topografix.com/GPX/1/1" creator="www.cicloide.com" version="1.1" xmlns:xsi="http://www.w3.org/2001/XMLSchema-instance" xsi:schemaLocation="http://www.topografix.com/GPX/1/1 http://www.topografix.com/GPX/1/1/gpx.xsd">
  <trk>
    <name>www.cicloide.com 21903</name>
    <desc>www.cicloide.com 21903</desc>
    <trkseg>
      <trkpt lat="42.732239470" lon="-0.752910490">
        <ele>820.62</ele>
        <time>2014-08-14T07:26:36Z</time>
      </trkpt>
      <trkpt lat="42.732224550" lon="-0.752652410">
        <ele>819.66</ele>
        <time>2014-08-14T07:26:43Z</time>
      </trkpt>
      <trkpt lat="42.732234360" lon="-0.752626170">
        <ele>819.18</ele>
        <time>2014-08-14T07:26:44Z</time>
      </trkpt>
      <trkpt lat="42.732393440" lon="-0.752574460">
        <ele>819.66</ele>
        <time>2014-08-14T07:26:50Z</time>
      </trkpt>
      <trkpt lat="42.732725120" lon="-0.752491140">
        <ele>819.18</ele>
        <time>2014-08-14T07:26:59Z</time>
      </trkpt>
      <trkpt lat="42.733171950" lon="-0.752375390">
        <ele>819.66</ele>
        <time>2014-08-14T07:27:11Z</time>
      </trkpt>
      <trkpt lat="42.733513180" lon="-0.752287960">
        <ele>821.10</ele>
        <time>2014-08-14T07:27:21Z</time>
      </trkpt>
      <trkpt lat="42.733898330" lon="-0.752195680">
        <ele>822.55</ele>
        <time>2014-08-14T07:27:33Z</time>
      </trkpt>
      <trkpt lat="42.734468640" lon="-0.752057460">
        <ele>824.47</ele>
        <time>2014-08-14T07:27:50Z</time>
      </trkpt>
      <trkpt lat="42.734855460" lon="-0.751972640">
        <ele>825.43</ele>
        <time>2014-08-14T07:28:01Z</time>
      </trkpt>
      <trkpt lat="42.735236500" lon="-0.751879680">
        <ele>826.39</ele>
        <time>2014-08-14T07:28:11Z</time>
      </trkpt>
      <trkpt lat="42.735627180" lon="-0.751795780">
        <ele>826.39</ele>
        <time>2014-08-14T07:28:21Z</time>
      </trkpt>
      <trkpt lat="42.735807390" lon="-0.751761830">
        <ele>826.87</ele>
        <time>2014-08-14T07:28:26Z</time>
      </trkpt>
      <trkpt lat="42.735825410" lon="-0.751819250">
        <ele>826.87</ele>
        <time>2014-08-14T07:28:30Z</time>
      </trkpt>
      <trkpt lat="42.735778640" lon="-0.751817990">
        <ele>825.91</ele>
        <time>2014-08-14T07:28:32Z</time>
      </trkpt>
      <trkpt lat="42.735737320" lon="-0.752008340">
        <ele>825.91</ele>
        <time>2014-08-14T07:28:38Z</time>
      </trkpt>
      <trkpt lat="42.735744700" lon="-0.752071210">
        <ele>826.87</ele>
        <time>2014-08-14T07:28:40Z</time>
      </trkpt>
      <trkpt lat="42.735773110" lon="-0.752225350">
        <ele>826.87</ele>
        <time>2014-08-14T07:28:49Z</time>
      </trkpt>
      <trkpt lat="42.735777300" lon="-0.752263490">
        <ele>826.39</ele>
        <time>2014-08-14T07:28:58Z</time>
      </trkpt>
      <trkpt lat="42.735751400" lon="-0.752441100">
        <ele>827.35</ele>
        <time>2014-08-14T07:29:07Z</time>
      </trkpt>
      <trkpt lat="42.735755680" lon="-0.752657940">
        <ele>828.79</ele>
        <time>2014-08-14T07:29:15Z</time>
      </trkpt>
      <trkpt lat="42.735749470" lon="-0.752995230">
        <ele>830.72</ele>
        <time>2014-08-14T07:29:25Z</time>
      </trkpt>
      <trkpt lat="42.735634310" lon="-0.753227070">
        <ele>831.20</ele>
        <time>2014-08-14T07:29:33Z</time>
      </trkpt>
      <trkpt lat="42.735488380" lon="-0.753516330">
        <ele>832.16</ele>
        <time>2014-08-14T07:29:44Z</time>
      </trkpt>
      <trkpt lat="42.735353350" lon="-0.753765440">
        <ele>833.12</ele>
        <time>2014-08-14T07:29:52Z</time>
      </trkpt>
      <trkpt lat="42.735213200" lon="-0.754118740">
        <ele>835.52</ele>
        <time>2014-08-14T07:30:01Z</time>
      </trkpt>
      <trkpt lat="42.735119150" lon="-0.754589130">
        <ele>836.48</ele>
        <time>2014-08-14T07:30:11Z</time>
      </trkpt>
      <trkpt lat="42.735135330" lon="-0.754899680">
        <ele>836.96</ele>
        <time>2014-08-14T07:30:19Z</time>
      </trkpt>
      <trkpt lat="42.735161990" lon="-0.755172340">
        <ele>838.89</ele>
        <time>2014-08-14T07:30:28Z</time>
      </trkpt>
      <trkpt lat="42.735184620" lon="-0.755334790">
        <ele>838.89</ele>
        <time>2014-08-14T07:30:34Z</time>
      </trkpt>
      <trkpt lat="42.735208760" lon="-0.755449950">
        <ele>842.73</ele>
        <time>2014-08-14T07:30:38Z</time>
      </trkpt>
      <trkpt lat="42.735212030" lon="-0.755479120">
        <ele>841.77</ele>
        <time>2014-08-14T07:30:39Z</time>
      </trkpt>
      <trkpt lat="42.735254100" lon="-0.755672320">
        <ele>842.25</ele>
        <time>2014-08-14T07:30:46Z</time>
      </trkpt>
      <trkpt lat="42.735299950" lon="-0.755832590">
        <ele>844.18</ele>
        <time>2014-08-14T07:30:52Z</time>
      </trkpt>
      <trkpt lat="42.735336750" lon="-0.756012710">
        <ele>845.14</ele>
        <time>2014-08-14T07:30:59Z</time>
      </trkpt>
      <trkpt lat="42.735394420" lon="-0.756218740">
        <ele>846.10</ele>
        <time>2014-08-14T07:31:07Z</time>
      </trkpt>
      <trkpt lat="42.735483850" lon="-0.756500460">
        <ele>846.58</ele>
        <time>2014-08-14T07:31:17Z</time>
      </trkpt>
      <trkpt lat="42.735585610" lon="-0.756789550">
        <ele>847.54</ele>
        <time>2014-08-14T07:31:27Z</time>
      </trkpt>
      <trkpt lat="42.735689380" lon="-0.757092140">
        <ele>848.50</ele>
        <time>2014-08-14T07:31:37Z</time>
      </trkpt>
      <trkpt lat="42.735817370" lon="-0.757437220">
        <ele>849.94</ele>
        <time>2014-08-14T07:31:48Z</time>
      </trkpt>
      <trkpt lat="42.735946360" lon="-0.757787580">
        <ele>850.42</ele>
        <time>2014-08-14T07:31:59Z</time>
      </trkpt>
      <trkpt lat="42.736068570" lon="-0.758121010">
        <ele>850.90</ele>
        <time>2014-08-14T07:32:09Z</time>
      </trkpt>
      <trkpt lat="42.736217690" lon="-0.758531060">
        <ele>851.38</ele>
        <time>2014-08-14T07:32:21Z</time>
      </trkpt>
      <trkpt lat="42.736369400" lon="-0.758938330">
        <ele>852.83</ele>
        <time>2014-08-14T07:32:32Z</time>
      </trkpt>
      <trkpt lat="42.736501500" lon="-0.759303450">
        <ele>852.35</ele>
        <time>2014-08-14T07:32:41Z</time>
      </trkpt>
      <trkpt lat="42.736655050" lon="-0.759770740">
        <ele>851.87</ele>
        <time>2014-08-14T07:32:51Z</time>
      </trkpt>
      <trkpt lat="42.736850190" lon="-0.760374740">
        <ele>852.83</ele>
        <time>2014-08-14T07:33:05Z</time>
      </trkpt>
      <trkpt lat="42.737010950" lon="-0.760906820">
        <ele>854.27</ele>
        <time>2014-08-14T07:33:19Z</time>
      </trkpt>
      <trkpt lat="42.737174900" lon="-0.761386600">
        <ele>856.67</ele>
        <time>2014-08-14T07:33:33Z</time>
      </trkpt>
      <trkpt lat="42.737295680" lon="-0.761697660">
        <ele>858.59</ele>
        <time>2014-08-14T07:33:42Z</time>
      </trkpt>
      <trkpt lat="42.737397860" lon="-0.761980040">
        <ele>860.04</ele>
        <time>2014-08-14T07:33:51Z</time>
      </trkpt>
      <trkpt lat="42.737523760" lon="-0.762287320">
        <ele>861.48</ele>
        <time>2014-08-14T07:34:02Z</time>
      </trkpt>
      <trkpt lat="42.737633220" lon="-0.762545990">
        <ele>863.88</ele>
        <time>2014-08-14T07:34:12Z</time>
      </trkpt>
      <trkpt lat="42.737690640" lon="-0.762772970">
        <ele>864.84</ele>
        <time>2014-08-14T07:34:21Z</time>
      </trkpt>
      <trkpt lat="42.737767420" lon="-0.763119140">
        <ele>865.80</ele>
        <time>2014-08-14T07:34:34Z</time>
      </trkpt>
      <trkpt lat="42.737813350" lon="-0.763346540">
        <ele>867.73</ele>
        <time>2014-08-14T07:34:43Z</time>
      </trkpt>
      <trkpt lat="42.737864900" lon="-0.763618280">
        <ele>868.69</ele>
        <time>2014-08-14T07:34:54Z</time>
      </trkpt>
      <trkpt lat="42.737923150" lon="-0.763840240">
        <ele>870.61</ele>
        <time>2014-08-14T07:35:03Z</time>
      </trkpt>
      <trkpt lat="42.738007060" lon="-0.764029500">
        <ele>872.53</ele>
        <time>2014-08-14T07:35:12Z</time>
      </trkpt>
      <trkpt lat="42.738154660" lon="-0.764291350">
        <ele>874.94</ele>
        <time>2014-08-14T07:35:25Z</time>
      </trkpt>
      <trkpt lat="42.738224400" lon="-0.764498640">
        <ele>876.38</ele>
        <time>2014-08-14T07:35:33Z</time>
      </trkpt>
      <trkpt lat="42.738277370" lon="-0.764820170">
        <ele>878.30</ele>
        <time>2014-08-14T07:35:44Z</time>
      </trkpt>
      <trkpt lat="42.738313330" lon="-0.765129040">
        <ele>879.74</ele>
        <time>2014-08-14T07:35:54Z</time>
      </trkpt>
      <trkpt lat="42.738337640" lon="-0.765406730">
        <ele>880.22</ele>
        <time>2014-08-14T07:36:03Z</time>
      </trkpt>
      <trkpt lat="42.738377200" lon="-0.765765560">
        <ele>881.67</ele>
        <time>2014-08-14T07:36:14Z</time>
      </trkpt>
      <trkpt lat="42.738399080" lon="-0.766096480">
        <ele>882.63</ele>
        <time>2014-08-14T07:36:24Z</time>
      </trkpt>
      <trkpt lat="42.738398240" lon="-0.766423460">
        <ele>883.11</ele>
        <time>2014-08-14T07:36:34Z</time>
      </trkpt>
      <trkpt lat="42.738399660" lon="-0.766743230">
        <ele>884.07</ele>
        <time>2014-08-14T07:36:43Z</time>
      </trkpt>
      <trkpt lat="42.738383910" lon="-0.767059310">
        <ele>885.03</ele>
        <time>2014-08-14T07:36:52Z</time>
      </trkpt>
      <trkpt lat="42.738400420" lon="-0.767367680">
        <ele>885.51</ele>
        <time>2014-08-14T07:37:01Z</time>
      </trkpt>
      <trkpt lat="42.738471500" lon="-0.767726260">
        <ele>886.95</ele>
        <time>2014-08-14T07:37:12Z</time>
      </trkpt>
      <trkpt lat="42.738530170" lon="-0.768014430">
        <ele>888.88</ele>
        <time>2014-08-14T07:37:21Z</time>
      </trkpt>
      <trkpt lat="42.738580130" lon="-0.768300420">
        <ele>889.84</ele>
        <time>2014-08-14T07:37:30Z</time>
      </trkpt>
      <trkpt lat="42.738593870" lon="-0.768638790">
        <ele>891.28</ele>
        <time>2014-08-14T07:37:41Z</time>
      </trkpt>
      <trkpt lat="42.738599150" lon="-0.768704000">
        <ele>892.24</ele>
        <time>2014-08-14T07:37:43Z</time>
      </trkpt>
      <trkpt lat="42.738619440" lon="-0.769094100">
        <ele>894.64</ele>
        <time>2014-08-14T07:37:55Z</time>
      </trkpt>
      <trkpt lat="42.738631930" lon="-0.769421500">
        <ele>895.12</ele>
        <time>2014-08-14T07:38:05Z</time>
      </trkpt>
      <trkpt lat="42.738641150" lon="-0.769809910">
        <ele>897.53</ele>
        <time>2014-08-14T07:38:17Z</time>
      </trkpt>
      <trkpt lat="42.738663530" lon="-0.770103110">
        <ele>898.49</ele>
        <time>2014-08-14T07:38:26Z</time>
      </trkpt>
      <trkpt lat="42.738769310" lon="-0.770427990">
        <ele>899.45</ele>
        <time>2014-08-14T07:38:36Z</time>
      </trkpt>
      <trkpt lat="42.738919430" lon="-0.770693200">
        <ele>900.41</ele>
        <time>2014-08-14T07:38:45Z</time>
      </trkpt>
      <trkpt lat="42.739067280" lon="-0.771014390">
        <ele>901.85</ele>
        <time>2014-08-14T07:38:56Z</time>
      </trkpt>
      <trkpt lat="42.739181020" lon="-0.771299540">
        <ele>903.78</ele>
        <time>2014-08-14T07:39:06Z</time>
      </trkpt>
      <trkpt lat="42.739275820" lon="-0.771546560">
        <ele>905.22</ele>
        <time>2014-08-14T07:39:15Z</time>
      </trkpt>
      <trkpt lat="42.739371710" lon="-0.771795500">
        <ele>906.18</ele>
        <time>2014-08-14T07:39:24Z</time>
      </trkpt>
      <trkpt lat="42.739461400" lon="-0.772050400">
        <ele>908.58</ele>
        <time>2014-08-14T07:39:33Z</time>
      </trkpt>
      <trkpt lat="42.739544880" lon="-0.772270500">
        <ele>910.03</ele>
        <time>2014-08-14T07:39:41Z</time>
      </trkpt>
      <trkpt lat="42.739636410" lon="-0.772537220">
        <ele>910.51</ele>
        <time>2014-08-14T07:39:50Z</time>
      </trkpt>
      <trkpt lat="42.739697180" lon="-0.772793280">
        <ele>911.47</ele>
        <time>2014-08-14T07:39:58Z</time>
      </trkpt>
      <trkpt lat="42.739727270" lon="-0.773092010">
        <ele>912.91</ele>
        <time>2014-08-14T07:40:07Z</time>
      </trkpt>
      <trkpt lat="42.739762140" lon="-0.773470290">
        <ele>913.87</ele>
        <time>2014-08-14T07:40:18Z</time>
      </trkpt>
      <trkpt lat="42.739818300" lon="-0.773798440">
        <ele>914.83</ele>
        <time>2014-08-14T07:40:28Z</time>
      </trkpt>
      <trkpt lat="42.739912260" lon="-0.774093740">
        <ele>916.27</ele>
        <time>2014-08-14T07:40:38Z</time>
      </trkpt>
      <trkpt lat="42.740052990" lon="-0.774375280">
        <ele>917.72</ele>
        <time>2014-08-14T07:40:48Z</time>
      </trkpt>
      <trkpt lat="42.740197920" lon="-0.774607380">
        <ele>919.16</ele>
        <time>2014-08-14T07:40:57Z</time>
      </trkpt>
      <trkpt lat="42.740392210" lon="-0.774916170">
        <ele>919.16</ele>
        <time>2014-08-14T07:41:08Z</time>
      </trkpt>
      <trkpt lat="42.740584070" lon="-0.775194450">
        <ele>921.08</ele>
        <time>2014-08-14T07:41:19Z</time>
      </trkpt>
      <trkpt lat="42.740654980" lon="-0.775291430">
        <ele>922.04</ele>
        <time>2014-08-14T07:41:23Z</time>
      </trkpt>
      <trkpt lat="42.740810890" lon="-0.775490660">
        <ele>922.52</ele>
        <time>2014-08-14T07:41:32Z</time>
      </trkpt>
      <trkpt lat="42.740973580" lon="-0.775662910">
        <ele>925.41</ele>
        <time>2014-08-14T07:41:41Z</time>
      </trkpt>
      <trkpt lat="42.741226540" lon="-0.775738430">
        <ele>928.29</ele>
        <time>2014-08-14T07:41:52Z</time>
      </trkpt>
      <trkpt lat="42.741469870" lon="-0.775776820">
        <ele>930.21</ele>
        <time>2014-08-14T07:42:02Z</time>
      </trkpt>
      <trkpt lat="42.741674470" lon="-0.775841530">
        <ele>931.65</ele>
        <time>2014-08-14T07:42:11Z</time>
      </trkpt>
      <trkpt lat="42.741945040" lon="-0.775949150">
        <ele>934.06</ele>
        <time>2014-08-14T07:42:23Z</time>
      </trkpt>
      <trkpt lat="42.742161550" lon="-0.776073040">
        <ele>935.02</ele>
        <time>2014-08-14T07:42:33Z</time>
      </trkpt>
      <trkpt lat="42.742381490" lon="-0.776170860">
        <ele>936.46</ele>
        <time>2014-08-14T07:42:43Z</time>
      </trkpt>
      <trkpt lat="42.742583990" lon="-0.776238160">
        <ele>937.90</ele>
        <time>2014-08-14T07:42:52Z</time>
      </trkpt>
      <trkpt lat="42.742799490" lon="-0.776267920">
        <ele>939.83</ele>
        <time>2014-08-14T07:43:01Z</time>
      </trkpt>
      <trkpt lat="42.743048440" lon="-0.776362970">
        <ele>941.27</ele>
        <time>2014-08-14T07:43:12Z</time>
      </trkpt>
      <trkpt lat="42.743252120" lon="-0.776514430">
        <ele>942.23</ele>
        <time>2014-08-14T07:43:21Z</time>
      </trkpt>
      <trkpt lat="42.743515980" lon="-0.776762280">
        <ele>944.15</ele>
        <time>2014-08-14T07:43:33Z</time>
      </trkpt>
      <trkpt lat="42.743767430" lon="-0.776911980">
        <ele>945.59</ele>
        <time>2014-08-14T07:43:44Z</time>
      </trkpt>
      <trkpt lat="42.744024840" lon="-0.777006360">
        <ele>946.56</ele>
        <time>2014-08-14T07:43:55Z</time>
      </trkpt>
      <trkpt lat="42.744273110" lon="-0.777029080">
        <ele>947.52</ele>
        <time>2014-08-14T07:44:05Z</time>
      </trkpt>
      <trkpt lat="42.744516110" lon="-0.776973250">
        <ele>948.48</ele>
        <time>2014-08-14T07:44:15Z</time>
      </trkpt>
      <trkpt lat="42.744766640" lon="-0.776939310">
        <ele>950.40</ele>
        <time>2014-08-14T07:44:26Z</time>
      </trkpt>
      <trkpt lat="42.744999660" lon="-0.776956990">
        <ele>951.84</ele>
        <time>2014-08-14T07:44:36Z</time>
      </trkpt>
      <trkpt lat="42.745245500" lon="-0.776973000">
        <ele>954.25</ele>
        <time>2014-08-14T07:44:46Z</time>
      </trkpt>
      <trkpt lat="42.745483460" lon="-0.776982220">
        <ele>956.17</ele>
        <time>2014-08-14T07:44:57Z</time>
      </trkpt>
      <trkpt lat="42.745714220" lon="-0.776986080">
        <ele>958.57</ele>
        <time>2014-08-14T07:45:08Z</time>
      </trkpt>
      <trkpt lat="42.745938680" lon="-0.776970070">
        <ele>959.53</ele>
        <time>2014-08-14T07:45:18Z</time>
      </trkpt>
      <trkpt lat="42.746170530" lon="-0.776885830">
        <ele>961.94</ele>
        <time>2014-08-14T07:45:30Z</time>
      </trkpt>
      <trkpt lat="42.746362890" lon="-0.776767810">
        <ele>964.34</ele>
        <time>2014-08-14T07:45:40Z</time>
      </trkpt>
      <trkpt lat="42.746524160" lon="-0.776637980">
        <ele>965.30</ele>
        <time>2014-08-14T07:45:49Z</time>
      </trkpt>
      <trkpt lat="42.746647960" lon="-0.776529940">
        <ele>966.74</ele>
        <time>2014-08-14T07:45:56Z</time>
      </trkpt>
      <trkpt lat="42.746802770" lon="-0.776390800">
        <ele>968.67</ele>
        <time>2014-08-14T07:46:05Z</time>
      </trkpt>
      <trkpt lat="42.746967310" lon="-0.776258530">
        <ele>970.11</ele>
        <time>2014-08-14T07:46:14Z</time>
      </trkpt>
      <trkpt lat="42.747141740" lon="-0.776104970">
        <ele>971.55</ele>
        <time>2014-08-14T07:46:24Z</time>
      </trkpt>
      <trkpt lat="42.747319520" lon="-0.775974550">
        <ele>973.47</ele>
        <time>2014-08-14T07:46:34Z</time>
      </trkpt>
      <trkpt lat="42.747514650" lon="-0.775855530">
        <ele>975.39</ele>
        <time>2014-08-14T07:46:44Z</time>
      </trkpt>
      <trkpt lat="42.747683630" lon="-0.775747570">
        <ele>976.36</ele>
        <time>2014-08-14T07:46:53Z</time>
      </trkpt>
      <trkpt lat="42.747859480" lon="-0.775665590">
        <ele>977.80</ele>
        <time>2014-08-14T07:47:02Z</time>
      </trkpt>
      <trkpt lat="42.748062740" lon="-0.775597280">
        <ele>979.24</ele>
        <time>2014-08-14T07:47:13Z</time>
      </trkpt>
      <trkpt lat="42.748162740" lon="-0.775657040">
        <ele>980.20</ele>
        <time>2014-08-14T07:47:19Z</time>
      </trkpt>
      <trkpt lat="42.748239770" lon="-0.775805820">
        <ele>981.64</ele>
        <time>2014-08-14T07:47:26Z</time>
      </trkpt>
      <trkpt lat="42.748354850" lon="-0.775911690">
        <ele>981.16</ele>
        <time>2014-08-14T07:47:32Z</time>
      </trkpt>
      <trkpt lat="42.748345040" lon="-0.775932470">
        <ele>982.12</ele>
        <time>2014-08-14T07:51:24Z</time>
      </trkpt>
      <trkpt lat="42.748242200" lon="-0.775963910">
        <ele>983.57</ele>
        <time>2014-08-14T07:51:35Z</time>
      </trkpt>
      <trkpt lat="42.748207660" lon="-0.775997270">
        <ele>984.53</ele>
        <time>2014-08-14T07:51:43Z</time>
      </trkpt>
      <trkpt lat="42.748197350" lon="-0.776036910">
        <ele>984.53</ele>
        <time>2014-08-14T07:51:50Z</time>
      </trkpt>
      <trkpt lat="42.748047320" lon="-0.776205810">
        <ele>985.49</ele>
        <time>2014-08-14T07:52:00Z</time>
      </trkpt>
      <trkpt lat="42.747911950" lon="-0.776337820">
        <ele>986.93</ele>
        <time>2014-08-14T07:52:08Z</time>
      </trkpt>
      <trkpt lat="42.747879260" lon="-0.776388870">
        <ele>987.89</ele>
        <time>2014-08-14T07:52:11Z</time>
      </trkpt>
      <trkpt lat="42.747785220" lon="-0.776577710">
        <ele>989.81</ele>
        <time>2014-08-14T07:52:20Z</time>
      </trkpt>
      <trkpt lat="42.747797030" lon="-0.776677960">
        <ele>990.78</ele>
        <time>2014-08-14T07:52:24Z</time>
      </trkpt>
      <trkpt lat="42.747852100" lon="-0.776853390">
        <ele>992.22</ele>
        <time>2014-08-14T07:52:32Z</time>
      </trkpt>
      <trkpt lat="42.747978080" lon="-0.777011900">
        <ele>993.18</ele>
        <time>2014-08-14T07:52:41Z</time>
      </trkpt>
      <trkpt lat="42.748059300" lon="-0.777258070">
        <ele>994.62</ele>
        <time>2014-08-14T07:52:51Z</time>
      </trkpt>
      <trkpt lat="42.748029130" lon="-0.777457980">
        <ele>996.06</ele>
        <time>2014-08-14T07:52:58Z</time>
      </trkpt>
      <trkpt lat="42.747881940" lon="-0.777604920">
        <ele>997.51</ele>
        <time>2014-08-14T07:53:06Z</time>
      </trkpt>
      <trkpt lat="42.747729060" lon="-0.777622430">
        <ele>998.47</ele>
        <time>2014-08-14T07:53:13Z</time>
      </trkpt>
      <trkpt lat="42.747542980" lon="-0.777633410">
        <ele>998.95</ele>
        <time>2014-08-14T07:53:21Z</time>
      </trkpt>
      <trkpt lat="42.747351960" lon="-0.777644560">
        <ele>999.91</ele>
        <time>2014-08-14T07:53:29Z</time>
      </trkpt>
      <trkpt lat="42.747197900" lon="-0.777729970">
        <ele>1000.87</ele>
        <time>2014-08-14T07:53:36Z</time>
      </trkpt>
      <trkpt lat="42.747055070" lon="-0.777938260">
        <ele>1002.79</ele>
        <time>2014-08-14T07:53:45Z</time>
      </trkpt>
      <trkpt lat="42.746983490" lon="-0.778144370">
        <ele>1005.68</ele>
        <time>2014-08-14T07:53:53Z</time>
      </trkpt>
      <trkpt lat="42.746996650" lon="-0.778372280">
        <ele>1006.64</ele>
        <time>2014-08-14T07:54:01Z</time>
      </trkpt>
      <trkpt lat="42.747092790" lon="-0.778595740">
        <ele>1008.56</ele>
        <time>2014-08-14T07:54:10Z</time>
      </trkpt>
      <trkpt lat="42.747211060" lon="-0.778845270">
        <ele>1010.48</ele>
        <time>2014-08-14T07:54:20Z</time>
      </trkpt>
      <trkpt lat="42.747325720" lon="-0.779103520">
        <ele>1012.41</ele>
        <time>2014-08-14T07:54:30Z</time>
      </trkpt>
      <trkpt lat="42.747412220" lon="-0.779349020">
        <ele>1014.33</ele>
        <time>2014-08-14T07:54:39Z</time>
      </trkpt>
      <trkpt lat="42.747495120" lon="-0.779591680">
        <ele>1015.29</ele>
        <time>2014-08-14T07:54:48Z</time>
      </trkpt>
      <trkpt lat="42.747583040" lon="-0.779861740">
        <ele>1017.21</ele>
        <time>2014-08-14T07:54:58Z</time>
      </trkpt>
      <trkpt lat="42.747653200" lon="-0.780153600">
        <ele>1018.65</ele>
        <time>2014-08-14T07:55:08Z</time>
      </trkpt>
      <trkpt lat="42.747666190" lon="-0.780374630">
        <ele>1019.62</ele>
        <time>2014-08-14T07:55:15Z</time>
      </trkpt>
      <trkpt lat="42.747563010" lon="-0.780570770">
        <ele>1020.58</ele>
        <time>2014-08-14T07:55:22Z</time>
      </trkpt>
      <trkpt lat="42.747352370" lon="-0.780631700">
        <ele>1021.06</ele>
        <time>2014-08-14T07:55:30Z</time>
      </trkpt>
      <trkpt lat="42.747147520" lon="-0.780601280">
        <ele>1022.50</ele>
        <time>2014-08-14T07:55:39Z</time>
      </trkpt>
      <trkpt lat="42.746992870" lon="-0.780545040">
        <ele>1023.94</ele>
        <time>2014-08-14T07:55:46Z</time>
      </trkpt>
      <trkpt lat="42.746814930" lon="-0.780473290">
        <ele>1025.86</ele>
        <time>2014-08-14T07:55:54Z</time>
      </trkpt>
      <trkpt lat="42.746629100" lon="-0.780397430">
        <ele>1027.31</ele>
        <time>2014-08-14T07:56:03Z</time>
      </trkpt>
      <trkpt lat="42.746401780" lon="-0.780318470">
        <ele>1029.23</ele>
        <time>2014-08-14T07:56:13Z</time>
      </trkpt>
      <trkpt lat="42.746217380" lon="-0.780292150">
        <ele>1030.19</ele>
        <time>2014-08-14T07:56:21Z</time>
      </trkpt>
      <trkpt lat="42.746073210" lon="-0.780113370">
        <ele>1031.63</ele>
        <time>2014-08-14T07:56:29Z</time>
      </trkpt>
      <trkpt lat="42.745993750" lon="-0.779939610">
        <ele>1032.59</ele>
        <time>2014-08-14T07:56:36Z</time>
      </trkpt>
      <trkpt lat="42.745922670" lon="-0.779771550">
        <ele>1033.55</ele>
        <time>2014-08-14T07:56:43Z</time>
      </trkpt>
      <trkpt lat="42.745776580" lon="-0.779667450">
        <ele>1035.96</ele>
        <time>2014-08-14T07:56:50Z</time>
      </trkpt>
      <trkpt lat="42.745628300" lon="-0.779727630">
        <ele>1037.88</ele>
        <time>2014-08-14T07:56:57Z</time>
      </trkpt>
      <trkpt lat="42.745500140" lon="-0.779903070">
        <ele>1039.32</ele>
        <time>2014-08-14T07:57:05Z</time>
      </trkpt>
      <trkpt lat="42.745377260" lon="-0.780099790">
        <ele>1041.25</ele>
        <time>2014-08-14T07:57:14Z</time>
      </trkpt>
      <trkpt lat="42.745239050" lon="-0.780355770">
        <ele>1043.17</ele>
        <time>2014-08-14T07:57:25Z</time>
      </trkpt>
      <trkpt lat="42.745048110" lon="-0.780613600">
        <ele>1045.09</ele>
        <time>2014-08-14T07:57:36Z</time>
      </trkpt>
      <trkpt lat="42.744855320" lon="-0.780721890">
        <ele>1046.05</ele>
        <time>2014-08-14T07:57:44Z</time>
      </trkpt>
      <trkpt lat="42.744597830" lon="-0.780767320">
        <ele>1048.45</ele>
        <time>2014-08-14T07:57:55Z</time>
      </trkpt>
      <trkpt lat="42.744480990" lon="-0.780868160">
        <ele>1050.86</ele>
        <time>2014-08-14T07:58:02Z</time>
      </trkpt>
      <trkpt lat="42.744501690" lon="-0.781030010">
        <ele>1052.30</ele>
        <time>2014-08-14T07:58:08Z</time>
      </trkpt>
      <trkpt lat="42.744564220" lon="-0.781230170">
        <ele>1053.74</ele>
        <time>2014-08-14T07:58:16Z</time>
      </trkpt>
      <trkpt lat="42.744621220" lon="-0.781426060">
        <ele>1055.67</ele>
        <time>2014-08-14T07:58:24Z</time>
      </trkpt>
      <trkpt lat="42.744701260" lon="-0.781676510">
        <ele>1058.55</ele>
        <time>2014-08-14T07:58:34Z</time>
      </trkpt>
      <trkpt lat="42.744747780" lon="-0.781933670">
        <ele>1060.47</ele>
        <time>2014-08-14T07:58:44Z</time>
      </trkpt>
      <trkpt lat="42.744719030" lon="-0.782146650">
        <ele>1061.43</ele>
        <time>2014-08-14T07:58:53Z</time>
      </trkpt>
      <trkpt lat="42.744616610" lon="-0.782321080">
        <ele>1062.39</ele>
        <time>2014-08-14T07:59:01Z</time>
      </trkpt>
      <trkpt lat="42.744474360" lon="-0.782428950">
        <ele>1063.84</ele>
        <time>2014-08-14T07:59:08Z</time>
      </trkpt>
      <trkpt lat="42.744291560" lon="-0.782538080">
        <ele>1064.80</ele>
        <time>2014-08-14T07:59:16Z</time>
      </trkpt>
      <trkpt lat="42.744134140" lon="-0.782683590">
        <ele>1066.24</ele>
        <time>2014-08-14T07:59:25Z</time>
      </trkpt>
      <trkpt lat="42.743982600" lon="-0.782819720">
        <ele>1067.68</ele>
        <time>2014-08-14T07:59:35Z</time>
      </trkpt>
      <trkpt lat="42.743819070" lon="-0.782925330">
        <ele>1068.64</ele>
        <time>2014-08-14T07:59:43Z</time>
      </trkpt>
      <trkpt lat="42.743642960" lon="-0.782948130">
        <ele>1070.08</ele>
        <time>2014-08-14T07:59:50Z</time>
      </trkpt>
      <trkpt lat="42.743448170" lon="-0.782872020">
        <ele>1071.05</ele>
        <time>2014-08-14T07:59:59Z</time>
      </trkpt>
      <trkpt lat="42.743263930" lon="-0.782762550">
        <ele>1072.49</ele>
        <time>2014-08-14T08:00:09Z</time>
      </trkpt>
      <trkpt lat="42.743101070" lon="-0.782662390">
        <ele>1072.97</ele>
        <time>2014-08-14T08:00:17Z</time>
      </trkpt>
      <trkpt lat="42.742926140" lon="-0.782554930">
        <ele>1075.37</ele>
        <time>2014-08-14T08:00:26Z</time>
      </trkpt>
      <trkpt lat="42.742737470" lon="-0.782452670">
        <ele>1076.33</ele>
        <time>2014-08-14T08:00:35Z</time>
      </trkpt>
      <trkpt lat="42.742578460" lon="-0.782344630">
        <ele>1077.78</ele>
        <time>2014-08-14T08:00:43Z</time>
      </trkpt>
      <trkpt lat="42.742361540" lon="-0.782202640">
        <ele>1079.22</ele>
        <time>2014-08-14T08:00:54Z</time>
      </trkpt>
      <trkpt lat="42.742187780" lon="-0.782088060">
        <ele>1080.66</ele>
        <time>2014-08-14T08:01:03Z</time>
      </trkpt>
      <trkpt lat="42.742010000" lon="-0.782034000">
        <ele>1082.58</ele>
        <time>2014-08-14T08:01:12Z</time>
      </trkpt>
      <trkpt lat="42.741899280" lon="-0.782142880">
        <ele>1083.54</ele>
        <time>2014-08-14T08:01:19Z</time>
      </trkpt>
      <trkpt lat="42.741854100" lon="-0.782407580">
        <ele>1082.58</ele>
        <time>2014-08-14T08:01:27Z</time>
      </trkpt>
      <trkpt lat="42.741795340" lon="-0.782664150">
        <ele>1082.58</ele>
        <time>2014-08-14T08:01:36Z</time>
      </trkpt>
      <trkpt lat="42.741758540" lon="-0.782955250">
        <ele>1082.10</ele>
        <time>2014-08-14T08:01:44Z</time>
      </trkpt>
      <trkpt lat="42.741713870" lon="-0.783180640">
        <ele>1082.10</ele>
        <time>2014-08-14T08:01:49Z</time>
      </trkpt>
      <trkpt lat="42.741632060" lon="-0.783450710">
        <ele>1080.66</ele>
        <time>2014-08-14T08:01:54Z</time>
      </trkpt>
      <trkpt lat="42.741473480" lon="-0.783756810">
        <ele>1080.18</ele>
        <time>2014-08-14T08:01:59Z</time>
      </trkpt>
      <trkpt lat="42.741234760" lon="-0.783984550">
        <ele>1079.70</ele>
        <time>2014-08-14T08:02:04Z</time>
      </trkpt>
      <trkpt lat="42.740708210" lon="-0.784212620">
        <ele>1077.78</ele>
        <time>2014-08-14T08:02:14Z</time>
      </trkpt>
      <trkpt lat="42.740612570" lon="-0.784343550">
        <ele>1077.78</ele>
        <time>2014-08-14T08:02:18Z</time>
      </trkpt>
      <trkpt lat="42.740653470" lon="-0.784415800">
        <ele>1077.78</ele>
        <time>2014-08-14T08:02:21Z</time>
      </trkpt>
      <trkpt lat="42.740811980" lon="-0.784459550">
        <ele>1079.70</ele>
        <time>2014-08-14T08:02:31Z</time>
      </trkpt>
      <trkpt lat="42.740918680" lon="-0.784438430">
        <ele>1079.70</ele>
        <time>2014-08-14T08:02:38Z</time>
      </trkpt>
      <trkpt lat="42.741011630" lon="-0.784442620">
        <ele>1083.06</ele>
        <time>2014-08-14T08:02:44Z</time>
      </trkpt>
      <trkpt lat="42.741142890" lon="-0.784400630">
        <ele>1084.50</ele>
        <time>2014-08-14T08:02:53Z</time>
      </trkpt>
      <trkpt lat="42.741291500" lon="-0.784319490">
        <ele>1085.95</ele>
        <time>2014-08-14T08:03:02Z</time>
      </trkpt>
      <trkpt lat="42.741431060" lon="-0.784255540">
        <ele>1087.39</ele>
        <time>2014-08-14T08:03:11Z</time>
      </trkpt>
      <trkpt lat="42.741554190" lon="-0.784177250">
        <ele>1087.87</ele>
        <time>2014-08-14T08:03:19Z</time>
      </trkpt>
      <trkpt lat="42.741688720" lon="-0.784104580">
        <ele>1089.31</ele>
        <time>2014-08-14T08:03:28Z</time>
      </trkpt>
      <trkpt lat="42.741812440" lon="-0.784046240">
        <ele>1090.27</ele>
        <time>2014-08-14T08:03:36Z</time>
      </trkpt>
      <trkpt lat="42.741980830" lon="-0.783998300">
        <ele>1091.23</ele>
        <time>2014-08-14T08:03:47Z</time>
      </trkpt>
      <trkpt lat="42.742087870" lon="-0.783947500">
        <ele>1093.64</ele>
        <time>2014-08-14T08:03:55Z</time>
      </trkpt>
      <trkpt lat="42.742200520" lon="-0.783920090">
        <ele>1096.04</ele>
        <time>2014-08-14T08:04:03Z</time>
      </trkpt>
      <trkpt lat="42.742366230" lon="-0.783896620">
        <ele>1097.48</ele>
        <time>2014-08-14T08:04:13Z</time>
      </trkpt>
      <trkpt lat="42.742524310" lon="-0.783879940">
        <ele>1100.37</ele>
        <time>2014-08-14T08:04:23Z</time>
      </trkpt>
      <trkpt lat="42.742662030" lon="-0.783854130">
        <ele>1102.77</ele>
        <time>2014-08-14T08:04:32Z</time>
      </trkpt>
      <trkpt lat="42.742836880" lon="-0.783807020">
        <ele>1104.21</ele>
        <time>2014-08-14T08:04:43Z</time>
      </trkpt>
      <trkpt lat="42.743019940" lon="-0.783731920">
        <ele>1107.10</ele>
        <time>2014-08-14T08:04:54Z</time>
      </trkpt>
      <trkpt lat="42.743214400" lon="-0.783686410">
        <ele>1106.61</ele>
        <time>2014-08-14T08:05:03Z</time>
      </trkpt>
      <trkpt lat="42.743410450" lon="-0.783646340">
        <ele>1107.10</ele>
        <time>2014-08-14T08:05:12Z</time>
      </trkpt>
      <trkpt lat="42.743482110" lon="-0.783649690">
        <ele>1106.61</ele>
        <time>2014-08-14T08:05:19Z</time>
      </trkpt>
      <trkpt lat="42.743506930" lon="-0.783624460">
        <ele>1106.61</ele>
        <time>2014-08-14T08:05:33Z</time>
      </trkpt>
      <trkpt lat="42.743525450" lon="-0.783637450">
        <ele>1106.61</ele>
        <time>2014-08-14T08:05:44Z</time>
      </trkpt>
      <trkpt lat="42.743637100" lon="-0.783727220">
        <ele>1106.13</ele>
        <time>2014-08-14T08:05:51Z</time>
      </trkpt>
      <trkpt lat="42.743808170" lon="-0.783778520">
        <ele>1106.13</ele>
        <time>2014-08-14T08:05:59Z</time>
      </trkpt>
      <trkpt lat="42.743985620" lon="-0.783745410">
        <ele>1107.58</ele>
        <time>2014-08-14T08:06:07Z</time>
      </trkpt>
      <trkpt lat="42.744206480" lon="-0.783599320">
        <ele>1108.54</ele>
        <time>2014-08-14T08:06:17Z</time>
      </trkpt>
      <trkpt lat="42.744398260" lon="-0.783491780">
        <ele>1109.98</ele>
        <time>2014-08-14T08:06:28Z</time>
      </trkpt>
      <trkpt lat="42.744563040" lon="-0.783452630">
        <ele>1111.42</ele>
        <time>2014-08-14T08:06:37Z</time>
      </trkpt>
      <trkpt lat="42.744723730" lon="-0.783384240">
        <ele>1113.82</ele>
        <time>2014-08-14T08:06:46Z</time>
      </trkpt>
      <trkpt lat="42.744865880" lon="-0.783342580">
        <ele>1116.23</ele>
        <time>2014-08-14T08:06:54Z</time>
      </trkpt>
      <trkpt lat="42.744884410" lon="-0.783341740">
        <ele>1116.23</ele>
        <time>2014-08-14T08:06:55Z</time>
      </trkpt>
      <trkpt lat="42.745056240" lon="-0.783379210">
        <ele>1118.63</ele>
        <time>2014-08-14T08:07:04Z</time>
      </trkpt>
      <trkpt lat="42.745249520" lon="-0.783466880">
        <ele>1119.59</ele>
        <time>2014-08-14T08:07:14Z</time>
      </trkpt>
      <trkpt lat="42.745499560" lon="-0.783600490">
        <ele>1120.07</ele>
        <time>2014-08-14T08:07:27Z</time>
      </trkpt>
      <trkpt lat="42.745683790" lon="-0.783736450">
        <ele>1122.48</ele>
        <time>2014-08-14T08:07:37Z</time>
      </trkpt>
      <trkpt lat="42.745846480" lon="-0.783908940">
        <ele>1122.96</ele>
        <time>2014-08-14T08:07:46Z</time>
      </trkpt>
      <trkpt lat="42.745981100" lon="-0.784165770">
        <ele>1124.40</ele>
        <time>2014-08-14T08:07:56Z</time>
      </trkpt>
      <trkpt lat="42.746102800" lon="-0.784369450">
        <ele>1124.88</ele>
        <time>2014-08-14T08:08:04Z</time>
      </trkpt>
      <trkpt lat="42.746255600" lon="-0.784520400">
        <ele>1125.36</ele>
        <time>2014-08-14T08:08:14Z</time>
      </trkpt>
      <trkpt lat="42.746383340" lon="-0.784601540">
        <ele>1126.80</ele>
        <time>2014-08-14T08:08:21Z</time>
      </trkpt>
      <trkpt lat="42.746531950" lon="-0.784763900">
        <ele>1127.76</ele>
        <time>2014-08-14T08:08:31Z</time>
      </trkpt>
      <trkpt lat="42.746607220" lon="-0.784907820">
        <ele>1127.76</ele>
        <time>2014-08-14T08:08:38Z</time>
      </trkpt>
      <trkpt lat="42.746746950" lon="-0.785132200">
        <ele>1128.73</ele>
        <time>2014-08-14T08:08:48Z</time>
      </trkpt>
      <trkpt lat="42.746848120" lon="-0.785322720">
        <ele>1128.73</ele>
        <time>2014-08-14T08:08:57Z</time>
      </trkpt>
      <trkpt lat="42.746962530" lon="-0.785433360">
        <ele>1130.17</ele>
        <time>2014-08-14T08:09:05Z</time>
      </trkpt>
      <trkpt lat="42.747005700" lon="-0.785401090">
        <ele>1129.69</ele>
        <time>2014-08-14T08:09:12Z</time>
      </trkpt>
      <trkpt lat="42.747013660" lon="-0.785396820">
        <ele>1130.17</ele>
        <time>2014-08-14T08:09:22Z</time>
      </trkpt>
      <trkpt lat="42.747016680" lon="-0.785397490">
        <ele>1130.17</ele>
        <time>2014-08-14T08:09:23Z</time>
      </trkpt>
      <trkpt lat="42.747019280" lon="-0.785382230">
        <ele>1130.17</ele>
        <time>2014-08-14T08:13:49Z</time>
      </trkpt>
      <trkpt lat="42.747069650" lon="-0.785332110">
        <ele>1129.21</ele>
        <time>2014-08-14T08:13:53Z</time>
      </trkpt>
      <trkpt lat="42.747205690" lon="-0.785138990">
        <ele>1127.28</ele>
        <time>2014-08-14T08:13:57Z</time>
      </trkpt>
      <trkpt lat="42.747295040" lon="-0.785023650">
        <ele>1126.32</ele>
        <time>2014-08-14T08:13:59Z</time>
      </trkpt>
      <trkpt lat="42.747385400" lon="-0.784927260">
        <ele>1124.88</ele>
        <time>2014-08-14T08:14:01Z</time>
      </trkpt>
      <trkpt lat="42.747482040" lon="-0.784833800">
        <ele>1121.03</ele>
        <time>2014-08-14T08:14:03Z</time>
      </trkpt>
      <trkpt lat="42.747625290" lon="-0.784693240">
        <ele>1117.67</ele>
        <time>2014-08-14T08:14:06Z</time>
      </trkpt>
      <trkpt lat="42.747783370" lon="-0.784501210">
        <ele>1114.31</ele>
        <time>2014-08-14T08:14:09Z</time>
      </trkpt>
      <trkpt lat="42.747946900" lon="-0.784265760">
        <ele>1110.94</ele>
        <time>2014-08-14T08:14:12Z</time>
      </trkpt>
      <trkpt lat="42.748097950" lon="-0.784016400">
        <ele>1107.58</ele>
        <time>2014-08-14T08:14:15Z</time>
      </trkpt>
      <trkpt lat="42.748282350" lon="-0.783691770">
        <ele>1104.69</ele>
        <time>2014-08-14T08:14:19Z</time>
      </trkpt>
      <trkpt lat="42.748329370" lon="-0.783605520">
        <ele>1104.21</ele>
        <time>2014-08-14T08:14:20Z</time>
      </trkpt>
      <trkpt lat="42.748504220" lon="-0.783221800">
        <ele>1101.33</ele>
        <time>2014-08-14T08:14:24Z</time>
      </trkpt>
      <trkpt lat="42.748551320" lon="-0.783122720">
        <ele>1100.85</ele>
        <time>2014-08-14T08:14:25Z</time>
      </trkpt>
      <trkpt lat="42.748863970" lon="-0.782630960">
        <ele>1100.37</ele>
        <time>2014-08-14T08:14:31Z</time>
      </trkpt>
      <trkpt lat="42.749049960" lon="-0.782385530">
        <ele>1101.33</ele>
        <time>2014-08-14T08:14:36Z</time>
      </trkpt>
      <trkpt lat="42.749202680" lon="-0.782163250">
        <ele>1102.29</ele>
        <time>2014-08-14T08:14:43Z</time>
      </trkpt>
      <trkpt lat="42.749368730" lon="-0.781941960">
        <ele>1104.21</ele>
        <time>2014-08-14T08:14:52Z</time>
      </trkpt>
      <trkpt lat="42.749480960" lon="-0.781837020">
        <ele>1107.58</ele>
        <time>2014-08-14T08:14:59Z</time>
      </trkpt>
      <trkpt lat="42.749497140" lon="-0.781822020">
        <ele>1107.58</ele>
        <time>2014-08-14T08:15:00Z</time>
      </trkpt>
      <trkpt lat="42.749639540" lon="-0.781715650">
        <ele>1109.50</ele>
        <time>2014-08-14T08:15:08Z</time>
      </trkpt>
      <trkpt lat="42.749833840" lon="-0.781641980">
        <ele>1110.46</ele>
        <time>2014-08-14T08:15:19Z</time>
      </trkpt>
      <trkpt lat="42.750063080" lon="-0.781597890">
        <ele>1109.98</ele>
        <time>2014-08-14T08:15:28Z</time>
      </trkpt>
      <trkpt lat="42.750324680" lon="-0.781615910">
        <ele>1109.50</ele>
        <time>2014-08-14T08:15:36Z</time>
      </trkpt>
      <trkpt lat="42.750544040" lon="-0.781615150">
        <ele>1110.46</ele>
        <time>2014-08-14T08:15:45Z</time>
      </trkpt>
      <trkpt lat="42.750708820" lon="-0.781647760">
        <ele>1110.94</ele>
        <time>2014-08-14T08:15:54Z</time>
      </trkpt>
      <trkpt lat="42.750906720" lon="-0.781598390">
        <ele>1113.34</ele>
        <time>2014-08-14T08:16:04Z</time>
      </trkpt>
      <trkpt lat="42.751060190" lon="-0.781475510">
        <ele>1113.82</ele>
        <time>2014-08-14T08:16:13Z</time>
      </trkpt>
      <trkpt lat="42.751179050" lon="-0.781346010">
        <ele>1115.75</ele>
        <time>2014-08-14T08:16:22Z</time>
      </trkpt>
      <trkpt lat="42.751286920" lon="-0.781165630">
        <ele>1117.67</ele>
        <time>2014-08-14T08:16:32Z</time>
      </trkpt>
      <trkpt lat="42.751358340" lon="-0.780984750">
        <ele>1120.07</ele>
        <time>2014-08-14T08:16:41Z</time>
      </trkpt>
      <trkpt lat="42.751442320" lon="-0.780780990">
        <ele>1123.44</ele>
        <time>2014-08-14T08:16:51Z</time>
      </trkpt>
      <trkpt lat="42.751521450" lon="-0.780562220">
        <ele>1126.80</ele>
        <time>2014-08-14T08:17:01Z</time>
      </trkpt>
      <trkpt lat="42.751612390" lon="-0.780387790">
        <ele>1127.76</ele>
        <time>2014-08-14T08:17:11Z</time>
      </trkpt>
      <trkpt lat="42.751626730" lon="-0.780382760">
        <ele>1128.24</ele>
        <time>2014-08-14T08:17:12Z</time>
      </trkpt>
      <trkpt lat="42.751685150" lon="-0.780461970">
        <ele>1129.69</ele>
        <time>2014-08-14T08:17:19Z</time>
      </trkpt>
      <trkpt lat="42.751665200" lon="-0.780553420">
        <ele>1131.13</ele>
        <time>2014-08-14T08:17:24Z</time>
      </trkpt>
      <trkpt lat="42.751667710" lon="-0.780631620">
        <ele>1131.13</ele>
        <time>2014-08-14T08:17:28Z</time>
      </trkpt>
      <trkpt lat="42.751668640" lon="-0.780844350">
        <ele>1133.53</ele>
        <time>2014-08-14T08:17:38Z</time>
      </trkpt>
      <trkpt lat="42.751663100" lon="-0.781078040">
        <ele>1135.45</ele>
        <time>2014-08-14T08:17:49Z</time>
      </trkpt>
      <trkpt lat="42.751662850" lon="-0.781292370">
        <ele>1138.34</ele>
        <time>2014-08-14T08:17:59Z</time>
      </trkpt>
      <trkpt lat="42.751673410" lon="-0.781491860">
        <ele>1139.30</ele>
        <time>2014-08-14T08:18:08Z</time>
      </trkpt>
      <trkpt lat="42.751697130" lon="-0.781637360">
        <ele>1141.22</ele>
        <time>2014-08-14T08:18:15Z</time>
      </trkpt>
      <trkpt lat="42.751770480" lon="-0.781803330">
        <ele>1141.70</ele>
        <time>2014-08-14T08:18:24Z</time>
      </trkpt>
      <trkpt lat="42.751871230" lon="-0.781861830">
        <ele>1144.11</ele>
        <time>2014-08-14T08:18:32Z</time>
      </trkpt>
      <trkpt lat="42.751987480" lon="-0.781898040">
        <ele>1146.51</ele>
        <time>2014-08-14T08:18:40Z</time>
      </trkpt>
      <trkpt lat="42.752119670" lon="-0.781827470">
        <ele>1148.91</ele>
        <time>2014-08-14T08:18:49Z</time>
      </trkpt>
      <trkpt lat="42.752121510" lon="-0.781697040">
        <ele>1150.35</ele>
        <time>2014-08-14T08:18:56Z</time>
      </trkpt>
      <trkpt lat="42.752090920" lon="-0.781500910">
        <ele>1152.28</ele>
        <time>2014-08-14T08:19:07Z</time>
      </trkpt>
      <trkpt lat="42.752149090" lon="-0.781370230">
        <ele>1155.16</ele>
        <time>2014-08-14T08:19:15Z</time>
      </trkpt>
      <trkpt lat="42.752259640" lon="-0.781309970">
        <ele>1156.60</ele>
        <time>2014-08-14T08:19:23Z</time>
      </trkpt>
      <trkpt lat="42.752358890" lon="-0.781304520">
        <ele>1157.56</ele>
        <time>2014-08-14T08:19:30Z</time>
      </trkpt>
      <trkpt lat="42.752390650" lon="-0.781318940">
        <ele>1158.05</ele>
        <time>2014-08-14T08:19:32Z</time>
      </trkpt>
      <trkpt lat="42.752591230" lon="-0.781293790">
        <ele>1159.49</ele>
        <time>2014-08-14T08:19:45Z</time>
      </trkpt>
      <trkpt lat="42.752724250" lon="-0.781290860">
        <ele>1159.97</ele>
        <time>2014-08-14T08:19:54Z</time>
      </trkpt>
      <trkpt lat="42.752809830" lon="-0.781299240">
        <ele>1160.93</ele>
        <time>2014-08-14T08:20:03Z</time>
      </trkpt>
      <trkpt lat="42.752813940" lon="-0.781291440">
        <ele>1160.93</ele>
        <time>2014-08-14T08:20:14Z</time>
      </trkpt>
      <trkpt lat="42.752813600" lon="-0.781299660">
        <ele>1161.41</ele>
        <time>2014-08-14T08:20:27Z</time>
      </trkpt>
      <trkpt lat="42.752838920" lon="-0.781308210">
        <ele>1160.93</ele>
        <time>2014-08-14T08:20:36Z</time>
      </trkpt>
      <trkpt lat="42.752944780" lon="-0.781305940">
        <ele>1162.85</ele>
        <time>2014-08-14T08:20:44Z</time>
      </trkpt>
      <trkpt lat="42.753089120" lon="-0.781285660">
        <ele>1165.26</ele>
        <time>2014-08-14T08:20:54Z</time>
      </trkpt>
      <trkpt lat="42.753196150" lon="-0.781195220">
        <ele>1168.62</ele>
        <time>2014-08-14T08:21:05Z</time>
      </trkpt>
      <trkpt lat="42.753272010" lon="-0.781114750">
        <ele>1170.54</ele>
        <time>2014-08-14T08:21:14Z</time>
      </trkpt>
      <trkpt lat="42.753364970" lon="-0.781001010">
        <ele>1172.95</ele>
        <time>2014-08-14T08:21:24Z</time>
      </trkpt>
      <trkpt lat="42.753422800" lon="-0.780945940">
        <ele>1174.39</ele>
        <time>2014-08-14T08:21:29Z</time>
      </trkpt>
      <trkpt lat="42.753540150" lon="-0.780843180">
        <ele>1178.23</ele>
        <time>2014-08-14T08:21:40Z</time>
      </trkpt>
      <trkpt lat="42.753550290" lon="-0.780840830">
        <ele>1178.71</ele>
        <time>2014-08-14T08:21:41Z</time>
      </trkpt>
      <trkpt lat="42.753638550" lon="-0.780746700">
        <ele>1180.16</ele>
        <time>2014-08-14T08:21:50Z</time>
      </trkpt>
      <trkpt lat="42.753653300" lon="-0.780704460">
        <ele>1181.60</ele>
        <time>2014-08-14T08:21:53Z</time>
      </trkpt>
      <trkpt lat="42.753742650" lon="-0.780562550">
        <ele>1184.48</ele>
        <time>2014-08-14T08:22:03Z</time>
      </trkpt>
      <trkpt lat="42.753813310" lon="-0.780450150">
        <ele>1186.40</ele>
        <time>2014-08-14T08:22:11Z</time>
      </trkpt>
      <trkpt lat="42.753897470" lon="-0.780339590">
        <ele>1189.29</ele>
        <time>2014-08-14T08:22:19Z</time>
      </trkpt>
      <trkpt lat="42.754006260" lon="-0.780218390">
        <ele>1191.69</ele>
        <time>2014-08-14T08:22:29Z</time>
      </trkpt>
      <trkpt lat="42.754139790" lon="-0.780181680">
        <ele>1191.21</ele>
        <time>2014-08-14T08:22:37Z</time>
      </trkpt>
      <trkpt lat="42.754297370" lon="-0.780154020">
        <ele>1191.69</ele>
        <time>2014-08-14T08:22:44Z</time>
      </trkpt>
      <trkpt lat="42.754481770" lon="-0.780126950">
        <ele>1191.69</ele>
        <time>2014-08-14T08:22:52Z</time>
      </trkpt>
      <trkpt lat="42.754675480" lon="-0.780112360">
        <ele>1191.21</ele>
        <time>2014-08-14T08:23:00Z</time>
      </trkpt>
      <trkpt lat="42.754848390" lon="-0.780057710">
        <ele>1192.17</ele>
        <time>2014-08-14T08:23:09Z</time>
      </trkpt>
      <trkpt lat="42.754982000" lon="-0.779940450">
        <ele>1195.54</ele>
        <time>2014-08-14T08:23:19Z</time>
      </trkpt>
      <trkpt lat="42.755117710" lon="-0.779825450">
        <ele>1197.94</ele>
        <time>2014-08-14T08:23:29Z</time>
      </trkpt>
      <trkpt lat="42.755239160" lon="-0.779763510">
        <ele>1199.38</ele>
        <time>2014-08-14T08:23:38Z</time>
      </trkpt>
      <trkpt lat="42.755335300" lon="-0.779729060">
        <ele>1201.79</ele>
        <time>2014-08-14T08:23:45Z</time>
      </trkpt>
      <trkpt lat="42.755389280" lon="-0.779714890">
        <ele>1202.75</ele>
        <time>2014-08-14T08:23:49Z</time>
      </trkpt>
      <trkpt lat="42.755497740" lon="-0.779719670">
        <ele>1206.11</ele>
        <time>2014-08-14T08:23:56Z</time>
      </trkpt>
      <trkpt lat="42.755557080" lon="-0.779700140">
        <ele>1207.07</ele>
        <time>2014-08-14T08:24:00Z</time>
      </trkpt>
      <trkpt lat="42.755656410" lon="-0.779641380">
        <ele>1209.48</ele>
        <time>2014-08-14T08:24:07Z</time>
      </trkpt>
      <trkpt lat="42.755686840" lon="-0.779624200">
        <ele>1210.44</ele>
        <time>2014-08-14T08:24:09Z</time>
      </trkpt>
      <trkpt lat="42.755732350" lon="-0.779603660">
        <ele>1211.88</ele>
        <time>2014-08-14T08:24:12Z</time>
      </trkpt>
      <trkpt lat="42.755824720" lon="-0.779571230">
        <ele>1215.24</ele>
        <time>2014-08-14T08:24:19Z</time>
      </trkpt>
      <trkpt lat="42.755917590" lon="-0.779571480">
        <ele>1216.69</ele>
        <time>2014-08-14T08:24:28Z</time>
      </trkpt>
      <trkpt lat="42.755928740" lon="-0.779588320">
        <ele>1216.69</ele>
        <time>2014-08-14T08:24:37Z</time>
      </trkpt>
      <trkpt lat="42.755935950" lon="-0.779598720">
        <ele>1216.21</ele>
        <time>2014-08-14T08:24:39Z</time>
      </trkpt>
      <trkpt lat="42.756065870" lon="-0.779699390">
        <ele>1215.24</ele>
        <time>2014-08-14T08:24:46Z</time>
      </trkpt>
      <trkpt lat="42.756260910" lon="-0.779930890">
        <ele>1212.36</ele>
        <time>2014-08-14T08:24:52Z</time>
      </trkpt>
      <trkpt lat="42.756292510" lon="-0.779970040">
        <ele>1211.88</ele>
        <time>2014-08-14T08:24:53Z</time>
      </trkpt>
      <trkpt lat="42.756380020" lon="-0.780045810">
        <ele>1210.44</ele>
        <time>2014-08-14T08:24:57Z</time>
      </trkpt>
      <trkpt lat="42.756408600" lon="-0.780063410">
        <ele>1209.96</ele>
        <time>2014-08-14T08:25:03Z</time>
      </trkpt>
      <trkpt lat="42.756413380" lon="-0.780061230">
        <ele>1209.96</ele>
        <time>2014-08-14T08:25:15Z</time>
      </trkpt>
      <trkpt lat="42.756490330" lon="-0.780089310">
        <ele>1210.44</ele>
        <time>2014-08-14T08:25:57Z</time>
      </trkpt>
      <trkpt lat="42.756642210" lon="-0.780166510">
        <ele>1209.96</ele>
        <time>2014-08-14T08:28:11Z</time>
      </trkpt>
      <trkpt lat="42.756806070" lon="-0.780238680">
        <ele>1208.51</ele>
        <time>2014-08-14T08:28:15Z</time>
      </trkpt>
      <trkpt lat="42.756947470" lon="-0.780349740">
        <ele>1207.55</ele>
        <time>2014-08-14T08:28:18Z</time>
      </trkpt>
      <trkpt lat="42.757132880" lon="-0.780565240">
        <ele>1206.59</ele>
        <time>2014-08-14T08:28:22Z</time>
      </trkpt>
      <trkpt lat="42.757216620" lon="-0.780768160">
        <ele>1208.03</ele>
        <time>2014-08-14T08:28:26Z</time>
      </trkpt>
      <trkpt lat="42.757219800" lon="-0.780977040">
        <ele>1209.96</ele>
        <time>2014-08-14T08:28:32Z</time>
      </trkpt>
      <trkpt lat="42.757213680" lon="-0.781009730">
        <ele>1209.96</ele>
        <time>2014-08-14T08:28:33Z</time>
      </trkpt>
      <trkpt lat="42.757121480" lon="-0.781271330">
        <ele>1211.88</ele>
        <time>2014-08-14T08:28:41Z</time>
      </trkpt>
      <trkpt lat="42.757124000" lon="-0.781354480">
        <ele>1211.88</ele>
        <time>2014-08-14T08:28:43Z</time>
      </trkpt>
      <trkpt lat="42.757282580" lon="-0.781504600">
        <ele>1210.44</ele>
        <time>2014-08-14T08:28:48Z</time>
      </trkpt>
      <trkpt lat="42.757328100" lon="-0.781520770">
        <ele>1210.44</ele>
        <time>2014-08-14T08:28:49Z</time>
      </trkpt>
      <trkpt lat="42.757608220" lon="-0.781584810">
        <ele>1209.00</ele>
        <time>2014-08-14T08:28:54Z</time>
      </trkpt>
      <trkpt lat="42.757876110" lon="-0.781571060">
        <ele>1209.00</ele>
        <time>2014-08-14T08:29:00Z</time>
      </trkpt>
      <trkpt lat="42.758000830" lon="-0.781540130">
        <ele>1208.51</ele>
        <time>2014-08-14T08:29:03Z</time>
      </trkpt>
      <trkpt lat="42.758137790" lon="-0.781693190">
        <ele>1208.03</ele>
        <time>2014-08-14T08:29:07Z</time>
      </trkpt>
      <trkpt lat="42.758295280" lon="-0.781854620">
        <ele>1207.07</ele>
        <time>2014-08-14T08:29:12Z</time>
      </trkpt>
      <trkpt lat="42.758449090" lon="-0.781995020">
        <ele>1205.15</ele>
        <time>2014-08-14T08:29:15Z</time>
      </trkpt>
      <trkpt lat="42.758537270" lon="-0.782143130">
        <ele>1205.15</ele>
        <time>2014-08-14T08:29:17Z</time>
      </trkpt>
      <trkpt lat="42.758659900" lon="-0.782529700">
        <ele>1201.79</ele>
        <time>2014-08-14T08:29:21Z</time>
      </trkpt>
      <trkpt lat="42.758625360" lon="-0.782958190">
        <ele>1200.34</ele>
        <time>2014-08-14T08:29:26Z</time>
      </trkpt>
      <trkpt lat="42.758534420" lon="-0.783115260">
        <ele>1199.86</ele>
        <time>2014-08-14T08:29:28Z</time>
      </trkpt>
      <trkpt lat="42.758475160" lon="-0.783386670">
        <ele>1197.94</ele>
        <time>2014-08-14T08:29:31Z</time>
      </trkpt>
      <trkpt lat="42.758434010" lon="-0.783561850">
        <ele>1197.46</ele>
        <time>2014-08-14T08:29:33Z</time>
      </trkpt>
      <trkpt lat="42.758225880" lon="-0.783862510">
        <ele>1194.09</ele>
        <time>2014-08-14T08:29:38Z</time>
      </trkpt>
      <trkpt lat="42.758156900" lon="-0.784013890">
        <ele>1194.09</ele>
        <time>2014-08-14T08:29:40Z</time>
      </trkpt>
      <trkpt lat="42.758017010" lon="-0.784246150">
        <ele>1192.17</ele>
        <time>2014-08-14T08:29:43Z</time>
      </trkpt>
      <trkpt lat="42.757705110" lon="-0.784738500">
        <ele>1190.73</ele>
        <time>2014-08-14T08:29:50Z</time>
      </trkpt>
      <trkpt lat="42.757593550" lon="-0.784877560">
        <ele>1189.29</ele>
        <time>2014-08-14T08:29:52Z</time>
      </trkpt>
      <trkpt lat="42.757587770" lon="-0.785156590">
        <ele>1187.85</ele>
        <time>2014-08-14T08:29:56Z</time>
      </trkpt>
      <trkpt lat="42.757760520" lon="-0.785274780">
        <ele>1185.44</ele>
        <time>2014-08-14T08:30:00Z</time>
      </trkpt>
      <trkpt lat="42.757875440" lon="-0.785316270">
        <ele>1184.48</ele>
        <time>2014-08-14T08:30:02Z</time>
      </trkpt>
      <trkpt lat="42.758143570" lon="-0.785381560">
        <ele>1183.52</ele>
        <time>2014-08-14T08:30:06Z</time>
      </trkpt>
      <trkpt lat="42.758364940" lon="-0.785359180">
        <ele>1181.60</ele>
        <time>2014-08-14T08:30:09Z</time>
      </trkpt>
      <trkpt lat="42.758442550" lon="-0.785335290">
        <ele>1181.60</ele>
        <time>2014-08-14T08:30:10Z</time>
      </trkpt>
      <trkpt lat="42.758662830" lon="-0.785227590">
        <ele>1180.16</ele>
        <time>2014-08-14T08:30:13Z</time>
      </trkpt>
      <trkpt lat="42.758929960" lon="-0.785226660">
        <ele>1178.23</ele>
        <time>2014-08-14T08:30:17Z</time>
      </trkpt>
      <trkpt lat="42.759084690" lon="-0.785530340">
        <ele>1177.27</ele>
        <time>2014-08-14T08:30:21Z</time>
      </trkpt>
      <trkpt lat="42.759082010" lon="-0.785968630">
        <ele>1175.35</ele>
        <time>2014-08-14T08:30:26Z</time>
      </trkpt>
      <trkpt lat="42.758965080" lon="-0.786662650">
        <ele>1172.47</ele>
        <time>2014-08-14T08:30:33Z</time>
      </trkpt>
      <trkpt lat="42.758803480" lon="-0.787156680">
        <ele>1171.50</ele>
        <time>2014-08-14T08:30:38Z</time>
      </trkpt>
      <trkpt lat="42.758823430" lon="-0.787486590">
        <ele>1169.58</ele>
        <time>2014-08-14T08:30:42Z</time>
      </trkpt>
      <trkpt lat="42.758864670" lon="-0.787534450">
        <ele>1169.10</ele>
        <time>2014-08-14T08:30:43Z</time>
      </trkpt>
      <trkpt lat="42.758916470" lon="-0.787567560">
        <ele>1168.62</ele>
        <time>2014-08-14T08:30:44Z</time>
      </trkpt>
      <trkpt lat="42.759074210" lon="-0.787639810">
        <ele>1168.62</ele>
        <time>2014-08-14T08:30:47Z</time>
      </trkpt>
      <trkpt lat="42.759179410" lon="-0.787672500">
        <ele>1168.14</ele>
        <time>2014-08-14T08:30:49Z</time>
      </trkpt>
      <trkpt lat="42.759392730" lon="-0.787701500">
        <ele>1165.74</ele>
        <time>2014-08-14T08:30:55Z</time>
      </trkpt>
      <trkpt lat="42.759403460" lon="-0.787718100">
        <ele>1166.70</ele>
        <time>2014-08-14T08:31:06Z</time>
      </trkpt>
      <trkpt lat="42.759391810" lon="-0.787730000">
        <ele>1166.70</ele>
        <time>2014-08-14T08:31:26Z</time>
      </trkpt>
      <trkpt lat="42.759517620" lon="-0.787695300">
        <ele>1165.74</ele>
        <time>2014-08-14T08:31:31Z</time>
      </trkpt>
      <trkpt lat="42.759886420" lon="-0.787575020">
        <ele>1164.29</ele>
        <time>2014-08-14T08:31:38Z</time>
      </trkpt>
      <trkpt lat="42.760327480" lon="-0.787369500">
        <ele>1160.93</ele>
        <time>2014-08-14T08:31:45Z</time>
      </trkpt>
      <trkpt lat="42.760587900" lon="-0.787208230">
        <ele>1159.49</ele>
        <time>2014-08-14T08:31:49Z</time>
      </trkpt>
      <trkpt lat="42.760713460" lon="-0.787161540">
        <ele>1158.53</ele>
        <time>2014-08-14T08:31:52Z</time>
      </trkpt>
      <trkpt lat="42.760971960" lon="-0.787004800">
        <ele>1157.08</ele>
        <time>2014-08-14T08:31:57Z</time>
      </trkpt>
      <trkpt lat="42.761179410" lon="-0.786983760">
        <ele>1155.16</ele>
        <time>2014-08-14T08:32:01Z</time>
      </trkpt>
      <trkpt lat="42.761292400" lon="-0.787226250">
        <ele>1154.68</ele>
        <time>2014-08-14T08:32:05Z</time>
      </trkpt>
      <trkpt lat="42.761294330" lon="-0.787364890">
        <ele>1154.20</ele>
        <time>2014-08-14T08:32:07Z</time>
      </trkpt>
      <trkpt lat="42.761264660" lon="-0.787524810">
        <ele>1153.24</ele>
        <time>2014-08-14T08:32:09Z</time>
      </trkpt>
      <trkpt lat="42.761345380" lon="-0.787769980">
        <ele>1152.28</ele>
        <time>2014-08-14T08:32:13Z</time>
      </trkpt>
      <trkpt lat="42.761413940" lon="-0.788022780">
        <ele>1151.32</ele>
        <time>2014-08-14T08:32:17Z</time>
      </trkpt>
      <trkpt lat="42.761402880" lon="-0.788079860">
        <ele>1150.84</ele>
        <time>2014-08-14T08:32:18Z</time>
      </trkpt>
      <trkpt lat="42.761316290" lon="-0.788411700">
        <ele>1152.76</ele>
        <time>2014-08-14T08:32:25Z</time>
      </trkpt>
      <trkpt lat="42.761215040" lon="-0.788618570">
        <ele>1152.28</ele>
        <time>2014-08-14T08:32:31Z</time>
      </trkpt>
      <trkpt lat="42.761033150" lon="-0.788897270">
        <ele>1152.28</ele>
        <time>2014-08-14T08:32:39Z</time>
      </trkpt>
      <trkpt lat="42.760885540" lon="-0.789108070">
        <ele>1153.24</ele>
        <time>2014-08-14T08:32:46Z</time>
      </trkpt>
      <trkpt lat="42.760809940" lon="-0.789446870">
        <ele>1153.72</ele>
        <time>2014-08-14T08:32:55Z</time>
      </trkpt>
      <trkpt lat="42.760804320" lon="-0.789517280">
        <ele>1154.20</ele>
        <time>2014-08-14T08:32:57Z</time>
      </trkpt>
      <trkpt lat="42.760763000" lon="-0.789819700">
        <ele>1155.64</ele>
        <time>2014-08-14T08:33:06Z</time>
      </trkpt>
      <trkpt lat="42.760822180" lon="-0.790028150">
        <ele>1155.64</ele>
        <time>2014-08-14T08:33:13Z</time>
      </trkpt>
      <trkpt lat="42.760983280" lon="-0.790059250">
        <ele>1157.56</ele>
        <time>2014-08-14T08:33:20Z</time>
      </trkpt>
      <trkpt lat="42.761128870" lon="-0.790040060">
        <ele>1158.05</ele>
        <time>2014-08-14T08:33:27Z</time>
      </trkpt>
      <trkpt lat="42.761311430" lon="-0.790055060">
        <ele>1158.53</ele>
        <time>2014-08-14T08:33:35Z</time>
      </trkpt>
      <trkpt lat="42.761458360" lon="-0.790032090">
        <ele>1159.01</ele>
        <time>2014-08-14T08:33:41Z</time>
      </trkpt>
      <trkpt lat="42.761713340" lon="-0.789959760">
        <ele>1160.93</ele>
        <time>2014-08-14T08:33:52Z</time>
      </trkpt>
      <trkpt lat="42.761893130" lon="-0.789898820">
        <ele>1162.37</ele>
        <time>2014-08-14T08:34:00Z</time>
      </trkpt>
      <trkpt lat="42.762029420" lon="-0.789863870">
        <ele>1162.85</ele>
        <time>2014-08-14T08:34:06Z</time>
      </trkpt>
      <trkpt lat="42.762165460" lon="-0.789755660">
        <ele>1164.29</ele>
        <time>2014-08-14T08:34:14Z</time>
      </trkpt>
      <trkpt lat="42.762350780" lon="-0.789670330">
        <ele>1166.70</ele>
        <time>2014-08-14T08:34:22Z</time>
      </trkpt>
      <trkpt lat="42.762530070" lon="-0.789520040">
        <ele>1167.18</ele>
        <time>2014-08-14T08:34:30Z</time>
      </trkpt>
      <trkpt lat="42.762651860" lon="-0.789385430">
        <ele>1167.18</ele>
        <time>2014-08-14T08:34:36Z</time>
      </trkpt>
      <trkpt lat="42.762787310" lon="-0.789273950">
        <ele>1167.66</ele>
        <time>2014-08-14T08:34:42Z</time>
      </trkpt>
      <trkpt lat="42.762806340" lon="-0.789284760">
        <ele>1167.66</ele>
        <time>2014-08-14T08:34:48Z</time>
      </trkpt>
      <trkpt lat="42.762811120" lon="-0.789312670">
        <ele>1167.66</ele>
        <time>2014-08-14T08:35:00Z</time>
      </trkpt>
      <trkpt lat="42.762866440" lon="-0.789320300">
        <ele>1167.66</ele>
        <time>2014-08-14T08:35:42Z</time>
      </trkpt>
      <trkpt lat="42.762867190" lon="-0.789316860">
        <ele>1168.14</ele>
        <time>2014-08-14T08:36:35Z</time>
      </trkpt>
      <trkpt lat="42.762946490" lon="-0.789235310">
        <ele>1169.58</ele>
        <time>2014-08-14T08:36:42Z</time>
      </trkpt>
      <trkpt lat="42.762983870" lon="-0.789343020">
        <ele>1170.54</ele>
        <time>2014-08-14T08:36:46Z</time>
      </trkpt>
      <trkpt lat="42.763143210" lon="-0.789352740">
        <ele>1170.54</ele>
        <time>2014-08-14T08:36:52Z</time>
      </trkpt>
      <trkpt lat="42.763323000" lon="-0.789307390">
        <ele>1170.06</ele>
        <time>2014-08-14T08:36:58Z</time>
      </trkpt>
      <trkpt lat="42.763359800" lon="-0.789324490">
        <ele>1171.02</ele>
        <time>2014-08-14T08:37:00Z</time>
      </trkpt>
      <trkpt lat="42.763403890" lon="-0.789391460">
        <ele>1171.98</ele>
        <time>2014-08-14T08:37:03Z</time>
      </trkpt>
      <trkpt lat="42.763425510" lon="-0.789581480">
        <ele>1172.95</ele>
        <time>2014-08-14T08:37:10Z</time>
      </trkpt>
      <trkpt lat="42.763374550" lon="-0.789728750">
        <ele>1173.43</ele>
        <time>2014-08-14T08:37:16Z</time>
      </trkpt>
      <trkpt lat="42.763324680" lon="-0.789911900">
        <ele>1173.43</ele>
        <time>2014-08-14T08:37:22Z</time>
      </trkpt>
      <trkpt lat="42.763290230" lon="-0.790231750">
        <ele>1175.35</ele>
        <time>2014-08-14T08:37:31Z</time>
      </trkpt>
      <trkpt lat="42.763348570" lon="-0.790451860">
        <ele>1175.83</ele>
        <time>2014-08-14T08:37:38Z</time>
      </trkpt>
      <trkpt lat="42.763297860" lon="-0.790673810">
        <ele>1176.79</ele>
        <time>2014-08-14T08:37:46Z</time>
      </trkpt>
      <trkpt lat="42.763326860" lon="-0.790950580">
        <ele>1177.27</ele>
        <time>2014-08-14T08:37:54Z</time>
      </trkpt>
      <trkpt lat="42.763282850" lon="-0.791137250">
        <ele>1178.71</ele>
        <time>2014-08-14T08:38:01Z</time>
      </trkpt>
      <trkpt lat="42.763158720" lon="-0.791258450">
        <ele>1179.19</ele>
        <time>2014-08-14T08:38:07Z</time>
      </trkpt>
      <trkpt lat="42.763029720" lon="-0.791486190">
        <ele>1180.16</ele>
        <time>2014-08-14T08:38:15Z</time>
      </trkpt>
      <trkpt lat="42.762992840" lon="-0.791849540">
        <ele>1180.16</ele>
        <time>2014-08-14T08:38:24Z</time>
      </trkpt>
      <trkpt lat="42.762922350" lon="-0.792070570">
        <ele>1179.67</ele>
        <time>2014-08-14T08:38:30Z</time>
      </trkpt>
      <trkpt lat="42.762791590" lon="-0.792302500">
        <ele>1179.67</ele>
        <time>2014-08-14T08:38:36Z</time>
      </trkpt>
      <trkpt lat="42.762658230" lon="-0.792590750">
        <ele>1180.64</ele>
        <time>2014-08-14T08:38:43Z</time>
      </trkpt>
      <trkpt lat="42.762622190" lon="-0.792677760">
        <ele>1180.64</ele>
        <time>2014-08-14T08:38:45Z</time>
      </trkpt>
      <trkpt lat="42.762357660" lon="-0.793040530">
        <ele>1182.56</ele>
        <time>2014-08-14T08:38:54Z</time>
      </trkpt>
      <trkpt lat="42.762335450" lon="-0.793289800">
        <ele>1181.12</ele>
        <time>2014-08-14T08:38:58Z</time>
      </trkpt>
      <trkpt lat="42.762357320" lon="-0.793491470">
        <ele>1181.60</ele>
        <time>2014-08-14T08:39:01Z</time>
      </trkpt>
      <trkpt lat="42.762381710" lon="-0.793759440">
        <ele>1180.64</ele>
        <time>2014-08-14T08:39:05Z</time>
      </trkpt>
      <trkpt lat="42.762395120" lon="-0.794125560">
        <ele>1180.16</ele>
        <time>2014-08-14T08:39:11Z</time>
      </trkpt>
      <trkpt lat="42.762447090" lon="-0.794226650">
        <ele>1179.67</ele>
        <time>2014-08-14T08:39:17Z</time>
      </trkpt>
      <trkpt lat="42.762460000" lon="-0.794244750">
        <ele>1179.19</ele>
        <time>2014-08-14T08:39:20Z</time>
      </trkpt>
      <trkpt lat="42.762586400" lon="-0.794308200">
        <ele>1178.23</ele>
        <time>2014-08-14T08:39:27Z</time>
      </trkpt>
      <trkpt lat="42.762740210" lon="-0.794288000">
        <ele>1178.71</ele>
        <time>2014-08-14T08:39:33Z</time>
      </trkpt>
      <trkpt lat="42.762919330" lon="-0.794149870">
        <ele>1177.75</ele>
        <time>2014-08-14T08:39:39Z</time>
      </trkpt>
      <trkpt lat="42.763003150" lon="-0.794147520">
        <ele>1176.31</ele>
        <time>2014-08-14T08:39:43Z</time>
      </trkpt>
      <trkpt lat="42.763039440" lon="-0.794153640">
        <ele>1177.27</ele>
        <time>2014-08-14T08:39:48Z</time>
      </trkpt>
      <trkpt lat="42.763197190" lon="-0.794109390">
        <ele>1175.83</ele>
        <time>2014-08-14T08:39:53Z</time>
      </trkpt>
      <trkpt lat="42.763252260" lon="-0.794108210">
        <ele>1174.87</ele>
        <time>2014-08-14T08:39:54Z</time>
      </trkpt>
      <trkpt lat="42.763501700" lon="-0.794038640">
        <ele>1174.39</ele>
        <time>2014-08-14T08:39:58Z</time>
      </trkpt>
      <trkpt lat="42.763786440" lon="-0.793809400">
        <ele>1173.91</ele>
        <time>2014-08-14T08:40:04Z</time>
      </trkpt>
      <trkpt lat="42.763849220" lon="-0.793728680">
        <ele>1173.43</ele>
        <time>2014-08-14T08:40:06Z</time>
      </trkpt>
      <trkpt lat="42.763942930" lon="-0.793720880">
        <ele>1173.91</ele>
        <time>2014-08-14T08:40:09Z</time>
      </trkpt>
      <trkpt lat="42.763966140" lon="-0.793850890">
        <ele>1174.87</ele>
        <time>2014-08-14T08:40:12Z</time>
      </trkpt>
      <trkpt lat="42.763962210" lon="-0.793994550">
        <ele>1173.91</ele>
        <time>2014-08-14T08:40:15Z</time>
      </trkpt>
      <trkpt lat="42.763880230" lon="-0.794396210">
        <ele>1175.35</ele>
        <time>2014-08-14T08:40:22Z</time>
      </trkpt>
      <trkpt lat="42.763859860" lon="-0.794499310">
        <ele>1174.87</ele>
        <time>2014-08-14T08:40:26Z</time>
      </trkpt>
      <trkpt lat="42.763842510" lon="-0.794591430">
        <ele>1176.79</ele>
        <time>2014-08-14T08:40:30Z</time>
      </trkpt>
      <trkpt lat="42.763740670" lon="-0.794843390">
        <ele>1178.71</ele>
        <time>2014-08-14T08:40:40Z</time>
      </trkpt>
      <trkpt lat="42.763695330" lon="-0.795017230">
        <ele>1178.23</ele>
        <time>2014-08-14T08:40:47Z</time>
      </trkpt>
      <trkpt lat="42.763701440" lon="-0.795237670">
        <ele>1178.71</ele>
        <time>2014-08-14T08:40:54Z</time>
      </trkpt>
      <trkpt lat="42.763707230" lon="-0.795471530">
        <ele>1179.19</ele>
        <time>2014-08-14T08:41:01Z</time>
      </trkpt>
      <trkpt lat="42.763736650" lon="-0.795640090">
        <ele>1178.71</ele>
        <time>2014-08-14T08:41:08Z</time>
      </trkpt>
      <trkpt lat="42.763726930" lon="-0.795659280">
        <ele>1184.00</ele>
        <time>2014-08-14T08:41:24Z</time>
      </trkpt>
      <trkpt lat="42.763726840" lon="-0.795660620">
        <ele>1178.71</ele>
        <time>2014-08-14T08:41:25Z</time>
      </trkpt>
      <trkpt lat="42.763729100" lon="-0.795666490">
        <ele>1180.16</ele>
        <time>2014-08-14T08:41:37Z</time>
      </trkpt>
      <trkpt lat="42.763726420" lon="-0.795699260">
        <ele>1178.71</ele>
        <time>2014-08-14T08:44:04Z</time>
      </trkpt>
      <trkpt lat="42.763763050" lon="-0.795850470">
        <ele>1178.23</ele>
        <time>2014-08-14T08:44:10Z</time>
      </trkpt>
      <trkpt lat="42.763768080" lon="-0.795897580">
        <ele>1178.23</ele>
        <time>2014-08-14T08:44:11Z</time>
      </trkpt>
      <trkpt lat="42.763784680" lon="-0.796384070">
        <ele>1175.35</ele>
        <time>2014-08-14T08:44:18Z</time>
      </trkpt>
      <trkpt lat="42.763766740" lon="-0.796617670">
        <ele>1174.87</ele>
        <time>2014-08-14T08:44:21Z</time>
      </trkpt>
      <trkpt lat="42.763658360" lon="-0.797144220">
        <ele>1175.35</ele>
        <time>2014-08-14T08:44:29Z</time>
      </trkpt>
      <trkpt lat="42.763606310" lon="-0.797541860">
        <ele>1174.87</ele>
        <time>2014-08-14T08:44:36Z</time>
      </trkpt>
      <trkpt lat="42.763604380" lon="-0.797608750">
        <ele>1174.39</ele>
        <time>2014-08-14T08:44:37Z</time>
      </trkpt>
      <trkpt lat="42.763606560" lon="-0.797821810">
        <ele>1173.91</ele>
        <time>2014-08-14T08:44:42Z</time>
      </trkpt>
      <trkpt lat="42.763603630" lon="-0.797824240">
        <ele>1172.95</ele>
        <time>2014-08-14T08:44:47Z</time>
      </trkpt>
      <trkpt lat="42.763617210" lon="-0.797849140">
        <ele>1173.43</ele>
        <time>2014-08-14T08:45:00Z</time>
      </trkpt>
      <trkpt lat="42.763629360" lon="-0.797870510">
        <ele>1172.95</ele>
        <time>2014-08-14T08:45:05Z</time>
      </trkpt>
      <trkpt lat="42.763608570" lon="-0.797936060">
        <ele>1170.54</ele>
        <time>2014-08-14T08:45:13Z</time>
      </trkpt>
      <trkpt lat="42.763570270" lon="-0.797965650">
        <ele>1170.06</ele>
        <time>2014-08-14T08:45:21Z</time>
      </trkpt>
      <trkpt lat="42.763534060" lon="-0.798000100">
        <ele>1169.10</ele>
        <time>2014-08-14T08:45:28Z</time>
      </trkpt>
      <trkpt lat="42.763530790" lon="-0.797990210">
        <ele>1169.58</ele>
        <time>2014-08-14T08:45:39Z</time>
      </trkpt>
      <trkpt lat="42.763501960" lon="-0.797996160">
        <ele>1168.14</ele>
        <time>2014-08-14T08:45:51Z</time>
      </trkpt>
      <trkpt lat="42.763462980" lon="-0.798043430">
        <ele>1167.66</ele>
        <time>2014-08-14T08:45:59Z</time>
      </trkpt>
      <trkpt lat="42.763441270" lon="-0.798068580">
        <ele>1167.18</ele>
        <time>2014-08-14T08:46:06Z</time>
      </trkpt>
      <trkpt lat="42.763401290" lon="-0.798138570">
        <ele>1165.74</ele>
        <time>2014-08-14T08:46:13Z</time>
      </trkpt>
      <trkpt lat="42.763362060" lon="-0.798212660">
        <ele>1163.33</ele>
        <time>2014-08-14T08:46:20Z</time>
      </trkpt>
      <trkpt lat="42.763353260" lon="-0.798233280">
        <ele>1162.85</ele>
        <time>2014-08-14T08:46:22Z</time>
      </trkpt>
      <trkpt lat="42.763317800" lon="-0.798271590">
        <ele>1161.41</ele>
        <time>2014-08-14T08:46:27Z</time>
      </trkpt>
      <trkpt lat="42.763290230" lon="-0.798314920">
        <ele>1161.41</ele>
        <time>2014-08-14T08:46:32Z</time>
      </trkpt>
      <trkpt lat="42.763246980" lon="-0.798433020">
        <ele>1159.49</ele>
        <time>2014-08-14T08:46:41Z</time>
      </trkpt>
      <trkpt lat="42.763218900" lon="-0.798435620">
        <ele>1158.53</ele>
        <time>2014-08-14T08:46:49Z</time>
      </trkpt>
      <trkpt lat="42.763209680" lon="-0.798435540">
        <ele>1158.05</ele>
        <time>2014-08-14T08:46:51Z</time>
      </trkpt>
      <trkpt lat="42.763148240" lon="-0.798431010">
        <ele>1157.56</ele>
        <time>2014-08-14T08:46:59Z</time>
      </trkpt>
      <trkpt lat="42.763123430" lon="-0.798438390">
        <ele>1156.60</ele>
        <time>2014-08-14T08:47:06Z</time>
      </trkpt>
      <trkpt lat="42.763069780" lon="-0.798444090">
        <ele>1156.12</ele>
        <time>2014-08-14T08:47:13Z</time>
      </trkpt>
      <trkpt lat="42.763044390" lon="-0.798462440">
        <ele>1154.68</ele>
        <time>2014-08-14T08:47:15Z</time>
      </trkpt>
      <trkpt lat="42.762980350" lon="-0.798498150">
        <ele>1153.72</ele>
        <time>2014-08-14T08:47:22Z</time>
      </trkpt>
      <trkpt lat="42.762963840" lon="-0.798514580">
        <ele>1153.24</ele>
        <time>2014-08-14T08:47:24Z</time>
      </trkpt>
      <trkpt lat="42.762857640" lon="-0.798541070">
        <ele>1151.80</ele>
        <time>2014-08-14T08:47:28Z</time>
      </trkpt>
      <trkpt lat="42.762797620" lon="-0.798566800">
        <ele>1151.32</ele>
        <time>2014-08-14T08:47:34Z</time>
      </trkpt>
      <trkpt lat="42.762750100" lon="-0.798602590">
        <ele>1149.39</ele>
        <time>2014-08-14T08:47:42Z</time>
      </trkpt>
      <trkpt lat="42.762710950" lon="-0.798636540">
        <ele>1148.43</ele>
        <time>2014-08-14T08:47:48Z</time>
      </trkpt>
      <trkpt lat="42.762697120" lon="-0.798646510">
        <ele>1147.47</ele>
        <time>2014-08-14T08:47:50Z</time>
      </trkpt>
      <trkpt lat="42.762691930" lon="-0.798653970">
        <ele>1148.91</ele>
        <time>2014-08-14T08:47:51Z</time>
      </trkpt>
      <trkpt lat="42.762642220" lon="-0.798707360">
        <ele>1146.99</ele>
        <time>2014-08-14T08:47:55Z</time>
      </trkpt>
      <trkpt lat="42.762496130" lon="-0.798777850">
        <ele>1146.03</ele>
        <time>2014-08-14T08:48:03Z</time>
      </trkpt>
      <trkpt lat="42.762502160" lon="-0.798781540">
        <ele>1146.03</ele>
        <time>2014-08-14T08:48:13Z</time>
      </trkpt>
      <trkpt lat="42.762504420" lon="-0.798774590">
        <ele>1146.03</ele>
        <time>2014-08-14T08:48:24Z</time>
      </trkpt>
      <trkpt lat="42.762497380" lon="-0.798768890">
        <ele>1146.03</ele>
        <time>2014-08-14T08:48:39Z</time>
      </trkpt>
      <trkpt lat="42.762477520" lon="-0.798781710">
        <ele>1145.07</ele>
        <time>2014-08-14T08:48:53Z</time>
      </trkpt>
      <trkpt lat="42.762395800" lon="-0.798803590">
        <ele>1143.14</ele>
        <time>2014-08-14T08:49:02Z</time>
      </trkpt>
      <trkpt lat="42.762360840" lon="-0.798822950">
        <ele>1142.18</ele>
        <time>2014-08-14T08:49:07Z</time>
      </trkpt>
      <trkpt lat="42.762308290" lon="-0.798856060">
        <ele>1139.78</ele>
        <time>2014-08-14T08:49:16Z</time>
      </trkpt>
      <trkpt lat="42.762289010" lon="-0.798889580">
        <ele>1139.78</ele>
        <time>2014-08-14T08:49:23Z</time>
      </trkpt>
      <trkpt lat="42.762279290" lon="-0.798902160">
        <ele>1138.82</ele>
        <time>2014-08-14T08:49:33Z</time>
      </trkpt>
      <trkpt lat="42.762254560" lon="-0.798929820">
        <ele>1138.34</ele>
        <time>2014-08-14T08:49:43Z</time>
      </trkpt>
      <trkpt lat="42.762220110" lon="-0.798982880">
        <ele>1136.42</ele>
        <time>2014-08-14T08:49:51Z</time>
      </trkpt>
      <trkpt lat="42.762153140" lon="-0.799070380">
        <ele>1133.05</ele>
        <time>2014-08-14T08:50:02Z</time>
      </trkpt>
      <trkpt lat="42.762140570" lon="-0.799149000">
        <ele>1132.57</ele>
        <time>2014-08-14T08:50:10Z</time>
      </trkpt>
      <trkpt lat="42.762114580" lon="-0.799218070">
        <ele>1131.13</ele>
        <time>2014-08-14T08:50:19Z</time>
      </trkpt>
      <trkpt lat="42.762091280" lon="-0.799278920">
        <ele>1128.73</ele>
        <time>2014-08-14T08:50:27Z</time>
      </trkpt>
      <trkpt lat="42.762074770" lon="-0.799321920">
        <ele>1126.80</ele>
        <time>2014-08-14T08:50:35Z</time>
      </trkpt>
      <trkpt lat="42.762062030" lon="-0.799353100">
        <ele>1126.32</ele>
        <time>2014-08-14T08:50:49Z</time>
      </trkpt>
      <trkpt lat="42.762078960" lon="-0.799337770">
        <ele>1126.32</ele>
        <time>2014-08-14T08:51:08Z</time>
      </trkpt>
      <trkpt lat="42.762068310" lon="-0.799349500">
        <ele>1125.84</ele>
        <time>2014-08-14T08:51:25Z</time>
      </trkpt>
      <trkpt lat="42.762033610" lon="-0.799380090">
        <ele>1124.88</ele>
        <time>2014-08-14T08:51:32Z</time>
      </trkpt>
      <trkpt lat="42.761982400" lon="-0.799415210">
        <ele>1122.00</ele>
        <time>2014-08-14T08:51:39Z</time>
      </trkpt>
      <trkpt lat="42.761929930" lon="-0.799458800">
        <ele>1120.07</ele>
        <time>2014-08-14T08:51:48Z</time>
      </trkpt>
      <trkpt lat="42.761907550" lon="-0.799451090">
        <ele>1119.59</ele>
        <time>2014-08-14T08:51:53Z</time>
      </trkpt>
      <trkpt lat="42.761835630" lon="-0.799461730">
        <ele>1119.11</ele>
        <time>2014-08-14T08:52:01Z</time>
      </trkpt>
      <trkpt lat="42.761828170" lon="-0.799461900">
        <ele>1118.63</ele>
        <time>2014-08-14T08:52:05Z</time>
      </trkpt>
      <trkpt lat="42.761762960" lon="-0.799497860">
        <ele>1117.19</ele>
        <time>2014-08-14T08:52:11Z</time>
      </trkpt>
      <trkpt lat="42.761635140" lon="-0.799534820">
        <ele>1114.79</ele>
        <time>2014-08-14T08:52:18Z</time>
      </trkpt>
      <trkpt lat="42.761605380" lon="-0.799562150">
        <ele>1113.82</ele>
        <time>2014-08-14T08:52:20Z</time>
      </trkpt>
      <trkpt lat="42.761500610" lon="-0.799625010">
        <ele>1112.38</ele>
        <time>2014-08-14T08:52:27Z</time>
      </trkpt>
      <trkpt lat="42.761406060" lon="-0.799671780">
        <ele>1110.94</ele>
        <time>2014-08-14T08:52:33Z</time>
      </trkpt>
      <trkpt lat="42.761275470" lon="-0.799829280">
        <ele>1109.50</ele>
        <time>2014-08-14T08:52:40Z</time>
      </trkpt>
      <trkpt lat="42.761255520" lon="-0.799849480">
        <ele>1108.54</ele>
        <time>2014-08-14T08:52:44Z</time>
      </trkpt>
      <trkpt lat="42.761245710" lon="-0.799861630">
        <ele>1108.54</ele>
        <time>2014-08-14T08:52:56Z</time>
      </trkpt>
      <trkpt lat="42.761257950" lon="-0.799837910">
        <ele>1108.06</ele>
        <time>2014-08-14T08:53:10Z</time>
      </trkpt>
      <trkpt lat="42.761235990" lon="-0.799868420">
        <ele>1108.54</ele>
        <time>2014-08-14T08:53:19Z</time>
      </trkpt>
      <trkpt lat="42.761145380" lon="-0.799994650">
        <ele>1107.10</ele>
        <time>2014-08-14T08:53:26Z</time>
      </trkpt>
      <trkpt lat="42.761042620" lon="-0.800103450">
        <ele>1105.17</ele>
        <time>2014-08-14T08:53:31Z</time>
      </trkpt>
      <trkpt lat="42.760886470" lon="-0.800221720">
        <ele>1103.73</ele>
        <time>2014-08-14T08:53:37Z</time>
      </trkpt>
      <trkpt lat="42.760771890" lon="-0.800416850">
        <ele>1102.77</ele>
        <time>2014-08-14T08:53:42Z</time>
      </trkpt>
      <trkpt lat="42.760762500" lon="-0.800449960">
        <ele>1101.81</ele>
        <time>2014-08-14T08:53:46Z</time>
      </trkpt>
      <trkpt lat="42.760707260" lon="-0.800481810">
        <ele>1099.89</ele>
        <time>2014-08-14T08:54:08Z</time>
      </trkpt>
      <trkpt lat="42.760701900" lon="-0.800502100">
        <ele>1103.25</ele>
        <time>2014-08-14T08:54:11Z</time>
      </trkpt>
      <trkpt lat="42.760688320" lon="-0.800529590">
        <ele>1101.33</ele>
        <time>2014-08-14T08:54:40Z</time>
      </trkpt>
      <trkpt lat="42.760666020" lon="-0.800566130">
        <ele>1100.37</ele>
        <time>2014-08-14T08:54:46Z</time>
      </trkpt>
      <trkpt lat="42.760634510" lon="-0.800620780">
        <ele>1098.44</ele>
        <time>2014-08-14T08:54:54Z</time>
      </trkpt>
      <trkpt lat="42.760547330" lon="-0.800706610">
        <ele>1097.48</ele>
        <time>2014-08-14T08:54:59Z</time>
      </trkpt>
      <trkpt lat="42.760356140" lon="-0.800839800">
        <ele>1094.12</ele>
        <time>2014-08-14T08:55:05Z</time>
      </trkpt>
      <trkpt lat="42.760301070" lon="-0.800899980">
        <ele>1093.16</ele>
        <time>2014-08-14T08:55:07Z</time>
      </trkpt>
      <trkpt lat="42.760218180" lon="-0.801021860">
        <ele>1091.71</ele>
        <time>2014-08-14T08:55:10Z</time>
      </trkpt>
      <trkpt lat="42.760189340" lon="-0.801068130">
        <ele>1091.23</ele>
        <time>2014-08-14T08:55:11Z</time>
      </trkpt>
      <trkpt lat="42.760067300" lon="-0.801278510">
        <ele>1086.91</ele>
        <time>2014-08-14T08:55:16Z</time>
      </trkpt>
      <trkpt lat="42.759965210" lon="-0.801465760">
        <ele>1084.02</ele>
        <time>2014-08-14T08:55:21Z</time>
      </trkpt>
      <trkpt lat="42.759949450" lon="-0.801500970">
        <ele>1083.54</ele>
        <time>2014-08-14T08:55:22Z</time>
      </trkpt>
      <trkpt lat="42.759878040" lon="-0.801620740">
        <ele>1080.66</ele>
        <time>2014-08-14T08:55:28Z</time>
      </trkpt>
      <trkpt lat="42.759816260" lon="-0.801766420">
        <ele>1079.22</ele>
        <time>2014-08-14T08:55:33Z</time>
      </trkpt>
      <trkpt lat="42.759743760" lon="-0.801849070">
        <ele>1077.78</ele>
        <time>2014-08-14T08:55:36Z</time>
      </trkpt>
      <trkpt lat="42.759715260" lon="-0.801878240">
        <ele>1076.81</ele>
        <time>2014-08-14T08:55:37Z</time>
      </trkpt>
      <trkpt lat="42.759661620" lon="-0.801982340">
        <ele>1074.89</ele>
        <time>2014-08-14T08:55:41Z</time>
      </trkpt>
      <trkpt lat="42.759599090" lon="-0.802090970">
        <ele>1074.41</ele>
        <time>2014-08-14T08:55:45Z</time>
      </trkpt>
      <trkpt lat="42.759513010" lon="-0.802187610">
        <ele>1072.49</ele>
        <time>2014-08-14T08:55:49Z</time>
      </trkpt>
      <trkpt lat="42.759466740" lon="-0.802284670">
        <ele>1070.57</ele>
        <time>2014-08-14T08:55:52Z</time>
      </trkpt>
      <trkpt lat="42.759392560" lon="-0.802464380">
        <ele>1068.64</ele>
        <time>2014-08-14T08:55:58Z</time>
      </trkpt>
      <trkpt lat="42.759309910" lon="-0.802667060">
        <ele>1066.24</ele>
        <time>2014-08-14T08:56:03Z</time>
      </trkpt>
      <trkpt lat="42.759292480" lon="-0.802710890">
        <ele>1066.24</ele>
        <time>2014-08-14T08:56:04Z</time>
      </trkpt>
      <trkpt lat="42.759230290" lon="-0.802845170">
        <ele>1064.80</ele>
        <time>2014-08-14T08:56:07Z</time>
      </trkpt>
      <trkpt lat="42.759120400" lon="-0.803158740">
        <ele>1062.39</ele>
        <time>2014-08-14T08:56:14Z</time>
      </trkpt>
      <trkpt lat="42.759101040" lon="-0.803248760">
        <ele>1060.95</ele>
        <time>2014-08-14T08:56:17Z</time>
      </trkpt>
      <trkpt lat="42.759120480" lon="-0.803462750">
        <ele>1057.59</ele>
        <time>2014-08-14T08:56:23Z</time>
      </trkpt>
      <trkpt lat="42.759091730" lon="-0.803742540">
        <ele>1055.18</ele>
        <time>2014-08-14T08:56:29Z</time>
      </trkpt>
      <trkpt lat="42.759089890" lon="-0.803891230">
        <ele>1053.26</ele>
        <time>2014-08-14T08:56:33Z</time>
      </trkpt>
      <trkpt lat="42.759105560" lon="-0.804047050">
        <ele>1050.86</ele>
        <time>2014-08-14T08:56:39Z</time>
      </trkpt>
      <trkpt lat="42.759124510" lon="-0.804141100">
        <ele>1049.90</ele>
        <time>2014-08-14T08:56:42Z</time>
      </trkpt>
      <trkpt lat="42.759153000" lon="-0.804500260">
        <ele>1047.97</ele>
        <time>2014-08-14T08:56:50Z</time>
      </trkpt>
      <trkpt lat="42.759110090" lon="-0.804787010">
        <ele>1045.57</ele>
        <time>2014-08-14T08:56:56Z</time>
      </trkpt>
      <trkpt lat="42.759040520" lon="-0.805056650">
        <ele>1043.17</ele>
        <time>2014-08-14T08:57:03Z</time>
      </trkpt>
      <trkpt lat="42.759029200" lon="-0.805097980">
        <ele>1043.17</ele>
        <time>2014-08-14T08:57:04Z</time>
      </trkpt>
      <trkpt lat="42.759007240" lon="-0.805361250">
        <ele>1041.73</ele>
        <time>2014-08-14T08:57:10Z</time>
      </trkpt>
      <trkpt lat="42.758973210" lon="-0.805632570">
        <ele>1041.73</ele>
        <time>2014-08-14T08:57:15Z</time>
      </trkpt>
      <trkpt lat="42.758940610" lon="-0.805777830">
        <ele>1041.73</ele>
        <time>2014-08-14T08:57:18Z</time>
      </trkpt>
      <trkpt lat="42.758886880" lon="-0.806043200">
        <ele>1041.25</ele>
        <time>2014-08-14T08:57:24Z</time>
      </trkpt>
      <trkpt lat="42.758880010" lon="-0.806070950">
        <ele>1038.84</ele>
        <time>2014-08-14T08:58:10Z</time>
      </trkpt>
      <trkpt lat="42.758879590" lon="-0.806067930">
        <ele>1042.21</ele>
        <time>2014-08-14T08:58:11Z</time>
      </trkpt>
      <trkpt lat="42.758882690" lon="-0.806075810">
        <ele>1040.76</ele>
        <time>2014-08-14T08:58:30Z</time>
      </trkpt>
      <trkpt lat="42.758867680" lon="-0.806251410">
        <ele>1041.73</ele>
        <time>2014-08-14T08:58:36Z</time>
      </trkpt>
      <trkpt lat="42.758913700" lon="-0.806481410">
        <ele>1040.28</ele>
        <time>2014-08-14T08:58:40Z</time>
      </trkpt>
      <trkpt lat="42.759045210" lon="-0.806765140">
        <ele>1035.96</ele>
        <time>2014-08-14T08:58:46Z</time>
      </trkpt>
      <trkpt lat="42.759164490" lon="-0.806981890">
        <ele>1032.59</ele>
        <time>2014-08-14T08:58:52Z</time>
      </trkpt>
      <trkpt lat="42.759182510" lon="-0.807015420">
        <ele>1032.59</ele>
        <time>2014-08-14T08:58:53Z</time>
      </trkpt>
      <trkpt lat="42.759254260" lon="-0.807152880">
        <ele>1030.19</ele>
        <time>2014-08-14T08:58:57Z</time>
      </trkpt>
      <trkpt lat="42.759253340" lon="-0.807198820">
        <ele>1030.19</ele>
        <time>2014-08-14T08:59:00Z</time>
      </trkpt>
      <trkpt lat="42.759294990" lon="-0.807309040">
        <ele>1028.75</ele>
        <time>2014-08-14T08:59:04Z</time>
      </trkpt>
      <trkpt lat="42.759312340" lon="-0.807349860">
        <ele>1028.27</ele>
        <time>2014-08-14T08:59:05Z</time>
      </trkpt>
      <trkpt lat="42.759370770" lon="-0.807530150">
        <ele>1025.86</ele>
        <time>2014-08-14T08:59:09Z</time>
      </trkpt>
      <trkpt lat="42.759433880" lon="-0.807720000">
        <ele>1023.94</ele>
        <time>2014-08-14T08:59:13Z</time>
      </trkpt>
      <trkpt lat="42.759445450" lon="-0.807760320">
        <ele>1023.46</ele>
        <time>2014-08-14T08:59:14Z</time>
      </trkpt>
      <trkpt lat="42.759424080" lon="-0.808019150">
        <ele>1020.58</ele>
        <time>2014-08-14T08:59:21Z</time>
      </trkpt>
      <trkpt lat="42.759434470" lon="-0.808201630">
        <ele>1017.69</ele>
        <time>2014-08-14T08:59:27Z</time>
      </trkpt>
      <trkpt lat="42.759400520" lon="-0.808332390">
        <ele>1015.77</ele>
        <time>2014-08-14T08:59:33Z</time>
      </trkpt>
      <trkpt lat="42.759356270" lon="-0.808427520">
        <ele>1014.33</ele>
        <time>2014-08-14T08:59:40Z</time>
      </trkpt>
      <trkpt lat="42.759337240" lon="-0.808512180">
        <ele>1012.89</ele>
        <time>2014-08-14T08:59:46Z</time>
      </trkpt>
      <trkpt lat="42.759300860" lon="-0.808615950">
        <ele>1011.44</ele>
        <time>2014-08-14T08:59:50Z</time>
      </trkpt>
      <trkpt lat="42.759251160" lon="-0.808771260">
        <ele>1009.52</ele>
        <time>2014-08-14T08:59:55Z</time>
      </trkpt>
      <trkpt lat="42.759149650" lon="-0.808907550">
        <ele>1007.12</ele>
        <time>2014-08-14T09:00:01Z</time>
      </trkpt>
      <trkpt lat="42.759135240" lon="-0.808949800">
        <ele>1007.12</ele>
        <time>2014-08-14T09:00:02Z</time>
      </trkpt>
      <trkpt lat="42.759118470" lon="-0.808996990">
        <ele>1008.08</ele>
        <time>2014-08-14T09:00:03Z</time>
      </trkpt>
      <trkpt lat="42.759061730" lon="-0.809188010">
        <ele>1006.16</ele>
        <time>2014-08-14T09:00:08Z</time>
      </trkpt>
      <trkpt lat="42.759035740" lon="-0.809237380">
        <ele>1005.68</ele>
        <time>2014-08-14T09:00:14Z</time>
      </trkpt>
      <trkpt lat="42.759016630" lon="-0.809304940">
        <ele>1005.20</ele>
        <time>2014-08-14T09:00:20Z</time>
      </trkpt>
      <trkpt lat="42.759004560" lon="-0.809325810">
        <ele>1004.23</ele>
        <time>2014-08-14T09:00:26Z</time>
      </trkpt>
      <trkpt lat="42.758981760" lon="-0.809414660">
        <ele>1003.75</ele>
        <time>2014-08-14T09:00:34Z</time>
      </trkpt>
      <trkpt lat="42.758976820" lon="-0.809511550">
        <ele>1002.79</ele>
        <time>2014-08-14T09:00:42Z</time>
      </trkpt>
      <trkpt lat="42.758968940" lon="-0.809555220">
        <ele>1001.83</ele>
        <time>2014-08-14T09:00:49Z</time>
      </trkpt>
      <trkpt lat="42.758958540" lon="-0.809603920">
        <ele>1001.35</ele>
        <time>2014-08-14T09:00:55Z</time>
      </trkpt>
      <trkpt lat="42.758960640" lon="-0.809632420">
        <ele>1000.39</ele>
        <time>2014-08-14T09:01:02Z</time>
      </trkpt>
      <trkpt lat="42.758974550" lon="-0.809734850">
        <ele>998.47</ele>
        <time>2014-08-14T09:01:08Z</time>
      </trkpt>
      <trkpt lat="42.758991320" lon="-0.809879520">
        <ele>997.51</ele>
        <time>2014-08-14T09:01:14Z</time>
      </trkpt>
      <trkpt lat="42.758925270" lon="-0.809952690">
        <ele>995.10</ele>
        <time>2014-08-14T09:01:19Z</time>
      </trkpt>
      <trkpt lat="42.758892910" lon="-0.809988820">
        <ele>995.10</ele>
        <time>2014-08-14T09:01:23Z</time>
      </trkpt>
      <trkpt lat="42.758905820" lon="-0.810054360">
        <ele>993.66</ele>
        <time>2014-08-14T09:01:31Z</time>
      </trkpt>
      <trkpt lat="42.758907920" lon="-0.810092080">
        <ele>993.18</ele>
        <time>2014-08-14T09:01:34Z</time>
      </trkpt>
      <trkpt lat="42.758914200" lon="-0.810126780">
        <ele>992.22</ele>
        <time>2014-08-14T09:01:36Z</time>
      </trkpt>
      <trkpt lat="42.758933150" lon="-0.810189400">
        <ele>991.74</ele>
        <time>2014-08-14T09:01:41Z</time>
      </trkpt>
      <trkpt lat="42.758942950" lon="-0.810244380">
        <ele>990.78</ele>
        <time>2014-08-14T09:01:44Z</time>
      </trkpt>
      <trkpt lat="42.758908250" lon="-0.810270110">
        <ele>989.81</ele>
        <time>2014-08-14T09:01:47Z</time>
      </trkpt>
      <trkpt lat="42.758898190" lon="-0.810365160">
        <ele>987.89</ele>
        <time>2014-08-14T09:01:53Z</time>
      </trkpt>
      <trkpt lat="42.758963320" lon="-0.810507320">
        <ele>985.01</ele>
        <time>2014-08-14T09:01:59Z</time>
      </trkpt>
      <trkpt lat="42.759021660" lon="-0.810599270">
        <ele>982.60</ele>
        <time>2014-08-14T09:02:05Z</time>
      </trkpt>
      <trkpt lat="42.759071950" lon="-0.810662220">
        <ele>981.16</ele>
        <time>2014-08-14T09:02:10Z</time>
      </trkpt>
      <trkpt lat="42.759025260" lon="-0.810759620">
        <ele>979.72</ele>
        <time>2014-08-14T09:02:15Z</time>
      </trkpt>
      <trkpt lat="42.758965000" lon="-0.810768250">
        <ele>978.28</ele>
        <time>2014-08-14T09:02:18Z</time>
      </trkpt>
      <trkpt lat="42.758879840" lon="-0.810762130">
        <ele>976.84</ele>
        <time>2014-08-14T09:02:23Z</time>
      </trkpt>
      <trkpt lat="42.758864580" lon="-0.810755260">
        <ele>976.36</ele>
        <time>2014-08-14T09:02:24Z</time>
      </trkpt>
      <trkpt lat="42.758850170" lon="-0.810762130">
        <ele>975.88</ele>
        <time>2014-08-14T09:02:25Z</time>
      </trkpt>
      <trkpt lat="42.758874220" lon="-0.810944100">
        <ele>973.95</ele>
        <time>2014-08-14T09:02:31Z</time>
      </trkpt>
      <trkpt lat="42.758892080" lon="-0.810974950">
        <ele>973.47</ele>
        <time>2014-08-14T09:02:32Z</time>
      </trkpt>
      <trkpt lat="42.758989220" lon="-0.811143090">
        <ele>970.11</ele>
        <time>2014-08-14T09:02:38Z</time>
      </trkpt>
      <trkpt lat="42.759001290" lon="-0.811169990">
        <ele>970.11</ele>
        <time>2014-08-14T09:02:39Z</time>
      </trkpt>
      <trkpt lat="42.758935160" lon="-0.811165380">
        <ele>968.18</ele>
        <time>2014-08-14T09:02:44Z</time>
      </trkpt>
      <trkpt lat="42.758836670" lon="-0.811032030">
        <ele>968.18</ele>
        <time>2014-08-14T09:02:49Z</time>
      </trkpt>
      <trkpt lat="42.758734660" lon="-0.810923900">
        <ele>965.78</ele>
        <time>2014-08-14T09:02:54Z</time>
      </trkpt>
      <trkpt lat="42.758727200" lon="-0.810936140">
        <ele>965.78</ele>
        <time>2014-08-14T09:02:55Z</time>
      </trkpt>
      <trkpt lat="42.758763750" lon="-0.811143090">
        <ele>962.90</ele>
        <time>2014-08-14T09:03:01Z</time>
      </trkpt>
      <trkpt lat="42.758773220" lon="-0.811178130">
        <ele>962.90</ele>
        <time>2014-08-14T09:03:02Z</time>
      </trkpt>
      <trkpt lat="42.758783360" lon="-0.811235460">
        <ele>962.42</ele>
        <time>2014-08-14T09:03:04Z</time>
      </trkpt>
      <trkpt lat="42.758760900" lon="-0.811308300">
        <ele>960.98</ele>
        <time>2014-08-14T09:03:09Z</time>
      </trkpt>
      <trkpt lat="42.758730560" lon="-0.811411230">
        <ele>959.05</ele>
        <time>2014-08-14T09:03:15Z</time>
      </trkpt>
      <trkpt lat="42.758718320" lon="-0.811389680">
        <ele>958.57</ele>
        <time>2014-08-14T09:03:16Z</time>
      </trkpt>
      <trkpt lat="42.758659810" lon="-0.811349280">
        <ele>956.17</ele>
        <time>2014-08-14T09:03:20Z</time>
      </trkpt>
      <trkpt lat="42.758659060" lon="-0.811410050">
        <ele>956.17</ele>
        <time>2014-08-14T09:03:22Z</time>
      </trkpt>
      <trkpt lat="42.758712950" lon="-0.811677180">
        <ele>953.77</ele>
        <time>2014-08-14T09:03:28Z</time>
      </trkpt>
      <trkpt lat="42.758768440" lon="-0.811800230">
        <ele>951.36</ele>
        <time>2014-08-14T09:03:34Z</time>
      </trkpt>
      <trkpt lat="42.758784280" lon="-0.811827810">
        <ele>949.92</ele>
        <time>2014-08-14T09:03:39Z</time>
      </trkpt>
      <trkpt lat="42.758808170" lon="-0.811810960">
        <ele>949.44</ele>
        <time>2014-08-14T09:03:47Z</time>
      </trkpt>
      <trkpt lat="42.758849410" lon="-0.811847420">
        <ele>948.00</ele>
        <time>2014-08-14T09:03:54Z</time>
      </trkpt>
      <trkpt lat="42.758876150" lon="-0.811889500">
        <ele>947.52</ele>
        <time>2014-08-14T09:04:01Z</time>
      </trkpt>
      <trkpt lat="42.758869440" lon="-0.811916070">
        <ele>947.04</ele>
        <time>2014-08-14T09:04:05Z</time>
      </trkpt>
      <trkpt lat="42.758837170" lon="-0.811991340">
        <ele>945.11</ele>
        <time>2014-08-14T09:04:11Z</time>
      </trkpt>
      <trkpt lat="42.758822000" lon="-0.811948000">
        <ele>944.63</ele>
        <time>2014-08-14T09:04:15Z</time>
      </trkpt>
      <trkpt lat="42.758801130" lon="-0.811923030">
        <ele>943.19</ele>
        <time>2014-08-14T09:04:19Z</time>
      </trkpt>
      <trkpt lat="42.758795680" lon="-0.811927470">
        <ele>943.67</ele>
        <time>2014-08-14T09:04:20Z</time>
      </trkpt>
      <trkpt lat="42.758799290" lon="-0.811972480">
        <ele>943.19</ele>
        <time>2014-08-14T09:04:29Z</time>
      </trkpt>
      <trkpt lat="42.758793760" lon="-0.811981780">
        <ele>942.71</ele>
        <time>2014-08-14T09:04:30Z</time>
      </trkpt>
      <trkpt lat="42.758800460" lon="-0.812157300">
        <ele>940.31</ele>
        <time>2014-08-14T09:04:37Z</time>
      </trkpt>
      <trkpt lat="42.758807420" lon="-0.812331560">
        <ele>938.38</ele>
        <time>2014-08-14T09:04:43Z</time>
      </trkpt>
      <trkpt lat="42.758807420" lon="-0.812361400">
        <ele>937.90</ele>
        <time>2014-08-14T09:04:44Z</time>
      </trkpt>
      <trkpt lat="42.758786050" lon="-0.812383690">
        <ele>936.94</ele>
        <time>2014-08-14T09:04:48Z</time>
      </trkpt>
      <trkpt lat="42.758736590" lon="-0.812284790">
        <ele>935.98</ele>
        <time>2014-08-14T09:04:53Z</time>
      </trkpt>
      <trkpt lat="42.758712950" lon="-0.812269450">
        <ele>934.54</ele>
        <time>2014-08-14T09:04:55Z</time>
      </trkpt>
      <trkpt lat="42.758701720" lon="-0.812287300">
        <ele>934.06</ele>
        <time>2014-08-14T09:05:00Z</time>
      </trkpt>
      <trkpt lat="42.758695270" lon="-0.812301220">
        <ele>934.54</ele>
        <time>2014-08-14T09:05:04Z</time>
      </trkpt>
      <trkpt lat="42.758701470" lon="-0.812355200">
        <ele>933.10</ele>
        <time>2014-08-14T09:05:07Z</time>
      </trkpt>
      <trkpt lat="42.758727540" lon="-0.812538090">
        <ele>930.21</ele>
        <time>2014-08-14T09:05:15Z</time>
      </trkpt>
      <trkpt lat="42.758726530" lon="-0.812597270">
        <ele>930.21</ele>
        <time>2014-08-14T09:05:17Z</time>
      </trkpt>
      <trkpt lat="42.758757630" lon="-0.812726600">
        <ele>927.81</ele>
        <time>2014-08-14T09:05:23Z</time>
      </trkpt>
      <trkpt lat="42.758772210" lon="-0.812836650">
        <ele>925.89</ele>
        <time>2014-08-14T09:05:28Z</time>
      </trkpt>
      <trkpt lat="42.758745230" lon="-0.812861800">
        <ele>924.45</ele>
        <time>2014-08-14T09:05:31Z</time>
      </trkpt>
      <trkpt lat="42.758708680" lon="-0.812923990">
        <ele>923.00</ele>
        <time>2014-08-14T09:05:38Z</time>
      </trkpt>
      <trkpt lat="42.758732480" lon="-0.813018460">
        <ele>923.00</ele>
        <time>2014-08-14T09:05:45Z</time>
      </trkpt>
      <trkpt lat="42.758718570" lon="-0.813073440">
        <ele>921.56</ele>
        <time>2014-08-14T09:05:52Z</time>
      </trkpt>
      <trkpt lat="42.758679010" lon="-0.813174950">
        <ele>919.16</ele>
        <time>2014-08-14T09:05:58Z</time>
      </trkpt>
      <trkpt lat="42.758691660" lon="-0.813199090">
        <ele>919.16</ele>
        <time>2014-08-14T09:05:59Z</time>
      </trkpt>
      <trkpt lat="42.758715300" lon="-0.813254910">
        <ele>918.20</ele>
        <time>2014-08-14T09:06:01Z</time>
      </trkpt>
      <trkpt lat="42.758698710" lon="-0.813319200">
        <ele>916.27</ele>
        <time>2014-08-14T09:06:05Z</time>
      </trkpt>
      <trkpt lat="42.758681100" lon="-0.813342840">
        <ele>915.79</ele>
        <time>2014-08-14T09:06:07Z</time>
      </trkpt>
      <trkpt lat="42.758657800" lon="-0.813431180">
        <ele>914.35</ele>
        <time>2014-08-14T09:06:14Z</time>
      </trkpt>
      <trkpt lat="42.758652190" lon="-0.813456240">
        <ele>914.83</ele>
        <time>2014-08-14T09:06:25Z</time>
      </trkpt>
      <trkpt lat="42.758644980" lon="-0.813539310">
        <ele>911.95</ele>
        <time>2014-08-14T09:06:32Z</time>
      </trkpt>
      <trkpt lat="42.758663330" lon="-0.813571910">
        <ele>910.99</ele>
        <time>2014-08-14T09:06:39Z</time>
      </trkpt>
      <trkpt lat="42.758703060" lon="-0.813649110">
        <ele>910.51</ele>
        <time>2014-08-14T09:06:43Z</time>
      </trkpt>
      <trkpt lat="42.758704990" lon="-0.813648690">
        <ele>910.03</ele>
        <time>2014-08-14T09:08:24Z</time>
      </trkpt>
      <trkpt lat="42.758659390" lon="-0.813637960">
        <ele>909.06</ele>
        <time>2014-08-14T09:08:30Z</time>
      </trkpt>
      <trkpt lat="42.758591420" lon="-0.813620030">
        <ele>909.06</ele>
        <time>2014-08-14T09:08:40Z</time>
      </trkpt>
      <trkpt lat="42.758561410" lon="-0.813636790">
        <ele>910.51</ele>
        <time>2014-08-14T09:08:48Z</time>
      </trkpt>
      <trkpt lat="42.758522180" lon="-0.813698060">
        <ele>911.95</ele>
        <time>2014-08-14T09:08:54Z</time>
      </trkpt>
      <trkpt lat="42.758509360" lon="-0.813826470">
        <ele>912.91</ele>
        <time>2014-08-14T09:09:04Z</time>
      </trkpt>
      <trkpt lat="42.758542720" lon="-0.813890840">
        <ele>912.91</ele>
        <time>2014-08-14T09:09:13Z</time>
      </trkpt>
      <trkpt lat="42.758576670" lon="-0.813990590">
        <ele>911.95</ele>
        <time>2014-08-14T09:09:22Z</time>
      </trkpt>
      <trkpt lat="42.758610530" lon="-0.814095110">
        <ele>912.91</ele>
        <time>2014-08-14T09:09:31Z</time>
      </trkpt>
      <trkpt lat="42.758642970" lon="-0.814156300">
        <ele>912.91</ele>
        <time>2014-08-14T09:09:39Z</time>
      </trkpt>
      <trkpt lat="42.758665260" lon="-0.814367520">
        <ele>913.87</ele>
        <time>2014-08-14T09:09:48Z</time>
      </trkpt>
      <trkpt lat="42.758717310" lon="-0.814582440">
        <ele>911.95</ele>
        <time>2014-08-14T09:09:56Z</time>
      </trkpt>
      <trkpt lat="42.758702980" lon="-0.814849150">
        <ele>913.87</ele>
        <time>2014-08-14T09:10:03Z</time>
      </trkpt>
      <trkpt lat="42.758693010" lon="-0.814960630">
        <ele>913.87</ele>
        <time>2014-08-14T09:10:09Z</time>
      </trkpt>
      <trkpt lat="42.758711280" lon="-0.815069680">
        <ele>915.31</ele>
        <time>2014-08-14T09:10:21Z</time>
      </trkpt>
      <trkpt lat="42.758711030" lon="-0.815074790">
        <ele>914.35</ele>
        <time>2014-08-14T09:10:29Z</time>
      </trkpt>
      <trkpt lat="42.758631900" lon="-0.815158610">
        <ele>914.35</ele>
        <time>2014-08-14T09:10:40Z</time>
      </trkpt>
      <trkpt lat="42.758644220" lon="-0.815163050">
        <ele>913.87</ele>
        <time>2014-08-14T09:10:42Z</time>
      </trkpt>
      <trkpt lat="42.758542800" lon="-0.815344180">
        <ele>914.35</ele>
        <time>2014-08-14T09:10:50Z</time>
      </trkpt>
      <trkpt lat="42.758683030" lon="-0.815209820">
        <ele>913.87</ele>
        <time>2014-08-14T09:11:00Z</time>
      </trkpt>
      <trkpt lat="42.758739940" lon="-0.815178890">
        <ele>914.83</ele>
        <time>2014-08-14T09:11:04Z</time>
      </trkpt>
      <trkpt lat="42.758685880" lon="-0.815281070">
        <ele>915.79</ele>
        <time>2014-08-14T09:11:08Z</time>
      </trkpt>
      <trkpt lat="42.758680680" lon="-0.815406290">
        <ele>913.87</ele>
        <time>2014-08-14T09:11:11Z</time>
      </trkpt>
      <trkpt lat="42.758649170" lon="-0.815572250">
        <ele>912.91</ele>
        <time>2014-08-14T09:11:15Z</time>
      </trkpt>
      <trkpt lat="42.758665680" lon="-0.815669480">
        <ele>910.51</ele>
        <time>2014-08-14T09:11:19Z</time>
      </trkpt>
      <trkpt lat="42.758639030" lon="-0.815831670">
        <ele>907.14</ele>
        <time>2014-08-14T09:11:24Z</time>
      </trkpt>
      <trkpt lat="42.758645980" lon="-0.815960590">
        <ele>904.26</ele>
        <time>2014-08-14T09:11:29Z</time>
      </trkpt>
      <trkpt lat="42.758672550" lon="-0.816002330">
        <ele>903.78</ele>
        <time>2014-08-14T09:11:34Z</time>
      </trkpt>
      <trkpt lat="42.758704150" lon="-0.816020180">
        <ele>901.85</ele>
        <time>2014-08-14T09:11:43Z</time>
      </trkpt>
      <trkpt lat="42.758731650" lon="-0.816064360">
        <ele>900.41</ele>
        <time>2014-08-14T09:11:50Z</time>
      </trkpt>
      <trkpt lat="42.758719070" lon="-0.816123530">
        <ele>899.93</ele>
        <time>2014-08-14T09:11:58Z</time>
      </trkpt>
      <trkpt lat="42.758741030" lon="-0.816139290">
        <ele>899.45</ele>
        <time>2014-08-14T09:12:07Z</time>
      </trkpt>
      <trkpt lat="42.758739860" lon="-0.816154460">
        <ele>898.49</ele>
        <time>2014-08-14T09:12:18Z</time>
      </trkpt>
      <trkpt lat="42.758747400" lon="-0.816172730">
        <ele>898.97</ele>
        <time>2014-08-14T09:12:25Z</time>
      </trkpt>
      <trkpt lat="42.758724350" lon="-0.816221010">
        <ele>897.05</ele>
        <time>2014-08-14T09:12:33Z</time>
      </trkpt>
      <trkpt lat="42.758750510" lon="-0.816219500">
        <ele>896.57</ele>
        <time>2014-08-14T09:12:41Z</time>
      </trkpt>
      <trkpt lat="42.758797360" lon="-0.816226290">
        <ele>894.64</ele>
        <time>2014-08-14T09:12:46Z</time>
      </trkpt>
      <trkpt lat="42.758791330" lon="-0.816294770">
        <ele>893.68</ele>
        <time>2014-08-14T09:12:54Z</time>
      </trkpt>
      <trkpt lat="42.758794430" lon="-0.816328720">
        <ele>892.72</ele>
        <time>2014-08-14T09:13:05Z</time>
      </trkpt>
      <trkpt lat="42.758803060" lon="-0.816330230">
        <ele>892.72</ele>
        <time>2014-08-14T09:13:29Z</time>
      </trkpt>
      <trkpt lat="42.758792670" lon="-0.816360240">
        <ele>891.28</ele>
        <time>2014-08-14T09:13:32Z</time>
      </trkpt>
      <trkpt lat="42.758834910" lon="-0.816331070">
        <ele>891.28</ele>
        <time>2014-08-14T09:13:36Z</time>
      </trkpt>
      <trkpt lat="42.758874730" lon="-0.816373560">
        <ele>890.80</ele>
        <time>2014-08-14T09:13:43Z</time>
      </trkpt>
      <trkpt lat="42.758869110" lon="-0.816384880">
        <ele>891.28</ele>
        <time>2014-08-14T09:13:44Z</time>
      </trkpt>
      <trkpt lat="42.758832650" lon="-0.816534410">
        <ele>890.80</ele>
        <time>2014-08-14T09:13:54Z</time>
      </trkpt>
      <trkpt lat="42.758831810" lon="-0.816553100">
        <ele>890.80</ele>
        <time>2014-08-14T09:13:55Z</time>
      </trkpt>
      <trkpt lat="42.758821920" lon="-0.816587300">
        <ele>891.28</ele>
        <time>2014-08-14T09:14:01Z</time>
      </trkpt>
      <trkpt lat="42.758779510" lon="-0.816771120">
        <ele>889.84</ele>
        <time>2014-08-14T09:14:08Z</time>
      </trkpt>
      <trkpt lat="42.758757040" lon="-0.816975550">
        <ele>889.36</ele>
        <time>2014-08-14T09:14:14Z</time>
      </trkpt>
      <trkpt lat="42.758760230" lon="-0.817021740">
        <ele>888.88</ele>
        <time>2014-08-14T09:14:21Z</time>
      </trkpt>
      <trkpt lat="42.758789400" lon="-0.817102370">
        <ele>890.32</ele>
        <time>2014-08-14T09:14:30Z</time>
      </trkpt>
      <trkpt lat="42.758824350" lon="-0.817193480">
        <ele>891.76</ele>
        <time>2014-08-14T09:14:39Z</time>
      </trkpt>
      <trkpt lat="42.758827540" lon="-0.817243860">
        <ele>891.76</ele>
        <time>2014-08-14T09:14:44Z</time>
      </trkpt>
      <trkpt lat="42.758843130" lon="-0.817306890">
        <ele>892.24</ele>
        <time>2014-08-14T09:14:52Z</time>
      </trkpt>
      <trkpt lat="42.758843380" lon="-0.817312510">
        <ele>891.76</ele>
        <time>2014-08-14T09:14:53Z</time>
      </trkpt>
      <trkpt lat="42.758836500" lon="-0.817418030">
        <ele>893.20</ele>
        <time>2014-08-14T09:14:58Z</time>
      </trkpt>
      <trkpt lat="42.758860810" lon="-0.817719530">
        <ele>895.12</ele>
        <time>2014-08-14T09:15:07Z</time>
      </trkpt>
      <trkpt lat="42.758865000" lon="-0.817968140">
        <ele>894.16</ele>
        <time>2014-08-14T09:15:12Z</time>
      </trkpt>
      <trkpt lat="42.758853940" lon="-0.818303330">
        <ele>891.76</ele>
        <time>2014-08-14T09:15:19Z</time>
      </trkpt>
      <trkpt lat="42.758865090" lon="-0.818620500">
        <ele>889.84</ele>
        <time>2014-08-14T09:15:26Z</time>
      </trkpt>
      <trkpt lat="42.758851420" lon="-0.818777830">
        <ele>888.40</ele>
        <time>2014-08-14T09:15:30Z</time>
      </trkpt>
      <trkpt lat="42.758864580" lon="-0.818939430">
        <ele>887.91</ele>
        <time>2014-08-14T09:15:35Z</time>
      </trkpt>
      <trkpt lat="42.758782440" lon="-0.819166330">
        <ele>885.99</ele>
        <time>2014-08-14T09:15:42Z</time>
      </trkpt>
      <trkpt lat="42.758769030" lon="-0.819222990">
        <ele>884.55</ele>
        <time>2014-08-14T09:15:43Z</time>
      </trkpt>
      <trkpt lat="42.758752430" lon="-0.819324830">
        <ele>884.07</ele>
        <time>2014-08-14T09:15:45Z</time>
      </trkpt>
      <trkpt lat="42.758679260" lon="-0.819580310">
        <ele>882.63</ele>
        <time>2014-08-14T09:15:49Z</time>
      </trkpt>
      <trkpt lat="42.758634000" lon="-0.819717780">
        <ele>881.67</ele>
        <time>2014-08-14T09:15:51Z</time>
      </trkpt>
      <trkpt lat="42.758548420" lon="-0.819929670">
        <ele>881.19</ele>
        <time>2014-08-14T09:15:56Z</time>
      </trkpt>
      <trkpt lat="42.758539030" lon="-0.820102250">
        <ele>879.74</ele>
        <time>2014-08-14T09:15:59Z</time>
      </trkpt>
      <trkpt lat="42.758489410" lon="-0.820312970">
        <ele>881.19</ele>
        <time>2014-08-14T09:16:04Z</time>
      </trkpt>
      <trkpt lat="42.758376250" lon="-0.820596950">
        <ele>879.74</ele>
        <time>2014-08-14T09:16:11Z</time>
      </trkpt>
      <trkpt lat="42.758234350" lon="-0.820838100">
        <ele>879.26</ele>
        <time>2014-08-14T09:16:17Z</time>
      </trkpt>
      <trkpt lat="42.758219760" lon="-0.820937760">
        <ele>878.78</ele>
        <time>2014-08-14T09:16:19Z</time>
      </trkpt>
      <trkpt lat="42.758138790" lon="-0.821317630">
        <ele>876.86</ele>
        <time>2014-08-14T09:16:28Z</time>
      </trkpt>
      <trkpt lat="42.758137700" lon="-0.821324500">
        <ele>877.34</ele>
        <time>2014-08-14T09:16:39Z</time>
      </trkpt>
      <trkpt lat="42.758127480" lon="-0.821335730">
        <ele>871.09</ele>
        <time>2014-08-14T09:16:46Z</time>
      </trkpt>
      <trkpt lat="42.758124550" lon="-0.821343530">
        <ele>871.09</ele>
        <time>2014-08-14T09:16:47Z</time>
      </trkpt>
      <trkpt lat="42.758122030" lon="-0.821353000">
        <ele>881.67</ele>
        <time>2014-08-14T09:16:48Z</time>
      </trkpt>
      <trkpt lat="42.758120860" lon="-0.821354930">
        <ele>876.86</ele>
        <time>2014-08-14T09:16:49Z</time>
      </trkpt>
      <trkpt lat="42.758108620" lon="-0.821426180">
        <ele>878.30</ele>
        <time>2014-08-14T09:17:13Z</time>
      </trkpt>
      <trkpt lat="42.758098560" lon="-0.821515780">
        <ele>877.34</ele>
        <time>2014-08-14T09:17:15Z</time>
      </trkpt>
      <trkpt lat="42.758062350" lon="-0.821670170">
        <ele>876.86</ele>
        <time>2014-08-14T09:17:18Z</time>
      </trkpt>
      <trkpt lat="42.758025720" lon="-0.821776200">
        <ele>875.90</ele>
        <time>2014-08-14T09:17:20Z</time>
      </trkpt>
      <trkpt lat="42.757971910" lon="-0.821951470">
        <ele>875.42</ele>
        <time>2014-08-14T09:17:23Z</time>
      </trkpt>
      <trkpt lat="42.757898990" lon="-0.822251210">
        <ele>875.42</ele>
        <time>2014-08-14T09:17:28Z</time>
      </trkpt>
      <trkpt lat="42.757860680" lon="-0.822519510">
        <ele>875.42</ele>
        <time>2014-08-14T09:17:32Z</time>
      </trkpt>
      <trkpt lat="42.757678040" lon="-0.823075570">
        <ele>873.98</ele>
        <time>2014-08-14T09:17:39Z</time>
      </trkpt>
      <trkpt lat="42.757568150" lon="-0.823328360">
        <ele>873.98</ele>
        <time>2014-08-14T09:17:42Z</time>
      </trkpt>
      <trkpt lat="42.757300520" lon="-0.824110230">
        <ele>871.09</ele>
        <time>2014-08-14T09:17:51Z</time>
      </trkpt>
      <trkpt lat="42.757204380" lon="-0.824363610">
        <ele>870.13</ele>
        <time>2014-08-14T09:17:54Z</time>
      </trkpt>
      <trkpt lat="42.757075300" lon="-0.824795280">
        <ele>868.69</ele>
        <time>2014-08-14T09:17:59Z</time>
      </trkpt>
      <trkpt lat="42.757029620" lon="-0.825188980">
        <ele>870.13</ele>
        <time>2014-08-14T09:18:05Z</time>
      </trkpt>
      <trkpt lat="42.756993240" lon="-0.825459040">
        <ele>870.61</ele>
        <time>2014-08-14T09:18:12Z</time>
      </trkpt>
      <trkpt lat="42.756898270" lon="-0.825796160">
        <ele>872.53</ele>
        <time>2014-08-14T09:18:21Z</time>
      </trkpt>
      <trkpt lat="42.756813870" lon="-0.826101270">
        <ele>874.46</ele>
        <time>2014-08-14T09:18:30Z</time>
      </trkpt>
      <trkpt lat="42.756796270" lon="-0.826320030">
        <ele>876.38</ele>
        <time>2014-08-14T09:18:37Z</time>
      </trkpt>
      <trkpt lat="42.756765250" lon="-0.826613820">
        <ele>878.30</ele>
        <time>2014-08-14T09:18:46Z</time>
      </trkpt>
      <trkpt lat="42.756755700" lon="-0.826986230">
        <ele>879.26</ele>
        <time>2014-08-14T09:18:57Z</time>
      </trkpt>
      <trkpt lat="42.756767350" lon="-0.827264930">
        <ele>879.74</ele>
        <time>2014-08-14T09:19:05Z</time>
      </trkpt>
      <trkpt lat="42.756857790" lon="-0.827583610">
        <ele>880.22</ele>
        <time>2014-08-14T09:19:14Z</time>
      </trkpt>
      <trkpt lat="42.756981420" lon="-0.827795000">
        <ele>879.74</ele>
        <time>2014-08-14T09:19:21Z</time>
      </trkpt>
      <trkpt lat="42.757039680" lon="-0.827887700">
        <ele>881.67</ele>
        <time>2014-08-14T09:19:24Z</time>
      </trkpt>
      <trkpt lat="42.757095420" lon="-0.827983170">
        <ele>879.74</ele>
        <time>2014-08-14T09:19:27Z</time>
      </trkpt>
      <trkpt lat="42.757217540" lon="-0.828056260">
        <ele>878.78</ele>
        <time>2014-08-14T09:19:33Z</time>
      </trkpt>
      <trkpt lat="42.757097340" lon="-0.828243510">
        <ele>875.90</ele>
        <time>2014-08-14T09:25:27Z</time>
      </trkpt>
      <trkpt lat="42.757086780" lon="-0.828246700">
        <ele>875.90</ele>
        <time>2014-08-14T09:25:37Z</time>
      </trkpt>
      <trkpt lat="42.757032720" lon="-0.828271680">
        <ele>875.90</ele>
        <time>2014-08-14T09:25:43Z</time>
      </trkpt>
      <trkpt lat="42.756902550" lon="-0.828377620">
        <ele>873.98</ele>
        <time>2014-08-14T09:25:50Z</time>
      </trkpt>
      <trkpt lat="42.756765920" lon="-0.828465130">
        <ele>873.01</ele>
        <time>2014-08-14T09:25:58Z</time>
      </trkpt>
      <trkpt lat="42.756662910" lon="-0.828567890">
        <ele>872.05</ele>
        <time>2014-08-14T09:26:08Z</time>
      </trkpt>
      <trkpt lat="42.756579090" lon="-0.828617010">
        <ele>872.05</ele>
        <time>2014-08-14T09:26:14Z</time>
      </trkpt>
      <trkpt lat="42.756376250" lon="-0.828710720">
        <ele>872.05</ele>
        <time>2014-08-14T09:26:23Z</time>
      </trkpt>
      <trkpt lat="42.756318410" lon="-0.828707620">
        <ele>871.57</ele>
        <time>2014-08-14T09:26:25Z</time>
      </trkpt>
      <trkpt lat="42.756085140" lon="-0.828764450">
        <ele>870.61</ele>
        <time>2014-08-14T09:26:33Z</time>
      </trkpt>
      <trkpt lat="42.756034350" lon="-0.828751710">
        <ele>870.61</ele>
        <time>2014-08-14T09:26:35Z</time>
      </trkpt>
      <trkpt lat="42.755845510" lon="-0.828802840">
        <ele>870.61</ele>
        <time>2014-08-14T09:26:44Z</time>
      </trkpt>
      <trkpt lat="42.755811140" lon="-0.828868630">
        <ele>870.13</ele>
        <time>2014-08-14T09:26:50Z</time>
      </trkpt>
      <trkpt lat="42.755808040" lon="-0.828884730">
        <ele>869.65</ele>
        <time>2014-08-14T09:26:53Z</time>
      </trkpt>
      <trkpt lat="42.755737380" lon="-0.828884810">
        <ele>870.13</ele>
        <time>2014-08-14T09:26:57Z</time>
      </trkpt>
      <trkpt lat="42.755571500" lon="-0.828913730">
        <ele>869.65</ele>
        <time>2014-08-14T09:27:05Z</time>
      </trkpt>
      <trkpt lat="42.755525570" lon="-0.828865280">
        <ele>870.13</ele>
        <time>2014-08-14T09:27:31Z</time>
      </trkpt>
      <trkpt lat="42.755524650" lon="-0.828908870">
        <ele>872.53</ele>
        <time>2014-08-14T09:30:52Z</time>
      </trkpt>
      <trkpt lat="42.755507720" lon="-0.828940970">
        <ele>872.53</ele>
        <time>2014-08-14T09:31:14Z</time>
      </trkpt>
      <trkpt lat="42.755499080" lon="-0.829008190">
        <ele>872.05</ele>
        <time>2014-08-14T09:31:37Z</time>
      </trkpt>
      <trkpt lat="42.755527750" lon="-0.829017830">
        <ele>872.53</ele>
        <time>2014-08-14T09:31:53Z</time>
      </trkpt>
      <trkpt lat="42.755923370" lon="-0.828881960">
        <ele>883.11</ele>
        <time>2014-08-14T10:45:50Z</time>
      </trkpt>
      <trkpt lat="42.756098720" lon="-0.828801500">
        <ele>883.11</ele>
        <time>2014-08-14T10:46:30Z</time>
      </trkpt>
      <trkpt lat="42.756173490" lon="-0.828807610">
        <ele>883.59</ele>
        <time>2014-08-14T10:46:36Z</time>
      </trkpt>
      <trkpt lat="42.756210370" lon="-0.828786830">
        <ele>883.11</ele>
        <time>2014-08-14T10:46:45Z</time>
      </trkpt>
      <trkpt lat="42.756236350" lon="-0.828835530">
        <ele>884.07</ele>
        <time>2014-08-14T10:46:56Z</time>
      </trkpt>
      <trkpt lat="42.756312960" lon="-0.828796470">
        <ele>884.07</ele>
        <time>2014-08-14T10:47:07Z</time>
      </trkpt>
      <trkpt lat="42.756384380" lon="-0.828763270">
        <ele>884.07</ele>
        <time>2014-08-14T10:47:12Z</time>
      </trkpt>
      <trkpt lat="42.756549590" lon="-0.828682220">
        <ele>885.03</ele>
        <time>2014-08-14T10:47:19Z</time>
      </trkpt>
      <trkpt lat="42.756659140" lon="-0.828636200">
        <ele>885.51</ele>
        <time>2014-08-14T10:47:28Z</time>
      </trkpt>
      <trkpt lat="42.756729290" lon="-0.828524470">
        <ele>885.51</ele>
        <time>2014-08-14T10:47:35Z</time>
      </trkpt>
      <trkpt lat="42.756888210" lon="-0.828406460">
        <ele>886.47</ele>
        <time>2014-08-14T10:47:44Z</time>
      </trkpt>
      <trkpt lat="42.757006650" lon="-0.828331940">
        <ele>887.43</ele>
        <time>2014-08-14T10:47:52Z</time>
      </trkpt>
      <trkpt lat="42.757053170" lon="-0.828278300">
        <ele>888.88</ele>
        <time>2014-08-14T10:47:56Z</time>
      </trkpt>
      <trkpt lat="42.757093570" lon="-0.828255920">
        <ele>888.88</ele>
        <time>2014-08-14T10:47:59Z</time>
      </trkpt>
      <trkpt lat="42.757131540" lon="-0.828249300">
        <ele>888.88</ele>
        <time>2014-08-14T10:48:02Z</time>
      </trkpt>
      <trkpt lat="42.757171270" lon="-0.828219370">
        <ele>889.36</ele>
        <time>2014-08-14T10:48:05Z</time>
      </trkpt>
      <trkpt lat="42.757228100" lon="-0.828117450">
        <ele>890.80</ele>
        <time>2014-08-14T10:48:13Z</time>
      </trkpt>
      <trkpt lat="42.757242770" lon="-0.828110830">
        <ele>891.28</ele>
        <time>2014-08-14T10:48:14Z</time>
      </trkpt>
      <trkpt lat="42.757254590" lon="-0.828111500">
        <ele>890.80</ele>
        <time>2014-08-14T10:48:15Z</time>
      </trkpt>
      <trkpt lat="42.757266660" lon="-0.828117950">
        <ele>891.28</ele>
        <time>2014-08-14T10:48:41Z</time>
      </trkpt>
      <trkpt lat="42.757287610" lon="-0.828102450">
        <ele>890.32</ele>
        <time>2014-08-14T10:49:15Z</time>
      </trkpt>
      <trkpt lat="42.757398250" lon="-0.828139240">
        <ele>891.28</ele>
        <time>2014-08-14T10:49:21Z</time>
      </trkpt>
      <trkpt lat="42.757503780" lon="-0.828152490">
        <ele>891.28</ele>
        <time>2014-08-14T10:49:27Z</time>
      </trkpt>
      <trkpt lat="42.757705620" lon="-0.828187100">
        <ele>892.24</ele>
        <time>2014-08-14T10:49:35Z</time>
      </trkpt>
      <trkpt lat="42.757935450" lon="-0.828347780">
        <ele>892.24</ele>
        <time>2014-08-14T10:49:45Z</time>
      </trkpt>
      <trkpt lat="42.758183640" lon="-0.828472930">
        <ele>890.80</ele>
        <time>2014-08-14T10:49:53Z</time>
      </trkpt>
      <trkpt lat="42.758440120" lon="-0.828584070">
        <ele>891.28</ele>
        <time>2014-08-14T10:50:01Z</time>
      </trkpt>
      <trkpt lat="42.758598040" lon="-0.828602930">
        <ele>890.80</ele>
        <time>2014-08-14T10:50:06Z</time>
      </trkpt>
      <trkpt lat="42.758805410" lon="-0.828550880">
        <ele>891.28</ele>
        <time>2014-08-14T10:50:14Z</time>
      </trkpt>
      <trkpt lat="42.759069940" lon="-0.828504860">
        <ele>891.76</ele>
        <time>2014-08-14T10:50:25Z</time>
      </trkpt>
      <trkpt lat="42.759235150" lon="-0.828558760">
        <ele>891.76</ele>
        <time>2014-08-14T10:50:32Z</time>
      </trkpt>
      <trkpt lat="42.759491380" lon="-0.828677530">
        <ele>891.76</ele>
        <time>2014-08-14T10:50:42Z</time>
      </trkpt>
      <trkpt lat="42.759712330" lon="-0.828830410">
        <ele>891.76</ele>
        <time>2014-08-14T10:50:50Z</time>
      </trkpt>
      <trkpt lat="42.759962860" lon="-0.829111880">
        <ele>891.28</ele>
        <time>2014-08-14T10:51:00Z</time>
      </trkpt>
      <trkpt lat="42.760008290" lon="-0.829160830">
        <ele>889.84</ele>
        <time>2014-08-14T10:51:23Z</time>
      </trkpt>
      <trkpt lat="42.760009640" lon="-0.829159400">
        <ele>889.84</ele>
        <time>2014-08-14T10:52:27Z</time>
      </trkpt>
      <trkpt lat="42.760190270" lon="-0.829130150">
        <ele>889.84</ele>
        <time>2014-08-14T10:52:35Z</time>
      </trkpt>
      <trkpt lat="42.760588910" lon="-0.829145910">
        <ele>889.36</ele>
        <time>2014-08-14T10:52:45Z</time>
      </trkpt>
      <trkpt lat="42.761022420" lon="-0.829132660">
        <ele>888.40</ele>
        <time>2014-08-14T10:52:54Z</time>
      </trkpt>
      <trkpt lat="42.761512760" lon="-0.829144060">
        <ele>885.99</ele>
        <time>2014-08-14T10:53:04Z</time>
      </trkpt>
      <trkpt lat="42.761614850" lon="-0.829152780">
        <ele>885.99</ele>
        <time>2014-08-14T10:53:06Z</time>
      </trkpt>
      <trkpt lat="42.761963120" lon="-0.829066280">
        <ele>885.03</ele>
        <time>2014-08-14T10:53:13Z</time>
      </trkpt>
      <trkpt lat="42.762204690" lon="-0.828909790">
        <ele>884.55</ele>
        <time>2014-08-14T10:53:18Z</time>
      </trkpt>
      <trkpt lat="42.762506190" lon="-0.828937280">
        <ele>884.07</ele>
        <time>2014-08-14T10:53:23Z</time>
      </trkpt>
      <trkpt lat="42.762765270" lon="-0.829099140">
        <ele>883.11</ele>
        <time>2014-08-14T10:53:28Z</time>
      </trkpt>
      <trkpt lat="42.763175230" lon="-0.829187400">
        <ele>881.19</ele>
        <time>2014-08-14T10:53:36Z</time>
      </trkpt>
      <trkpt lat="42.763435400" lon="-0.829215650">
        <ele>880.71</ele>
        <time>2014-08-14T10:53:41Z</time>
      </trkpt>
      <trkpt lat="42.763534810" lon="-0.829253700">
        <ele>880.71</ele>
        <time>2014-08-14T10:53:43Z</time>
      </trkpt>
      <trkpt lat="42.763876040" lon="-0.829423940">
        <ele>880.22</ele>
        <time>2014-08-14T10:53:50Z</time>
      </trkpt>
      <trkpt lat="42.764217020" lon="-0.829412200">
        <ele>878.30</ele>
        <time>2014-08-14T10:53:56Z</time>
      </trkpt>
      <trkpt lat="42.764344920" lon="-0.829332570">
        <ele>878.78</ele>
        <time>2014-08-14T10:53:58Z</time>
      </trkpt>
      <trkpt lat="42.764535440" lon="-0.829197040">
        <ele>879.74</ele>
        <time>2014-08-14T10:54:01Z</time>
      </trkpt>
      <trkpt lat="42.764937270" lon="-0.829174910">
        <ele>878.30</ele>
        <time>2014-08-14T10:54:06Z</time>
      </trkpt>
      <trkpt lat="42.765018160" lon="-0.829213720">
        <ele>878.30</ele>
        <time>2014-08-14T10:54:07Z</time>
      </trkpt>
      <trkpt lat="42.765565750" lon="-0.829431140">
        <ele>876.86</ele>
        <time>2014-08-14T10:54:14Z</time>
      </trkpt>
      <trkpt lat="42.766062290" lon="-0.829426700">
        <ele>877.34</ele>
        <time>2014-08-14T10:54:21Z</time>
      </trkpt>
      <trkpt lat="42.766434870" lon="-0.829301390">
        <ele>876.38</ele>
        <time>2014-08-14T10:54:27Z</time>
      </trkpt>
      <trkpt lat="42.766921600" lon="-0.829071230">
        <ele>876.86</ele>
        <time>2014-08-14T10:54:35Z</time>
      </trkpt>
      <trkpt lat="42.767323100" lon="-0.828936530">
        <ele>876.38</ele>
        <time>2014-08-14T10:54:42Z</time>
      </trkpt>
      <trkpt lat="42.767809160" lon="-0.828791610">
        <ele>875.90</ele>
        <time>2014-08-14T10:54:51Z</time>
      </trkpt>
      <trkpt lat="42.768229520" lon="-0.828559590">
        <ele>875.42</ele>
        <time>2014-08-14T10:54:59Z</time>
      </trkpt>
      <trkpt lat="42.768281320" lon="-0.828533610">
        <ele>875.42</ele>
        <time>2014-08-14T10:55:00Z</time>
      </trkpt>
      <trkpt lat="42.768480550" lon="-0.828407550">
        <ele>875.42</ele>
        <time>2014-08-14T10:55:04Z</time>
      </trkpt>
      <trkpt lat="42.768761680" lon="-0.828333950">
        <ele>875.42</ele>
        <time>2014-08-14T10:55:09Z</time>
      </trkpt>
      <trkpt lat="42.769387480" lon="-0.828375950">
        <ele>876.38</ele>
        <time>2014-08-14T10:55:20Z</time>
      </trkpt>
      <trkpt lat="42.769815370" lon="-0.828438310">
        <ele>876.38</ele>
        <time>2014-08-14T10:55:27Z</time>
      </trkpt>
      <trkpt lat="42.769933560" lon="-0.828440320">
        <ele>875.90</ele>
        <time>2014-08-14T10:55:29Z</time>
      </trkpt>
      <trkpt lat="42.770111920" lon="-0.828459770">
        <ele>875.42</ele>
        <time>2014-08-14T10:55:32Z</time>
      </trkpt>
      <trkpt lat="42.770486090" lon="-0.828373850">
        <ele>877.34</ele>
        <time>2014-08-14T10:55:39Z</time>
      </trkpt>
      <trkpt lat="42.770751210" lon="-0.828309810">
        <ele>878.30</ele>
        <time>2014-08-14T10:55:46Z</time>
      </trkpt>
      <trkpt lat="42.770996890" lon="-0.828228680">
        <ele>879.74</ele>
        <time>2014-08-14T10:55:54Z</time>
      </trkpt>
      <trkpt lat="42.771230990" lon="-0.828105970">
        <ele>879.74</ele>
        <time>2014-08-14T10:56:02Z</time>
      </trkpt>
      <trkpt lat="42.771512790" lon="-0.827945450">
        <ele>880.22</ele>
        <time>2014-08-14T10:56:10Z</time>
      </trkpt>
      <trkpt lat="42.771737340" lon="-0.827833470">
        <ele>879.26</ele>
        <time>2014-08-14T10:56:18Z</time>
      </trkpt>
      <trkpt lat="42.771920240" lon="-0.827650410">
        <ele>878.78</ele>
        <time>2014-08-14T10:56:25Z</time>
      </trkpt>
      <trkpt lat="42.771995670" lon="-0.827535830">
        <ele>878.30</ele>
        <time>2014-08-14T10:56:28Z</time>
      </trkpt>
      <trkpt lat="42.772224330" lon="-0.827365680">
        <ele>878.30</ele>
        <time>2014-08-14T10:56:35Z</time>
      </trkpt>
      <trkpt lat="42.772479560" lon="-0.827301640">
        <ele>878.78</ele>
        <time>2014-08-14T10:56:42Z</time>
      </trkpt>
      <trkpt lat="42.772788350" lon="-0.827317230">
        <ele>881.67</ele>
        <time>2014-08-14T10:56:50Z</time>
      </trkpt>
      <trkpt lat="42.773043830" lon="-0.827357630">
        <ele>883.11</ele>
        <time>2014-08-14T10:56:59Z</time>
      </trkpt>
      <trkpt lat="42.773235190" lon="-0.827409430">
        <ele>884.55</ele>
        <time>2014-08-14T10:57:06Z</time>
      </trkpt>
      <trkpt lat="42.773480860" lon="-0.827411190">
        <ele>886.47</ele>
        <time>2014-08-14T10:57:15Z</time>
      </trkpt>
      <trkpt lat="42.773693430" lon="-0.827409680">
        <ele>886.95</ele>
        <time>2014-08-14T10:57:22Z</time>
      </trkpt>
      <trkpt lat="42.773898700" lon="-0.827407590">
        <ele>887.91</ele>
        <time>2014-08-14T10:57:30Z</time>
      </trkpt>
      <trkpt lat="42.774150660" lon="-0.827370030">
        <ele>889.84</ele>
        <time>2014-08-14T10:57:39Z</time>
      </trkpt>
      <trkpt lat="42.774417120" lon="-0.827359720">
        <ele>890.32</ele>
        <time>2014-08-14T10:57:47Z</time>
      </trkpt>
      <trkpt lat="42.774698000" lon="-0.827358720">
        <ele>891.28</ele>
        <time>2014-08-14T10:57:57Z</time>
      </trkpt>
      <trkpt lat="42.774926070" lon="-0.827326530">
        <ele>891.76</ele>
        <time>2014-08-14T10:58:05Z</time>
      </trkpt>
      <trkpt lat="42.775145010" lon="-0.827216650">
        <ele>893.20</ele>
        <time>2014-08-14T10:58:13Z</time>
      </trkpt>
      <trkpt lat="42.775421110" lon="-0.827048920">
        <ele>893.20</ele>
        <time>2014-08-14T10:58:21Z</time>
      </trkpt>
      <trkpt lat="42.775668290" lon="-0.826884550">
        <ele>892.72</ele>
        <time>2014-08-14T10:58:28Z</time>
      </trkpt>
      <trkpt lat="42.776070280" lon="-0.826614240">
        <ele>892.72</ele>
        <time>2014-08-14T10:58:38Z</time>
      </trkpt>
      <trkpt lat="42.776430540" lon="-0.826397650">
        <ele>893.68</ele>
        <time>2014-08-14T10:58:47Z</time>
      </trkpt>
      <trkpt lat="42.776510500" lon="-0.826374260">
        <ele>893.20</ele>
        <time>2014-08-14T10:58:49Z</time>
      </trkpt>
      <trkpt lat="42.776807640" lon="-0.826274770">
        <ele>894.16</ele>
        <time>2014-08-14T10:58:56Z</time>
      </trkpt>
      <trkpt lat="42.777261020" lon="-0.825978810">
        <ele>893.68</ele>
        <time>2014-08-14T10:59:07Z</time>
      </trkpt>
      <trkpt lat="42.777554470" lon="-0.825742690">
        <ele>892.72</ele>
        <time>2014-08-14T10:59:15Z</time>
      </trkpt>
      <trkpt lat="42.777584390" lon="-0.825703040">
        <ele>893.20</ele>
        <time>2014-08-14T10:59:16Z</time>
      </trkpt>
      <trkpt lat="42.777835930" lon="-0.825256450">
        <ele>894.64</ele>
        <time>2014-08-14T10:59:27Z</time>
      </trkpt>
      <trkpt lat="42.777946150" lon="-0.825092670">
        <ele>896.57</ele>
        <time>2014-08-14T10:59:35Z</time>
      </trkpt>
      <trkpt lat="42.777964170" lon="-0.825074990">
        <ele>897.05</ele>
        <time>2014-08-14T10:59:37Z</time>
      </trkpt>
      <trkpt lat="42.778056380" lon="-0.825035420">
        <ele>897.53</ele>
        <time>2014-08-14T10:59:41Z</time>
      </trkpt>
      <trkpt lat="42.778376650" lon="-0.824899300">
        <ele>900.41</ele>
        <time>2014-08-14T10:59:54Z</time>
      </trkpt>
      <trkpt lat="42.778549400" lon="-0.824820930">
        <ele>901.85</ele>
        <time>2014-08-14T11:00:02Z</time>
      </trkpt>
      <trkpt lat="42.778697340" lon="-0.824766780">
        <ele>903.30</ele>
        <time>2014-08-14T11:00:09Z</time>
      </trkpt>
      <trkpt lat="42.778883670" lon="-0.824815400">
        <ele>903.30</ele>
        <time>2014-08-14T11:00:15Z</time>
      </trkpt>
      <trkpt lat="42.779218110" lon="-0.825015310">
        <ele>903.78</ele>
        <time>2014-08-14T11:00:26Z</time>
      </trkpt>
      <trkpt lat="42.779477110" lon="-0.825210690">
        <ele>904.74</ele>
        <time>2014-08-14T11:00:34Z</time>
      </trkpt>
      <trkpt lat="42.779885560" lon="-0.825458120">
        <ele>904.74</ele>
        <time>2014-08-14T11:00:46Z</time>
      </trkpt>
      <trkpt lat="42.780290740" lon="-0.825542700">
        <ele>904.26</ele>
        <time>2014-08-14T11:00:54Z</time>
      </trkpt>
      <trkpt lat="42.780846710" lon="-0.825560800">
        <ele>904.26</ele>
        <time>2014-08-14T11:01:04Z</time>
      </trkpt>
      <trkpt lat="42.781348370" lon="-0.825452760">
        <ele>902.82</ele>
        <time>2014-08-14T11:01:14Z</time>
      </trkpt>
      <trkpt lat="42.781788170" lon="-0.825427950">
        <ele>903.30</ele>
        <time>2014-08-14T11:01:23Z</time>
      </trkpt>
      <trkpt lat="42.782113220" lon="-0.825399700">
        <ele>904.74</ele>
        <time>2014-08-14T11:01:31Z</time>
      </trkpt>
      <trkpt lat="42.782478080" lon="-0.825410600">
        <ele>906.18</ele>
        <time>2014-08-14T11:01:41Z</time>
      </trkpt>
      <trkpt lat="42.782801710" lon="-0.825470440">
        <ele>908.10</ele>
        <time>2014-08-14T11:01:49Z</time>
      </trkpt>
      <trkpt lat="42.782843360" lon="-0.825483600">
        <ele>908.10</ele>
        <time>2014-08-14T11:01:50Z</time>
      </trkpt>
      <trkpt lat="42.783209990" lon="-0.825661300">
        <ele>910.03</ele>
        <time>2014-08-14T11:02:01Z</time>
      </trkpt>
      <trkpt lat="42.783492960" lon="-0.825777560">
        <ele>911.95</ele>
        <time>2014-08-14T11:02:10Z</time>
      </trkpt>
      <trkpt lat="42.783797730" lon="-0.825858360">
        <ele>913.39</ele>
        <time>2014-08-14T11:02:20Z</time>
      </trkpt>
      <trkpt lat="42.783848440" lon="-0.825890960">
        <ele>915.31</ele>
        <time>2014-08-14T11:02:22Z</time>
      </trkpt>
      <trkpt lat="42.783872830" lon="-0.825909820">
        <ele>913.87</ele>
        <time>2014-08-14T11:02:23Z</time>
      </trkpt>
      <trkpt lat="42.784179100" lon="-0.826040410">
        <ele>915.79</ele>
        <time>2014-08-14T11:02:34Z</time>
      </trkpt>
      <trkpt lat="42.784441370" lon="-0.826153320">
        <ele>916.75</ele>
        <time>2014-08-14T11:02:44Z</time>
      </trkpt>
      <trkpt lat="42.784674140" lon="-0.826177040">
        <ele>917.72</ele>
        <time>2014-08-14T11:02:52Z</time>
      </trkpt>
      <trkpt lat="42.785006310" lon="-0.826144940">
        <ele>919.16</ele>
        <time>2014-08-14T11:03:02Z</time>
      </trkpt>
      <trkpt lat="42.785213850" lon="-0.826108730">
        <ele>920.60</ele>
        <time>2014-08-14T11:03:09Z</time>
      </trkpt>
      <trkpt lat="42.785401350" lon="-0.826069580">
        <ele>921.56</ele>
        <time>2014-08-14T11:03:17Z</time>
      </trkpt>
      <trkpt lat="42.785562620" lon="-0.825970590">
        <ele>922.04</ele>
        <time>2014-08-14T11:03:25Z</time>
      </trkpt>
      <trkpt lat="42.785715840" lon="-0.825862800">
        <ele>922.52</ele>
        <time>2014-08-14T11:03:33Z</time>
      </trkpt>
      <trkpt lat="42.785900660" lon="-0.825787950">
        <ele>923.48</ele>
        <time>2014-08-14T11:03:42Z</time>
      </trkpt>
      <trkpt lat="42.785979200" lon="-0.825782670">
        <ele>924.93</ele>
        <time>2014-08-14T11:03:50Z</time>
      </trkpt>
      <trkpt lat="42.786095210" lon="-0.825759200">
        <ele>924.45</ele>
        <time>2014-08-14T11:03:58Z</time>
      </trkpt>
      <trkpt lat="42.786307600" lon="-0.825754840">
        <ele>924.93</ele>
        <time>2014-08-14T11:04:06Z</time>
      </trkpt>
      <trkpt lat="42.786328980" lon="-0.825757360">
        <ele>926.85</ele>
        <time>2014-08-14T11:04:25Z</time>
      </trkpt>
      <trkpt lat="42.786350520" lon="-0.825759370">
        <ele>924.45</ele>
        <time>2014-08-14T11:04:27Z</time>
      </trkpt>
      <trkpt lat="42.786363510" lon="-0.825759700">
        <ele>921.56</ele>
        <time>2014-08-14T11:04:28Z</time>
      </trkpt>
      <trkpt lat="42.786378180" lon="-0.825762130">
        <ele>921.08</ele>
        <time>2014-08-14T11:04:29Z</time>
      </trkpt>
      <trkpt lat="42.786393850" lon="-0.825767330">
        <ele>926.85</ele>
        <time>2014-08-14T11:04:30Z</time>
      </trkpt>
      <trkpt lat="42.786425120" lon="-0.825782170">
        <ele>924.93</ele>
        <time>2014-08-14T11:04:32Z</time>
      </trkpt>
      <trkpt lat="42.786500470" lon="-0.825805300">
        <ele>925.41</ele>
        <time>2014-08-14T11:04:41Z</time>
      </trkpt>
      <trkpt lat="42.786524860" lon="-0.825782500">
        <ele>925.41</ele>
        <time>2014-08-14T11:04:53Z</time>
      </trkpt>
      <trkpt lat="42.786450100" lon="-0.825746630">
        <ele>926.37</ele>
        <time>2014-08-14T11:05:05Z</time>
      </trkpt>
      <trkpt lat="42.786404750" lon="-0.825718550">
        <ele>926.37</ele>
        <time>2014-08-14T11:05:09Z</time>
      </trkpt>
      <trkpt lat="42.786480520" lon="-0.825663810">
        <ele>926.85</ele>
        <time>2014-08-14T11:05:16Z</time>
      </trkpt>
      <trkpt lat="42.786580690" lon="-0.825701110">
        <ele>927.33</ele>
        <time>2014-08-14T11:05:23Z</time>
      </trkpt>
      <trkpt lat="42.786603910" lon="-0.825707990">
        <ele>927.81</ele>
        <time>2014-08-14T11:05:24Z</time>
      </trkpt>
      <trkpt lat="42.786747150" lon="-0.825725250">
        <ele>929.25</ele>
        <time>2014-08-14T11:05:30Z</time>
      </trkpt>
      <trkpt lat="42.786991400" lon="-0.825673450">
        <ele>929.25</ele>
        <time>2014-08-14T11:05:39Z</time>
      </trkpt>
      <trkpt lat="42.787062650" lon="-0.825665570">
        <ele>929.25</ele>
        <time>2014-08-14T11:05:47Z</time>
      </trkpt>
      <trkpt lat="42.787070780" lon="-0.825605060">
        <ele>930.21</ele>
        <time>2014-08-14T11:06:06Z</time>
      </trkpt>
      <trkpt lat="42.787159540" lon="-0.825608410">
        <ele>931.17</ele>
        <time>2014-08-14T11:06:23Z</time>
      </trkpt>
      <trkpt lat="42.787297000" lon="-0.825651910">
        <ele>931.17</ele>
        <time>2014-08-14T11:06:42Z</time>
      </trkpt>
      <trkpt lat="42.787302700" lon="-0.825705640">
        <ele>931.17</ele>
        <time>2014-08-14T11:06:56Z</time>
      </trkpt>
      <trkpt lat="42.787324920" lon="-0.825665660">
        <ele>931.17</ele>
        <time>2014-08-14T11:07:04Z</time>
      </trkpt>
      <trkpt lat="42.787450310" lon="-0.825756020">
        <ele>931.17</ele>
        <time>2014-08-14T11:07:13Z</time>
      </trkpt>
      <trkpt lat="42.787556090" lon="-0.825955500">
        <ele>931.17</ele>
        <time>2014-08-14T11:07:19Z</time>
      </trkpt>
      <trkpt lat="42.787745270" lon="-0.826241830">
        <ele>930.21</ele>
        <time>2014-08-14T11:07:27Z</time>
      </trkpt>
      <trkpt lat="42.787799160" lon="-0.826318780">
        <ele>931.17</ele>
        <time>2014-08-14T11:07:29Z</time>
      </trkpt>
      <trkpt lat="42.788122710" lon="-0.826666960">
        <ele>930.69</ele>
        <time>2014-08-14T11:07:38Z</time>
      </trkpt>
      <trkpt lat="42.788502490" lon="-0.827126620">
        <ele>931.65</ele>
        <time>2014-08-14T11:07:49Z</time>
      </trkpt>
      <trkpt lat="42.788536860" lon="-0.827165350">
        <ele>931.17</ele>
        <time>2014-08-14T11:07:50Z</time>
      </trkpt>
      <trkpt lat="42.788696450" lon="-0.827268610">
        <ele>931.65</ele>
        <time>2014-08-14T11:07:54Z</time>
      </trkpt>
      <trkpt lat="42.789091070" lon="-0.827299880">
        <ele>930.21</ele>
        <time>2014-08-14T11:08:02Z</time>
      </trkpt>
      <trkpt lat="42.789509320" lon="-0.827461820">
        <ele>928.77</ele>
        <time>2014-08-14T11:08:09Z</time>
      </trkpt>
      <trkpt lat="42.789980470" lon="-0.827559050">
        <ele>929.25</ele>
        <time>2014-08-14T11:08:17Z</time>
      </trkpt>
      <trkpt lat="42.790331000" lon="-0.827591990">
        <ele>930.21</ele>
        <time>2014-08-14T11:08:24Z</time>
      </trkpt>
      <trkpt lat="42.790473080" lon="-0.827577990">
        <ele>931.17</ele>
        <time>2014-08-14T11:08:27Z</time>
      </trkpt>
      <trkpt lat="42.790741800" lon="-0.827431980">
        <ele>930.69</ele>
        <time>2014-08-14T11:08:34Z</time>
      </trkpt>
      <trkpt lat="42.790779850" lon="-0.827404070">
        <ele>930.21</ele>
        <time>2014-08-14T11:08:35Z</time>
      </trkpt>
      <trkpt lat="42.790989740" lon="-0.827398200">
        <ele>928.77</ele>
        <time>2014-08-14T11:08:40Z</time>
      </trkpt>
      <trkpt lat="42.791049000" lon="-0.827426780">
        <ele>929.25</ele>
        <time>2014-08-14T11:08:41Z</time>
      </trkpt>
      <trkpt lat="42.791546040" lon="-0.827721820">
        <ele>929.25</ele>
        <time>2014-08-14T11:08:50Z</time>
      </trkpt>
      <trkpt lat="42.791945780" lon="-0.828061210">
        <ele>928.77</ele>
        <time>2014-08-14T11:08:59Z</time>
      </trkpt>
      <trkpt lat="42.792188100" lon="-0.828329930">
        <ele>928.29</ele>
        <time>2014-08-14T11:09:07Z</time>
      </trkpt>
      <trkpt lat="42.792495380" lon="-0.828540060">
        <ele>927.33</ele>
        <time>2014-08-14T11:09:15Z</time>
      </trkpt>
      <trkpt lat="42.792840710" lon="-0.828750030">
        <ele>927.33</ele>
        <time>2014-08-14T11:09:23Z</time>
      </trkpt>
      <trkpt lat="42.793187810" lon="-0.828934010">
        <ele>927.33</ele>
        <time>2014-08-14T11:09:31Z</time>
      </trkpt>
      <trkpt lat="42.793647300" lon="-0.829143390">
        <ele>927.33</ele>
        <time>2014-08-14T11:09:41Z</time>
      </trkpt>
      <trkpt lat="42.793871600" lon="-0.829266440">
        <ele>929.25</ele>
        <time>2014-08-14T11:09:47Z</time>
      </trkpt>
      <trkpt lat="42.794153900" lon="-0.829421510">
        <ele>930.21</ele>
        <time>2014-08-14T11:09:56Z</time>
      </trkpt>
      <trkpt lat="42.794329760" lon="-0.829537680">
        <ele>929.25</ele>
        <time>2014-08-14T11:10:02Z</time>
      </trkpt>
      <trkpt lat="42.794583560" lon="-0.829722000">
        <ele>930.21</ele>
        <time>2014-08-14T11:10:09Z</time>
      </trkpt>
      <trkpt lat="42.794830830" lon="-0.829898350">
        <ele>930.21</ele>
        <time>2014-08-14T11:10:16Z</time>
      </trkpt>
      <trkpt lat="42.795220590" lon="-0.830164980">
        <ele>931.17</ele>
        <time>2014-08-14T11:10:26Z</time>
      </trkpt>
      <trkpt lat="42.795544880" lon="-0.830400260">
        <ele>931.17</ele>
        <time>2014-08-14T11:10:35Z</time>
      </trkpt>
      <trkpt lat="42.795862720" lon="-0.830644680">
        <ele>933.10</ele>
        <time>2014-08-14T11:10:44Z</time>
      </trkpt>
      <trkpt lat="42.796059190" lon="-0.830815000">
        <ele>934.06</ele>
        <time>2014-08-14T11:10:51Z</time>
      </trkpt>
      <trkpt lat="42.796318360" lon="-0.831005600">
        <ele>935.02</ele>
        <time>2014-08-14T11:10:59Z</time>
      </trkpt>
      <trkpt lat="42.796501760" lon="-0.831164440">
        <ele>935.50</ele>
        <time>2014-08-14T11:11:06Z</time>
      </trkpt>
      <trkpt lat="42.796667970" lon="-0.831295450">
        <ele>935.98</ele>
        <time>2014-08-14T11:11:12Z</time>
      </trkpt>
      <trkpt lat="42.796880790" lon="-0.831439280">
        <ele>936.94</ele>
        <time>2014-08-14T11:11:18Z</time>
      </trkpt>
      <trkpt lat="42.797036360" lon="-0.831548330">
        <ele>937.42</ele>
        <time>2014-08-14T11:11:23Z</time>
      </trkpt>
      <trkpt lat="42.797134930" lon="-0.831615890">
        <ele>938.86</ele>
        <time>2014-08-14T11:11:27Z</time>
      </trkpt>
      <trkpt lat="42.797349920" lon="-0.831711110">
        <ele>938.86</ele>
        <time>2014-08-14T11:11:34Z</time>
      </trkpt>
      <trkpt lat="42.797546820" lon="-0.831820660">
        <ele>939.83</ele>
        <time>2014-08-14T11:11:43Z</time>
      </trkpt>
      <trkpt lat="42.797774890" lon="-0.831896680">
        <ele>941.75</ele>
        <time>2014-08-14T11:11:52Z</time>
      </trkpt>
      <trkpt lat="42.797952920" lon="-0.831914790">
        <ele>942.71</ele>
        <time>2014-08-14T11:12:00Z</time>
      </trkpt>
      <trkpt lat="42.798153750" lon="-0.831909590">
        <ele>944.63</ele>
        <time>2014-08-14T11:12:08Z</time>
      </trkpt>
      <trkpt lat="42.798242510" lon="-0.831900450">
        <ele>945.59</ele>
        <time>2014-08-14T11:12:12Z</time>
      </trkpt>
      <trkpt lat="42.798262460" lon="-0.831896260">
        <ele>944.15</ele>
        <time>2014-08-14T11:12:13Z</time>
      </trkpt>
      <trkpt lat="42.798280990" lon="-0.831890310">
        <ele>946.07</ele>
        <time>2014-08-14T11:12:14Z</time>
      </trkpt>
      <trkpt lat="42.798298340" lon="-0.831884110">
        <ele>942.71</ele>
        <time>2014-08-14T11:12:15Z</time>
      </trkpt>
      <trkpt lat="42.798315100" lon="-0.831879080">
        <ele>948.48</ele>
        <time>2014-08-14T11:12:16Z</time>
      </trkpt>
      <trkpt lat="42.798331360" lon="-0.831873880">
        <ele>945.59</ele>
        <time>2014-08-14T11:12:17Z</time>
      </trkpt>
      <trkpt lat="42.798380480" lon="-0.831858960">
        <ele>943.19</ele>
        <time>2014-08-14T11:12:20Z</time>
      </trkpt>
      <trkpt lat="42.798389870" lon="-0.831856530">
        <ele>947.52</ele>
        <time>2014-08-14T11:12:21Z</time>
      </trkpt>
      <trkpt lat="42.798415180" lon="-0.831852930">
        <ele>942.23</ele>
        <time>2014-08-14T11:12:22Z</time>
      </trkpt>
      <trkpt lat="42.798476620" lon="-0.831864160">
        <ele>949.44</ele>
        <time>2014-08-14T11:12:23Z</time>
      </trkpt>
      <trkpt lat="42.798523310" lon="-0.831868940">
        <ele>946.07</ele>
        <time>2014-08-14T11:12:24Z</time>
      </trkpt>
      <trkpt lat="42.798729840" lon="-0.831844210">
        <ele>947.52</ele>
        <time>2014-08-14T11:12:31Z</time>
      </trkpt>
      <trkpt lat="42.798956570" lon="-0.831814710">
        <ele>948.48</ele>
        <time>2014-08-14T11:12:40Z</time>
      </trkpt>
      <trkpt lat="42.799240290" lon="-0.831745220">
        <ele>949.92</ele>
        <time>2014-08-14T11:12:50Z</time>
      </trkpt>
      <trkpt lat="42.799456880" lon="-0.831646060">
        <ele>950.88</ele>
        <time>2014-08-14T11:12:59Z</time>
      </trkpt>
      <trkpt lat="42.799673050" lon="-0.831543720">
        <ele>952.32</ele>
        <time>2014-08-14T11:13:09Z</time>
      </trkpt>
      <trkpt lat="42.799842530" lon="-0.831542290">
        <ele>952.32</ele>
        <time>2014-08-14T11:13:16Z</time>
      </trkpt>
      <trkpt lat="42.800000110" lon="-0.831597030">
        <ele>952.80</ele>
        <time>2014-08-14T11:13:25Z</time>
      </trkpt>
      <trkpt lat="42.800062730" lon="-0.831605070">
        <ele>952.80</ele>
        <time>2014-08-14T11:13:34Z</time>
      </trkpt>
      <trkpt lat="42.800074380" lon="-0.831632230">
        <ele>952.32</ele>
        <time>2014-08-14T11:13:46Z</time>
      </trkpt>
      <trkpt lat="42.800119140" lon="-0.831618990">
        <ele>952.32</ele>
        <time>2014-08-14T11:13:53Z</time>
      </trkpt>
      <trkpt lat="42.800167170" lon="-0.831537180">
        <ele>953.77</ele>
        <time>2014-08-14T11:14:02Z</time>
      </trkpt>
      <trkpt lat="42.800294650" lon="-0.831571710">
        <ele>953.77</ele>
        <time>2014-08-14T11:14:07Z</time>
      </trkpt>
      <trkpt lat="42.800489700" lon="-0.831615050">
        <ele>954.25</ele>
        <time>2014-08-14T11:14:14Z</time>
      </trkpt>
      <trkpt lat="42.800511750" lon="-0.831634410">
        <ele>953.77</ele>
        <time>2014-08-14T11:14:15Z</time>
      </trkpt>
      <trkpt lat="42.800546870" lon="-0.831651430">
        <ele>952.32</ele>
        <time>2014-08-14T11:14:17Z</time>
      </trkpt>
      <trkpt lat="42.800564130" lon="-0.831655620">
        <ele>957.61</ele>
        <time>2014-08-14T11:14:18Z</time>
      </trkpt>
      <trkpt lat="42.800580640" lon="-0.831659890">
        <ele>954.25</ele>
        <time>2014-08-14T11:14:19Z</time>
      </trkpt>
      <trkpt lat="42.800734200" lon="-0.831721420">
        <ele>955.69</ele>
        <time>2014-08-14T11:14:25Z</time>
      </trkpt>
      <trkpt lat="42.801000240" lon="-0.831877240">
        <ele>957.13</ele>
        <time>2014-08-14T11:14:34Z</time>
      </trkpt>
      <trkpt lat="42.801253130" lon="-0.831983690">
        <ele>956.17</ele>
        <time>2014-08-14T11:14:42Z</time>
      </trkpt>
      <trkpt lat="42.801429730" lon="-0.832162970">
        <ele>957.61</ele>
        <time>2014-08-14T11:14:49Z</time>
      </trkpt>
      <trkpt lat="42.801700970" lon="-0.832430440">
        <ele>958.57</ele>
        <time>2014-08-14T11:14:57Z</time>
      </trkpt>
      <trkpt lat="42.801961140" lon="-0.832701340">
        <ele>959.53</ele>
        <time>2014-08-14T11:15:06Z</time>
      </trkpt>
      <trkpt lat="42.802137160" lon="-0.832901590">
        <ele>957.61</ele>
        <time>2014-08-14T11:15:13Z</time>
      </trkpt>
      <trkpt lat="42.802308990" lon="-0.833078860">
        <ele>959.05</ele>
        <time>2014-08-14T11:15:21Z</time>
      </trkpt>
      <trkpt lat="42.802342600" lon="-0.833101830">
        <ele>960.01</ele>
        <time>2014-08-14T11:15:22Z</time>
      </trkpt>
      <trkpt lat="42.802401700" lon="-0.833130750">
        <ele>959.53</ele>
        <time>2014-08-14T11:15:24Z</time>
      </trkpt>
      <trkpt lat="42.802655420" lon="-0.832996550">
        <ele>959.53</ele>
        <time>2014-08-14T11:15:31Z</time>
      </trkpt>
      <trkpt lat="42.802853730" lon="-0.832805200">
        <ele>958.57</ele>
        <time>2014-08-14T11:15:37Z</time>
      </trkpt>
      <trkpt lat="42.803242150" lon="-0.832391550">
        <ele>957.61</ele>
        <time>2014-08-14T11:15:49Z</time>
      </trkpt>
      <trkpt lat="42.803352370" lon="-0.832357770">
        <ele>956.65</ele>
        <time>2014-08-14T11:15:53Z</time>
      </trkpt>
      <trkpt lat="42.803577680" lon="-0.832471760">
        <ele>956.65</ele>
        <time>2014-08-14T11:15:58Z</time>
      </trkpt>
      <trkpt lat="42.803910860" lon="-0.832673600">
        <ele>955.21</ele>
        <time>2014-08-14T11:16:03Z</time>
      </trkpt>
      <trkpt lat="42.804111940" lon="-0.832764460">
        <ele>955.21</ele>
        <time>2014-08-14T11:16:05Z</time>
      </trkpt>
      <trkpt lat="42.804686940" lon="-0.832901760">
        <ele>955.69</ele>
        <time>2014-08-14T11:16:13Z</time>
      </trkpt>
      <trkpt lat="42.804852730" lon="-0.832965960">
        <ele>955.21</ele>
        <time>2014-08-14T11:16:16Z</time>
      </trkpt>
      <trkpt lat="42.804908310" lon="-0.832985990">
        <ele>954.73</ele>
        <time>2014-08-14T11:16:17Z</time>
      </trkpt>
      <trkpt lat="42.804960860" lon="-0.832993700">
        <ele>955.21</ele>
        <time>2014-08-14T11:16:18Z</time>
      </trkpt>
      <trkpt lat="42.805013920" lon="-0.832991110">
        <ele>955.21</ele>
        <time>2014-08-14T11:16:19Z</time>
      </trkpt>
      <trkpt lat="42.805073600" lon="-0.832974590">
        <ele>955.21</ele>
        <time>2014-08-14T11:16:20Z</time>
      </trkpt>
      <trkpt lat="42.805518930" lon="-0.832701510">
        <ele>954.25</ele>
        <time>2014-08-14T11:16:30Z</time>
      </trkpt>
      <trkpt lat="42.805570980" lon="-0.832681560">
        <ele>954.25</ele>
        <time>2014-08-14T11:16:31Z</time>
      </trkpt>
      <trkpt lat="42.805625880" lon="-0.832671590">
        <ele>954.25</ele>
        <time>2014-08-14T11:16:32Z</time>
      </trkpt>
      <trkpt lat="42.805672650" lon="-0.832671760">
        <ele>954.25</ele>
        <time>2014-08-14T11:16:33Z</time>
      </trkpt>
      <trkpt lat="42.805925280" lon="-0.832690280">
        <ele>955.21</ele>
        <time>2014-08-14T11:16:39Z</time>
      </trkpt>
      <trkpt lat="42.806164920" lon="-0.832668320">
        <ele>955.69</ele>
        <time>2014-08-14T11:16:46Z</time>
      </trkpt>
      <trkpt lat="42.806339010" lon="-0.832630520">
        <ele>956.17</ele>
        <time>2014-08-14T11:16:53Z</time>
      </trkpt>
      <trkpt lat="42.806513360" lon="-0.832738060">
        <ele>956.65</ele>
        <time>2014-08-14T11:16:59Z</time>
      </trkpt>
      <trkpt lat="42.806590550" lon="-0.832778040">
        <ele>956.17</ele>
        <time>2014-08-14T11:17:09Z</time>
      </trkpt>
      <trkpt lat="42.806658030" lon="-0.832806700">
        <ele>956.17</ele>
        <time>2014-08-14T11:17:18Z</time>
      </trkpt>
      <trkpt lat="42.806690130" lon="-0.832798320">
        <ele>956.17</ele>
        <time>2014-08-14T11:17:23Z</time>
      </trkpt>
      <trkpt lat="42.806887190" lon="-0.832782820">
        <ele>956.65</ele>
        <time>2014-08-14T11:17:32Z</time>
      </trkpt>
      <trkpt lat="42.807160100" lon="-0.832655330">
        <ele>955.69</ele>
        <time>2014-08-14T11:17:41Z</time>
      </trkpt>
      <trkpt lat="42.807536280" lon="-0.832409820">
        <ele>955.69</ele>
        <time>2014-08-14T11:17:52Z</time>
      </trkpt>
      <trkpt lat="42.807945660" lon="-0.832197590">
        <ele>956.65</ele>
        <time>2014-08-14T11:18:03Z</time>
      </trkpt>
      <trkpt lat="42.808249750" lon="-0.832077810">
        <ele>956.65</ele>
        <time>2014-08-14T11:18:12Z</time>
      </trkpt>
      <trkpt lat="42.808417810" lon="-0.832022660">
        <ele>957.13</ele>
        <time>2014-08-14T11:18:19Z</time>
      </trkpt>
      <trkpt lat="42.808532980" lon="-0.832035150">
        <ele>958.09</ele>
        <time>2014-08-14T11:18:25Z</time>
      </trkpt>
      <trkpt lat="42.808559880" lon="-0.832079410">
        <ele>958.57</ele>
        <time>2014-08-14T11:18:28Z</time>
      </trkpt>
      <trkpt lat="42.808836070" lon="-0.832387610">
        <ele>958.57</ele>
        <time>2014-08-14T11:18:38Z</time>
      </trkpt>
      <trkpt lat="42.808974030" lon="-0.832492220">
        <ele>959.53</ele>
        <time>2014-08-14T11:18:43Z</time>
      </trkpt>
      <trkpt lat="42.809204620" lon="-0.832517110">
        <ele>960.01</ele>
        <time>2014-08-14T11:18:49Z</time>
      </trkpt>
      <trkpt lat="42.809416090" lon="-0.832497660">
        <ele>959.53</ele>
        <time>2014-08-14T11:18:55Z</time>
      </trkpt>
      <trkpt lat="42.809627070" lon="-0.832686840">
        <ele>960.49</ele>
        <time>2014-08-14T11:19:02Z</time>
      </trkpt>
      <trkpt lat="42.809806100" lon="-0.832906530">
        <ele>960.98</ele>
        <time>2014-08-14T11:19:08Z</time>
      </trkpt>
      <trkpt lat="42.809935850" lon="-0.833031930">
        <ele>961.94</ele>
        <time>2014-08-14T11:19:13Z</time>
      </trkpt>
      <trkpt lat="42.810094520" lon="-0.833087750">
        <ele>962.42</ele>
        <time>2014-08-14T11:21:14Z</time>
      </trkpt>
      <trkpt lat="42.810375650" lon="-0.833042740">
        <ele>963.38</ele>
        <time>2014-08-14T11:21:27Z</time>
      </trkpt>
      <trkpt lat="42.810614790" lon="-0.833061850">
        <ele>963.86</ele>
        <time>2014-08-14T11:21:35Z</time>
      </trkpt>
      <trkpt lat="42.810866830" lon="-0.832928490">
        <ele>964.82</ele>
        <time>2014-08-14T11:21:42Z</time>
      </trkpt>
      <trkpt lat="42.811151650" lon="-0.832654820">
        <ele>965.78</ele>
        <time>2014-08-14T11:21:52Z</time>
      </trkpt>
      <trkpt lat="42.811314430" lon="-0.832448800">
        <ele>966.74</ele>
        <time>2014-08-14T11:22:00Z</time>
      </trkpt>
      <trkpt lat="42.811460270" lon="-0.832358860">
        <ele>967.70</ele>
        <time>2014-08-14T11:22:08Z</time>
      </trkpt>
      <trkpt lat="42.811728490" lon="-0.832136150">
        <ele>969.63</ele>
        <time>2014-08-14T11:22:16Z</time>
      </trkpt>
      <trkpt lat="42.811915410" lon="-0.832012850">
        <ele>970.59</ele>
        <time>2014-08-14T11:22:23Z</time>
      </trkpt>
      <trkpt lat="42.812281950" lon="-0.832021490">
        <ele>972.03</ele>
        <time>2014-08-14T11:22:30Z</time>
      </trkpt>
      <trkpt lat="42.812650420" lon="-0.831931470">
        <ele>973.95</ele>
        <time>2014-08-14T11:22:40Z</time>
      </trkpt>
      <trkpt lat="42.812933470" lon="-0.831807080">
        <ele>974.43</ele>
        <time>2014-08-14T11:22:48Z</time>
      </trkpt>
      <trkpt lat="42.813248720" lon="-0.831576240">
        <ele>974.91</ele>
        <time>2014-08-14T11:22:57Z</time>
      </trkpt>
      <trkpt lat="42.813470170" lon="-0.831449170">
        <ele>975.39</ele>
        <time>2014-08-14T11:23:04Z</time>
      </trkpt>
      <trkpt lat="42.813781390" lon="-0.831305510">
        <ele>976.36</ele>
        <time>2014-08-14T11:23:14Z</time>
      </trkpt>
      <trkpt lat="42.813931260" lon="-0.831142310">
        <ele>975.88</ele>
        <time>2014-08-14T11:23:20Z</time>
      </trkpt>
      <trkpt lat="42.814194030" lon="-0.830890430">
        <ele>976.84</ele>
        <time>2014-08-14T11:23:27Z</time>
      </trkpt>
      <trkpt lat="42.814454200" lon="-0.830767970">
        <ele>977.80</ele>
        <time>2014-08-14T11:23:34Z</time>
      </trkpt>
      <trkpt lat="42.814640200" lon="-0.830779040">
        <ele>977.32</ele>
        <time>2014-08-14T11:23:42Z</time>
      </trkpt>
      <trkpt lat="42.814717400" lon="-0.830820950">
        <ele>978.28</ele>
        <time>2014-08-14T11:23:49Z</time>
      </trkpt>
      <trkpt lat="42.814795850" lon="-0.830881970">
        <ele>978.28</ele>
        <time>2014-08-14T11:23:55Z</time>
      </trkpt>
      <trkpt lat="42.814848570" lon="-0.830893950">
        <ele>978.76</ele>
        <time>2014-08-14T11:24:06Z</time>
      </trkpt>
      <trkpt lat="42.814966000" lon="-0.830980460">
        <ele>979.24</ele>
        <time>2014-08-14T11:24:12Z</time>
      </trkpt>
      <trkpt lat="42.815210170" lon="-0.831145580">
        <ele>979.72</ele>
        <time>2014-08-14T11:24:20Z</time>
      </trkpt>
      <trkpt lat="42.815477130" lon="-0.831354290">
        <ele>981.16</ele>
        <time>2014-08-14T11:24:29Z</time>
      </trkpt>
      <trkpt lat="42.815771340" lon="-0.831552600">
        <ele>982.60</ele>
        <time>2014-08-14T11:24:37Z</time>
      </trkpt>
      <trkpt lat="42.816065880" lon="-0.831684280">
        <ele>984.05</ele>
        <time>2014-08-14T11:24:45Z</time>
      </trkpt>
      <trkpt lat="42.816282210" lon="-0.831640610">
        <ele>984.05</ele>
        <time>2014-08-14T11:24:51Z</time>
      </trkpt>
      <trkpt lat="42.816654290" lon="-0.831386390">
        <ele>985.49</ele>
        <time>2014-08-14T11:25:01Z</time>
      </trkpt>
      <trkpt lat="42.816979250" lon="-0.831163770">
        <ele>986.45</ele>
        <time>2014-08-14T11:25:09Z</time>
      </trkpt>
      <trkpt lat="42.817164490" lon="-0.831101410">
        <ele>986.93</ele>
        <time>2014-08-14T11:25:16Z</time>
      </trkpt>
      <trkpt lat="42.817364400" lon="-0.830996630">
        <ele>988.37</ele>
        <time>2014-08-14T11:25:25Z</time>
      </trkpt>
      <trkpt lat="42.817573860" lon="-0.830898230">
        <ele>989.81</ele>
        <time>2014-08-14T11:25:33Z</time>
      </trkpt>
      <trkpt lat="42.817798750" lon="-0.830748700">
        <ele>990.30</ele>
        <time>2014-08-14T11:25:41Z</time>
      </trkpt>
      <trkpt lat="42.817984160" lon="-0.830446610">
        <ele>990.78</ele>
        <time>2014-08-14T11:25:50Z</time>
      </trkpt>
      <trkpt lat="42.818148360" lon="-0.830316110">
        <ele>991.26</ele>
        <time>2014-08-14T11:25:56Z</time>
      </trkpt>
      <trkpt lat="42.818467040" lon="-0.830336220">
        <ele>991.74</ele>
        <time>2014-08-14T11:26:06Z</time>
      </trkpt>
      <trkpt lat="42.818650350" lon="-0.830365140">
        <ele>992.22</ele>
        <time>2014-08-14T11:26:11Z</time>
      </trkpt>
      <trkpt lat="42.818856630" lon="-0.830364220">
        <ele>992.70</ele>
        <time>2014-08-14T11:26:18Z</time>
      </trkpt>
      <trkpt lat="42.819103730" lon="-0.830359110">
        <ele>992.70</ele>
        <time>2014-08-14T11:26:26Z</time>
      </trkpt>
      <trkpt lat="42.819421070" lon="-0.830526240">
        <ele>994.14</ele>
        <time>2014-08-14T11:26:34Z</time>
      </trkpt>
      <trkpt lat="42.819781410" lon="-0.830725140">
        <ele>995.10</ele>
        <time>2014-08-14T11:26:42Z</time>
      </trkpt>
      <trkpt lat="42.820082060" lon="-0.830798150">
        <ele>995.10</ele>
        <time>2014-08-14T11:26:49Z</time>
      </trkpt>
      <trkpt lat="42.820124900" lon="-0.830793460">
        <ele>995.58</ele>
        <time>2014-08-14T11:26:50Z</time>
      </trkpt>
      <trkpt lat="42.820172250" lon="-0.830783560">
        <ele>994.62</ele>
        <time>2014-08-14T11:26:51Z</time>
      </trkpt>
      <trkpt lat="42.820530500" lon="-0.830581560">
        <ele>993.66</ele>
        <time>2014-08-14T11:26:59Z</time>
      </trkpt>
      <trkpt lat="42.820858900" lon="-0.830301270">
        <ele>993.18</ele>
        <time>2014-08-14T11:27:08Z</time>
      </trkpt>
      <trkpt lat="42.820895950" lon="-0.830266570">
        <ele>994.14</ele>
        <time>2014-08-14T11:27:09Z</time>
      </trkpt>
      <trkpt lat="42.821194180" lon="-0.830075460">
        <ele>996.06</ele>
        <time>2014-08-14T11:27:16Z</time>
      </trkpt>
      <trkpt lat="42.821478410" lon="-0.829882510">
        <ele>996.06</ele>
        <time>2014-08-14T11:27:24Z</time>
      </trkpt>
      <trkpt lat="42.821576980" lon="-0.829844460">
        <ele>996.06</ele>
        <time>2014-08-14T11:27:27Z</time>
      </trkpt>
      <trkpt lat="42.821797590" lon="-0.830041770">
        <ele>997.51</ele>
        <time>2014-08-14T11:27:33Z</time>
      </trkpt>
      <trkpt lat="42.821836060" lon="-0.830085690">
        <ele>997.51</ele>
        <time>2014-08-14T11:27:34Z</time>
      </trkpt>
      <trkpt lat="42.821875040" lon="-0.830134810">
        <ele>997.99</ele>
        <time>2014-08-14T11:27:35Z</time>
      </trkpt>
      <trkpt lat="42.821907310" lon="-0.830187190">
        <ele>997.99</ele>
        <time>2014-08-14T11:27:36Z</time>
      </trkpt>
      <trkpt lat="42.821991630" lon="-0.830529680">
        <ele>999.43</ele>
        <time>2014-08-14T11:27:42Z</time>
      </trkpt>
      <trkpt lat="42.822130270" lon="-0.830981040">
        <ele>1001.35</ele>
        <time>2014-08-14T11:27:52Z</time>
      </trkpt>
      <trkpt lat="42.822299160" lon="-0.831171980">
        <ele>1002.31</ele>
        <time>2014-08-14T11:28:00Z</time>
      </trkpt>
      <trkpt lat="42.822437040" lon="-0.831300230">
        <ele>1004.72</ele>
        <time>2014-08-14T11:28:06Z</time>
      </trkpt>
      <trkpt lat="42.822589680" lon="-0.831438020">
        <ele>1005.20</ele>
        <time>2014-08-14T11:28:13Z</time>
      </trkpt>
      <trkpt lat="42.822745500" lon="-0.831616890">
        <ele>1004.72</ele>
        <time>2014-08-14T11:28:19Z</time>
      </trkpt>
      <trkpt lat="42.822817500" lon="-0.831657880">
        <ele>1005.20</ele>
        <time>2014-08-14T11:28:21Z</time>
      </trkpt>
      <trkpt lat="42.822856310" lon="-0.831675820">
        <ele>1004.23</ele>
        <time>2014-08-14T11:28:22Z</time>
      </trkpt>
      <trkpt lat="42.822903330" lon="-0.831690070">
        <ele>1004.72</ele>
        <time>2014-08-14T11:28:23Z</time>
      </trkpt>
      <trkpt lat="42.823100720" lon="-0.831696860">
        <ele>1004.72</ele>
        <time>2014-08-14T11:28:29Z</time>
      </trkpt>
      <trkpt lat="42.823181190" lon="-0.831684280">
        <ele>1006.16</ele>
        <time>2014-08-14T11:28:34Z</time>
      </trkpt>
      <trkpt lat="42.823318150" lon="-0.831653020">
        <ele>1007.12</ele>
        <time>2014-08-14T11:28:40Z</time>
      </trkpt>
      <trkpt lat="42.823491320" lon="-0.831621750">
        <ele>1008.56</ele>
        <time>2014-08-14T11:28:47Z</time>
      </trkpt>
      <trkpt lat="42.823613610" lon="-0.831619660">
        <ele>1008.08</ele>
        <time>2014-08-14T11:28:51Z</time>
      </trkpt>
      <trkpt lat="42.823737750" lon="-0.831618650">
        <ele>1009.04</ele>
        <time>2014-08-14T11:28:57Z</time>
      </trkpt>
      <trkpt lat="42.823765580" lon="-0.831634330">
        <ele>1009.04</ele>
        <time>2014-08-14T11:29:00Z</time>
      </trkpt>
      <trkpt lat="42.823939580" lon="-0.831699870">
        <ele>1010.00</ele>
        <time>2014-08-14T11:29:05Z</time>
      </trkpt>
      <trkpt lat="42.824109320" lon="-0.831809010">
        <ele>1010.48</ele>
        <time>2014-08-14T11:29:12Z</time>
      </trkpt>
      <trkpt lat="42.824158180" lon="-0.831859880">
        <ele>1012.41</ele>
        <time>2014-08-14T11:34:47Z</time>
      </trkpt>
      <trkpt lat="42.824267570" lon="-0.832024510">
        <ele>1011.93</ele>
        <time>2014-08-14T11:35:00Z</time>
      </trkpt>
      <trkpt lat="42.824309730" lon="-0.832135900">
        <ele>1012.41</ele>
        <time>2014-08-14T11:35:09Z</time>
      </trkpt>
      <trkpt lat="42.824177710" lon="-0.832082340">
        <ele>1012.41</ele>
        <time>2014-08-14T11:51:40Z</time>
      </trkpt>
      <trkpt lat="42.824132370" lon="-0.832062480">
        <ele>1012.41</ele>
        <time>2014-08-14T11:52:55Z</time>
      </trkpt>
      <trkpt lat="42.824078640" lon="-0.832045210">
        <ele>1012.41</ele>
        <time>2014-08-14T11:53:36Z</time>
      </trkpt>
      <trkpt lat="42.824126580" lon="-0.831860890">
        <ele>1010.96</ele>
        <time>2014-08-14T11:55:20Z</time>
      </trkpt>
      <trkpt lat="42.824077890" lon="-0.831797100">
        <ele>1013.85</ele>
        <time>2014-08-14T12:00:25Z</time>
      </trkpt>
      <trkpt lat="42.824068920" lon="-0.831776230">
        <ele>1013.85</ele>
        <time>2014-08-14T12:00:28Z</time>
      </trkpt>
      <trkpt lat="42.824078050" lon="-0.831734910">
        <ele>1013.85</ele>
        <time>2014-08-14T12:00:31Z</time>
      </trkpt>
      <trkpt lat="42.824092220" lon="-0.831706660">
        <ele>1013.85</ele>
        <time>2014-08-14T12:00:52Z</time>
      </trkpt>
      <trkpt lat="42.824129100" lon="-0.831742710">
        <ele>1013.85</ele>
        <time>2014-08-14T12:00:55Z</time>
      </trkpt>
      <trkpt lat="42.824235970" lon="-0.831817810">
        <ele>1015.29</ele>
        <time>2014-08-14T12:01:03Z</time>
      </trkpt>
      <trkpt lat="42.824348290" lon="-0.831900200">
        <ele>1016.73</ele>
        <time>2014-08-14T12:01:11Z</time>
      </trkpt>
      <trkpt lat="42.824445350" lon="-0.832006570">
        <ele>1017.21</ele>
        <time>2014-08-14T12:01:19Z</time>
      </trkpt>
      <trkpt lat="42.824582900" lon="-0.832117380">
        <ele>1018.65</ele>
        <time>2014-08-14T12:01:28Z</time>
      </trkpt>
      <trkpt lat="42.824738040" lon="-0.832246630">
        <ele>1020.10</ele>
        <time>2014-08-14T12:01:38Z</time>
      </trkpt>
      <trkpt lat="42.824852790" lon="-0.832349720">
        <ele>1021.54</ele>
        <time>2014-08-14T12:01:45Z</time>
      </trkpt>
      <trkpt lat="42.824966790" lon="-0.832425410">
        <ele>1022.50</ele>
        <time>2014-08-14T12:01:52Z</time>
      </trkpt>
      <trkpt lat="42.825103910" lon="-0.832529930">
        <ele>1023.46</ele>
        <time>2014-08-14T12:01:59Z</time>
      </trkpt>
      <trkpt lat="42.825256970" lon="-0.832607720">
        <ele>1023.94</ele>
        <time>2014-08-14T12:02:06Z</time>
      </trkpt>
      <trkpt lat="42.825449750" lon="-0.832700340">
        <ele>1024.90</ele>
        <time>2014-08-14T12:02:15Z</time>
      </trkpt>
      <trkpt lat="42.825570280" lon="-0.832777370">
        <ele>1026.34</ele>
        <time>2014-08-14T12:02:21Z</time>
      </trkpt>
      <trkpt lat="42.825775220" lon="-0.832872840">
        <ele>1027.79</ele>
        <time>2014-08-14T12:02:32Z</time>
      </trkpt>
      <trkpt lat="42.825941270" lon="-0.832970150">
        <ele>1028.75</ele>
        <time>2014-08-14T12:02:41Z</time>
      </trkpt>
      <trkpt lat="42.826149310" lon="-0.833093450">
        <ele>1031.15</ele>
        <time>2014-08-14T12:02:52Z</time>
      </trkpt>
      <trkpt lat="42.826305210" lon="-0.833169640">
        <ele>1032.59</ele>
        <time>2014-08-14T12:03:02Z</time>
      </trkpt>
      <trkpt lat="42.826444680" lon="-0.833243570">
        <ele>1034.04</ele>
        <time>2014-08-14T12:03:10Z</time>
      </trkpt>
      <trkpt lat="42.826525820" lon="-0.833275420">
        <ele>1034.52</ele>
        <time>2014-08-14T12:03:16Z</time>
      </trkpt>
      <trkpt lat="42.826675610" lon="-0.833314480">
        <ele>1035.48</ele>
        <time>2014-08-14T12:03:25Z</time>
      </trkpt>
      <trkpt lat="42.826776610" lon="-0.833348680">
        <ele>1037.40</ele>
        <time>2014-08-14T12:03:32Z</time>
      </trkpt>
      <trkpt lat="42.826935440" lon="-0.833460490">
        <ele>1038.36</ele>
        <time>2014-08-14T12:03:41Z</time>
      </trkpt>
      <trkpt lat="42.827096380" lon="-0.833651850">
        <ele>1039.32</ele>
        <time>2014-08-14T12:03:49Z</time>
      </trkpt>
      <trkpt lat="42.827200310" lon="-0.833815130">
        <ele>1040.28</ele>
        <time>2014-08-14T12:03:57Z</time>
      </trkpt>
      <trkpt lat="42.827232670" lon="-0.833858300">
        <ele>1040.76</ele>
        <time>2014-08-14T12:03:59Z</time>
      </trkpt>
      <trkpt lat="42.827310870" lon="-0.833992070">
        <ele>1041.25</ele>
        <time>2014-08-14T12:04:06Z</time>
      </trkpt>
      <trkpt lat="42.827453700" lon="-0.834179910">
        <ele>1042.21</ele>
        <time>2014-08-14T12:04:13Z</time>
      </trkpt>
      <trkpt lat="42.827548920" lon="-0.834310250">
        <ele>1044.61</ele>
        <time>2014-08-14T12:04:20Z</time>
      </trkpt>
      <trkpt lat="42.827619570" lon="-0.834419300">
        <ele>1044.13</ele>
        <time>2014-08-14T12:04:26Z</time>
      </trkpt>
      <trkpt lat="42.827748320" lon="-0.834600600">
        <ele>1046.53</ele>
        <time>2014-08-14T12:04:34Z</time>
      </trkpt>
      <trkpt lat="42.827812780" lon="-0.834670420">
        <ele>1046.05</ele>
        <time>2014-08-14T12:04:38Z</time>
      </trkpt>
      <trkpt lat="42.827940690" lon="-0.834819870">
        <ele>1047.97</ele>
        <time>2014-08-14T12:04:48Z</time>
      </trkpt>
      <trkpt lat="42.828046720" lon="-0.834933780">
        <ele>1048.94</ele>
        <time>2014-08-14T12:04:55Z</time>
      </trkpt>
      <trkpt lat="42.828147380" lon="-0.835078700">
        <ele>1049.42</ele>
        <time>2014-08-14T12:05:03Z</time>
      </trkpt>
      <trkpt lat="42.828290550" lon="-0.835241140">
        <ele>1049.90</ele>
        <time>2014-08-14T12:05:11Z</time>
      </trkpt>
      <trkpt lat="42.828419710" lon="-0.835360420">
        <ele>1049.90</ele>
        <time>2014-08-14T12:05:18Z</time>
      </trkpt>
      <trkpt lat="42.828615510" lon="-0.835499140">
        <ele>1050.38</ele>
        <time>2014-08-14T12:05:25Z</time>
      </trkpt>
      <trkpt lat="42.828863530" lon="-0.835690830">
        <ele>1050.38</ele>
        <time>2014-08-14T12:05:33Z</time>
      </trkpt>
      <trkpt lat="42.829073420" lon="-0.835802900">
        <ele>1050.38</ele>
        <time>2014-08-14T12:05:40Z</time>
      </trkpt>
      <trkpt lat="42.829267710" lon="-0.835931480">
        <ele>1051.34</ele>
        <time>2014-08-14T12:05:47Z</time>
      </trkpt>
      <trkpt lat="42.829389160" lon="-0.836060730">
        <ele>1050.38</ele>
        <time>2014-08-14T12:05:53Z</time>
      </trkpt>
      <trkpt lat="42.829478850" lon="-0.836187800">
        <ele>1050.86</ele>
        <time>2014-08-14T12:06:00Z</time>
      </trkpt>
      <trkpt lat="42.829604240" lon="-0.836302460">
        <ele>1050.38</ele>
        <time>2014-08-14T12:06:07Z</time>
      </trkpt>
      <trkpt lat="42.829723850" lon="-0.836443030">
        <ele>1050.38</ele>
        <time>2014-08-14T12:06:14Z</time>
      </trkpt>
      <trkpt lat="42.829907830" lon="-0.836624330">
        <ele>1050.38</ele>
        <time>2014-08-14T12:06:20Z</time>
      </trkpt>
      <trkpt lat="42.830084360" lon="-0.836815770">
        <ele>1049.90</ele>
        <time>2014-08-14T12:06:26Z</time>
      </trkpt>
      <trkpt lat="42.830352080" lon="-0.837000930">
        <ele>1049.90</ele>
        <time>2014-08-14T12:06:34Z</time>
      </trkpt>
      <trkpt lat="42.830544860" lon="-0.837146940">
        <ele>1050.38</ele>
        <time>2014-08-14T12:06:40Z</time>
      </trkpt>
      <trkpt lat="42.830827750" lon="-0.837318680">
        <ele>1051.34</ele>
        <time>2014-08-14T12:06:48Z</time>
      </trkpt>
      <trkpt lat="42.831034870" lon="-0.837404350">
        <ele>1050.86</ele>
        <time>2014-08-14T12:06:54Z</time>
      </trkpt>
      <trkpt lat="42.831062440" lon="-0.837399820">
        <ele>1051.34</ele>
        <time>2014-08-14T12:06:55Z</time>
      </trkpt>
      <trkpt lat="42.831301160" lon="-0.837316590">
        <ele>1053.74</ele>
        <time>2014-08-14T12:07:04Z</time>
      </trkpt>
      <trkpt lat="42.831492770" lon="-0.837195470">
        <ele>1054.70</ele>
        <time>2014-08-14T12:07:12Z</time>
      </trkpt>
      <trkpt lat="42.831684300" lon="-0.837032190">
        <ele>1056.15</ele>
        <time>2014-08-14T12:07:21Z</time>
      </trkpt>
      <trkpt lat="42.831898370" lon="-0.836784920">
        <ele>1057.59</ele>
        <time>2014-08-14T12:07:32Z</time>
      </trkpt>
      <trkpt lat="42.831936670" lon="-0.836742180">
        <ele>1058.55</ele>
        <time>2014-08-14T12:07:34Z</time>
      </trkpt>
      <trkpt lat="42.832069610" lon="-0.836574620">
        <ele>1058.55</ele>
        <time>2014-08-14T12:07:41Z</time>
      </trkpt>
      <trkpt lat="42.832268680" lon="-0.836307990">
        <ele>1060.47</ele>
        <time>2014-08-14T12:07:52Z</time>
      </trkpt>
      <trkpt lat="42.832500270" lon="-0.836076070">
        <ele>1061.91</ele>
        <time>2014-08-14T12:08:04Z</time>
      </trkpt>
      <trkpt lat="42.832670590" lon="-0.835918820">
        <ele>1062.39</ele>
        <time>2014-08-14T12:08:13Z</time>
      </trkpt>
      <trkpt lat="42.832828170" lon="-0.835779510">
        <ele>1063.84</ele>
        <time>2014-08-14T12:08:21Z</time>
      </trkpt>
      <trkpt lat="42.832986340" lon="-0.835644730">
        <ele>1065.28</ele>
        <time>2014-08-14T12:08:29Z</time>
      </trkpt>
      <trkpt lat="42.833231180" lon="-0.835398220">
        <ele>1067.20</ele>
        <time>2014-08-14T12:08:41Z</time>
      </trkpt>
      <trkpt lat="42.833407610" lon="-0.835345580">
        <ele>1066.72</ele>
        <time>2014-08-14T12:08:48Z</time>
      </trkpt>
      <trkpt lat="42.833601400" lon="-0.835446840">
        <ele>1065.76</ele>
        <time>2014-08-14T12:08:55Z</time>
      </trkpt>
      <trkpt lat="42.833724790" lon="-0.835530660">
        <ele>1065.76</ele>
        <time>2014-08-14T12:08:58Z</time>
      </trkpt>
      <trkpt lat="42.833786560" lon="-0.835600060">
        <ele>1065.76</ele>
        <time>2014-08-14T12:09:00Z</time>
      </trkpt>
      <trkpt lat="42.833819580" lon="-0.835658230">
        <ele>1065.76</ele>
        <time>2014-08-14T12:09:01Z</time>
      </trkpt>
      <trkpt lat="42.833849010" lon="-0.835720510">
        <ele>1065.76</ele>
        <time>2014-08-14T12:09:02Z</time>
      </trkpt>
      <trkpt lat="42.833878680" lon="-0.835795610">
        <ele>1064.80</ele>
        <time>2014-08-14T12:09:03Z</time>
      </trkpt>
      <trkpt lat="42.834090660" lon="-0.836010940">
        <ele>1062.87</ele>
        <time>2014-08-14T12:09:08Z</time>
      </trkpt>
      <trkpt lat="42.834276060" lon="-0.835979000">
        <ele>1061.91</ele>
        <time>2014-08-14T12:09:11Z</time>
      </trkpt>
      <trkpt lat="42.834567000" lon="-0.835865510">
        <ele>1061.91</ele>
        <time>2014-08-14T12:09:15Z</time>
      </trkpt>
      <trkpt lat="42.834695660" lon="-0.835628140">
        <ele>1059.99</ele>
        <time>2014-08-14T12:09:19Z</time>
      </trkpt>
      <trkpt lat="42.834766400" lon="-0.835493860">
        <ele>1059.51</ele>
        <time>2014-08-14T12:09:21Z</time>
      </trkpt>
      <trkpt lat="42.835172260" lon="-0.835118350">
        <ele>1058.55</ele>
        <time>2014-08-14T12:09:29Z</time>
      </trkpt>
      <trkpt lat="42.835521450" lon="-0.834715350">
        <ele>1057.11</ele>
        <time>2014-08-14T12:09:36Z</time>
      </trkpt>
      <trkpt lat="42.835730660" lon="-0.834494650">
        <ele>1057.59</ele>
        <time>2014-08-14T12:09:40Z</time>
      </trkpt>
      <trkpt lat="42.835780700" lon="-0.834457350">
        <ele>1056.63</ele>
        <time>2014-08-14T12:09:41Z</time>
      </trkpt>
      <trkpt lat="42.835826460" lon="-0.834436480">
        <ele>1057.11</ele>
        <time>2014-08-14T12:09:42Z</time>
      </trkpt>
      <trkpt lat="42.835970550" lon="-0.834396500">
        <ele>1056.63</ele>
        <time>2014-08-14T12:09:46Z</time>
      </trkpt>
      <trkpt lat="42.836024190" lon="-0.834390210">
        <ele>1056.15</ele>
        <time>2014-08-14T12:09:47Z</time>
      </trkpt>
      <trkpt lat="42.836073900" lon="-0.834392640">
        <ele>1056.63</ele>
        <time>2014-08-14T12:09:48Z</time>
      </trkpt>
      <trkpt lat="42.836490730" lon="-0.834406140">
        <ele>1056.15</ele>
        <time>2014-08-14T12:09:55Z</time>
      </trkpt>
      <trkpt lat="42.836816370" lon="-0.834441010">
        <ele>1056.63</ele>
        <time>2014-08-14T12:10:01Z</time>
      </trkpt>
      <trkpt lat="42.837165390" lon="-0.834520220">
        <ele>1058.07</ele>
        <time>2014-08-14T12:10:08Z</time>
      </trkpt>
      <trkpt lat="42.837358170" lon="-0.834512340">
        <ele>1058.55</ele>
        <time>2014-08-14T12:10:14Z</time>
      </trkpt>
      <trkpt lat="42.837580460" lon="-0.834526000">
        <ele>1059.99</ele>
        <time>2014-08-14T12:10:22Z</time>
      </trkpt>
      <trkpt lat="42.837770480" lon="-0.834563800">
        <ele>1062.39</ele>
        <time>2014-08-14T12:10:30Z</time>
      </trkpt>
      <trkpt lat="42.837920010" lon="-0.834576290">
        <ele>1062.87</ele>
        <time>2014-08-14T12:10:37Z</time>
      </trkpt>
      <trkpt lat="42.837913890" lon="-0.834573530">
        <ele>1062.87</ele>
        <time>2014-08-14T12:11:02Z</time>
      </trkpt>
      <trkpt lat="42.837940040" lon="-0.834580150">
        <ele>1063.36</ele>
        <time>2014-08-14T12:11:40Z</time>
      </trkpt>
      <trkpt lat="42.837936190" lon="-0.834580400">
        <ele>1065.28</ele>
        <time>2014-08-14T12:12:21Z</time>
      </trkpt>
      <trkpt lat="42.837936860" lon="-0.834580150">
        <ele>1063.84</ele>
        <time>2014-08-14T12:12:22Z</time>
      </trkpt>
      <trkpt lat="42.837928900" lon="-0.834537900">
        <ele>1063.84</ele>
        <time>2014-08-14T12:12:32Z</time>
      </trkpt>
      <trkpt lat="42.838039120" lon="-0.834499430">
        <ele>1064.32</ele>
        <time>2014-08-14T12:13:00Z</time>
      </trkpt>
      <trkpt lat="42.838182870" lon="-0.834468670">
        <ele>1065.76</ele>
        <time>2014-08-14T12:13:06Z</time>
      </trkpt>
      <trkpt lat="42.838432150" lon="-0.834213770">
        <ele>1068.64</ele>
        <time>2014-08-14T12:13:17Z</time>
      </trkpt>
      <trkpt lat="42.838483690" lon="-0.834127940">
        <ele>1069.12</ele>
        <time>2014-08-14T12:13:20Z</time>
      </trkpt>
      <trkpt lat="42.838569110" lon="-0.833904650">
        <ele>1070.57</ele>
        <time>2014-08-14T12:13:28Z</time>
      </trkpt>
      <trkpt lat="42.838577240" lon="-0.833558650">
        <ele>1071.05</ele>
        <time>2014-08-14T12:13:36Z</time>
      </trkpt>
      <trkpt lat="42.838505070" lon="-0.833273160">
        <ele>1072.01</ele>
        <time>2014-08-14T12:13:42Z</time>
      </trkpt>
      <trkpt lat="42.838406830" lon="-0.832993120">
        <ele>1072.01</ele>
        <time>2014-08-14T12:13:49Z</time>
      </trkpt>
      <trkpt lat="42.838443880" lon="-0.832631770">
        <ele>1072.49</ele>
        <time>2014-08-14T12:13:56Z</time>
      </trkpt>
      <trkpt lat="42.838575140" lon="-0.832423650">
        <ele>1072.97</ele>
        <time>2014-08-14T12:14:02Z</time>
      </trkpt>
      <trkpt lat="42.838725350" lon="-0.832195580">
        <ele>1073.93</ele>
        <time>2014-08-14T12:14:09Z</time>
      </trkpt>
      <trkpt lat="42.838880830" lon="-0.831979240">
        <ele>1076.33</ele>
        <time>2014-08-14T12:14:17Z</time>
      </trkpt>
      <trkpt lat="42.838945450" lon="-0.831880670">
        <ele>1075.85</ele>
        <time>2014-08-14T12:14:20Z</time>
      </trkpt>
      <trkpt lat="42.838960040" lon="-0.831847310">
        <ele>1077.78</ele>
        <time>2014-08-14T12:14:21Z</time>
      </trkpt>
      <trkpt lat="42.839064480" lon="-0.831628210">
        <ele>1078.74</ele>
        <time>2014-08-14T12:14:28Z</time>
      </trkpt>
      <trkpt lat="42.839212250" lon="-0.831372230">
        <ele>1080.66</ele>
        <time>2014-08-14T12:14:36Z</time>
      </trkpt>
      <trkpt lat="42.839392880" lon="-0.831080790">
        <ele>1082.58</ele>
        <time>2014-08-14T12:14:46Z</time>
      </trkpt>
      <trkpt lat="42.839431100" lon="-0.831027980">
        <ele>1083.06</ele>
        <time>2014-08-14T12:14:48Z</time>
      </trkpt>
      <trkpt lat="42.839627660" lon="-0.830816250">
        <ele>1083.06</ele>
        <time>2014-08-14T12:14:56Z</time>
      </trkpt>
      <trkpt lat="42.839843990" lon="-0.830630590">
        <ele>1083.54</ele>
        <time>2014-08-14T12:15:05Z</time>
      </trkpt>
      <trkpt lat="42.839879780" lon="-0.830603860">
        <ele>1084.99</ele>
        <time>2014-08-14T12:15:06Z</time>
      </trkpt>
      <trkpt lat="42.840081290" lon="-0.830484080">
        <ele>1086.43</ele>
        <time>2014-08-14T12:15:14Z</time>
      </trkpt>
      <trkpt lat="42.840302480" lon="-0.830408810">
        <ele>1087.87</ele>
        <time>2014-08-14T12:15:22Z</time>
      </trkpt>
      <trkpt lat="42.840485710" lon="-0.830362880">
        <ele>1088.83</ele>
        <time>2014-08-14T12:15:28Z</time>
      </trkpt>
      <trkpt lat="42.840684110" lon="-0.830290370">
        <ele>1090.75</ele>
        <time>2014-08-14T12:15:35Z</time>
      </trkpt>
      <trkpt lat="42.840910760" lon="-0.830142850">
        <ele>1091.71</ele>
        <time>2014-08-14T12:15:43Z</time>
      </trkpt>
      <trkpt lat="42.841105640" lon="-0.829877820">
        <ele>1091.71</ele>
        <time>2014-08-14T12:15:52Z</time>
      </trkpt>
      <trkpt lat="42.841311670" lon="-0.829710180">
        <ele>1093.16</ele>
        <time>2014-08-14T12:16:00Z</time>
      </trkpt>
      <trkpt lat="42.841537390" lon="-0.829513790">
        <ele>1095.08</ele>
        <time>2014-08-14T12:16:09Z</time>
      </trkpt>
      <trkpt lat="42.841741320" lon="-0.829372390">
        <ele>1095.08</ele>
        <time>2014-08-14T12:16:16Z</time>
      </trkpt>
      <trkpt lat="42.841941820" lon="-0.829243810">
        <ele>1097.00</ele>
        <time>2014-08-14T12:16:24Z</time>
      </trkpt>
      <trkpt lat="42.842178610" lon="-0.829094610">
        <ele>1097.96</ele>
        <time>2014-08-14T12:16:32Z</time>
      </trkpt>
      <trkpt lat="42.842453870" lon="-0.828944910">
        <ele>1098.92</ele>
        <time>2014-08-14T12:16:42Z</time>
      </trkpt>
      <trkpt lat="42.842593510" lon="-0.828733020">
        <ele>1100.85</ele>
        <time>2014-08-14T12:16:49Z</time>
      </trkpt>
      <trkpt lat="42.842802300" lon="-0.828514920">
        <ele>1103.25</ele>
        <time>2014-08-14T12:16:59Z</time>
      </trkpt>
      <trkpt lat="42.843005400" lon="-0.828453900">
        <ele>1104.21</ele>
        <time>2014-08-14T12:17:07Z</time>
      </trkpt>
      <trkpt lat="42.843193230" lon="-0.828416850">
        <ele>1106.13</ele>
        <time>2014-08-14T12:17:15Z</time>
      </trkpt>
      <trkpt lat="42.843396080" lon="-0.828338310">
        <ele>1108.06</ele>
        <time>2014-08-14T12:17:23Z</time>
      </trkpt>
      <trkpt lat="42.843490120" lon="-0.828287940">
        <ele>1109.50</ele>
        <time>2014-08-14T12:17:27Z</time>
      </trkpt>
      <trkpt lat="42.843648200" lon="-0.828136390">
        <ele>1110.46</ele>
        <time>2014-08-14T12:17:35Z</time>
      </trkpt>
      <trkpt lat="42.843779300" lon="-0.827899440">
        <ele>1110.94</ele>
        <time>2014-08-14T12:17:43Z</time>
      </trkpt>
      <trkpt lat="42.843850210" lon="-0.827778320">
        <ele>1112.38</ele>
        <time>2014-08-14T12:17:49Z</time>
      </trkpt>
      <trkpt lat="42.843967560" lon="-0.827676560">
        <ele>1113.34</ele>
        <time>2014-08-14T12:17:57Z</time>
      </trkpt>
      <trkpt lat="42.844084990" lon="-0.827546730">
        <ele>1114.79</ele>
        <time>2014-08-14T12:18:05Z</time>
      </trkpt>
      <trkpt lat="42.844274840" lon="-0.827465170">
        <ele>1115.75</ele>
        <time>2014-08-14T12:18:11Z</time>
      </trkpt>
      <trkpt lat="42.844455130" lon="-0.827402640">
        <ele>1117.67</ele>
        <time>2014-08-14T12:18:16Z</time>
      </trkpt>
      <trkpt lat="42.844648080" lon="-0.827407420">
        <ele>1118.15</ele>
        <time>2014-08-14T12:18:23Z</time>
      </trkpt>
      <trkpt lat="42.844728970" lon="-0.827398110">
        <ele>1119.59</ele>
        <time>2014-08-14T12:18:25Z</time>
      </trkpt>
      <trkpt lat="42.845026110" lon="-0.827389060">
        <ele>1122.00</ele>
        <time>2014-08-14T12:18:34Z</time>
      </trkpt>
      <trkpt lat="42.845220900" lon="-0.827374230">
        <ele>1122.48</ele>
        <time>2014-08-14T12:18:40Z</time>
      </trkpt>
      <trkpt lat="42.845384010" lon="-0.827249250">
        <ele>1124.88</ele>
        <time>2014-08-14T12:18:47Z</time>
      </trkpt>
      <trkpt lat="42.845523740" lon="-0.827025870">
        <ele>1125.84</ele>
        <time>2014-08-14T12:18:55Z</time>
      </trkpt>
      <trkpt lat="42.845620300" lon="-0.826796800">
        <ele>1127.28</ele>
        <time>2014-08-14T12:19:02Z</time>
      </trkpt>
      <trkpt lat="42.845809390" lon="-0.826528740">
        <ele>1129.69</ele>
        <time>2014-08-14T12:19:13Z</time>
      </trkpt>
      <trkpt lat="42.845928000" lon="-0.826444000">
        <ele>1131.13</ele>
        <time>2014-08-14T12:19:21Z</time>
      </trkpt>
      <trkpt lat="42.846053310" lon="-0.826416930">
        <ele>1132.09</ele>
        <time>2014-08-14T12:19:27Z</time>
      </trkpt>
      <trkpt lat="42.846074350" lon="-0.826410640">
        <ele>1134.01</ele>
        <time>2014-08-14T12:19:28Z</time>
      </trkpt>
      <trkpt lat="42.846117600" lon="-0.826403010">
        <ele>1134.01</ele>
        <time>2014-08-14T12:19:30Z</time>
      </trkpt>
      <trkpt lat="42.846275430" lon="-0.826391780">
        <ele>1134.97</ele>
        <time>2014-08-14T12:19:37Z</time>
      </trkpt>
      <trkpt lat="42.846496210" lon="-0.826403680">
        <ele>1136.90</ele>
        <time>2014-08-14T12:19:47Z</time>
      </trkpt>
      <trkpt lat="42.846691670" lon="-0.826399830">
        <ele>1139.30</ele>
        <time>2014-08-14T12:19:55Z</time>
      </trkpt>
      <trkpt lat="42.846858140" lon="-0.826376530">
        <ele>1138.82</ele>
        <time>2014-08-14T12:20:02Z</time>
      </trkpt>
      <trkpt lat="42.847043290" lon="-0.826370740">
        <ele>1138.82</ele>
        <time>2014-08-14T12:20:10Z</time>
      </trkpt>
      <trkpt lat="42.847254180" lon="-0.826330010">
        <ele>1139.30</ele>
        <time>2014-08-14T12:20:16Z</time>
      </trkpt>
      <trkpt lat="42.847532290" lon="-0.826311230">
        <ele>1139.78</ele>
        <time>2014-08-14T12:20:23Z</time>
      </trkpt>
      <trkpt lat="42.847779640" lon="-0.826307290">
        <ele>1141.22</ele>
        <time>2014-08-14T12:20:31Z</time>
      </trkpt>
      <trkpt lat="42.847978460" lon="-0.826311990">
        <ele>1142.18</ele>
        <time>2014-08-14T12:20:40Z</time>
      </trkpt>
      <trkpt lat="42.848149370" lon="-0.826417260">
        <ele>1144.59</ele>
        <time>2014-08-14T12:20:48Z</time>
      </trkpt>
      <trkpt lat="42.848287670" lon="-0.826452970">
        <ele>1145.55</ele>
        <time>2014-08-14T12:20:55Z</time>
      </trkpt>
      <trkpt lat="42.848474170" lon="-0.826489430">
        <ele>1146.51</ele>
        <time>2014-08-14T12:21:05Z</time>
      </trkpt>
      <trkpt lat="42.848677770" lon="-0.826635440">
        <ele>1149.39</ele>
        <time>2014-08-14T12:21:15Z</time>
      </trkpt>
      <trkpt lat="42.848848340" lon="-0.826671570">
        <ele>1151.80</ele>
        <time>2014-08-14T12:21:23Z</time>
      </trkpt>
      <trkpt lat="42.848998620" lon="-0.826651960">
        <ele>1152.28</ele>
        <time>2014-08-14T12:21:30Z</time>
      </trkpt>
      <trkpt lat="42.849098450" lon="-0.826497810">
        <ele>1154.68</ele>
        <time>2014-08-14T12:21:39Z</time>
      </trkpt>
      <trkpt lat="42.849183700" lon="-0.826349960">
        <ele>1156.12</ele>
        <time>2014-08-14T12:21:47Z</time>
      </trkpt>
      <trkpt lat="42.849310770" lon="-0.826237560">
        <ele>1158.53</ele>
        <time>2014-08-14T12:21:56Z</time>
      </trkpt>
      <trkpt lat="42.849367680" lon="-0.826166640">
        <ele>1158.53</ele>
        <time>2014-08-14T12:22:00Z</time>
      </trkpt>
      <trkpt lat="42.849519900" lon="-0.826135550">
        <ele>1159.97</ele>
        <time>2014-08-14T12:22:08Z</time>
      </trkpt>
      <trkpt lat="42.849628110" lon="-0.826126330">
        <ele>1161.41</ele>
        <time>2014-08-14T12:22:13Z</time>
      </trkpt>
      <trkpt lat="42.849806640" lon="-0.826094390">
        <ele>1162.37</ele>
        <time>2014-08-14T12:22:22Z</time>
      </trkpt>
      <trkpt lat="42.849944770" lon="-0.825916860">
        <ele>1163.81</ele>
        <time>2014-08-14T12:22:32Z</time>
      </trkpt>
      <trkpt lat="42.850048540" lon="-0.825753920">
        <ele>1164.77</ele>
        <time>2014-08-14T12:22:40Z</time>
      </trkpt>
      <trkpt lat="42.850084250" lon="-0.825683090">
        <ele>1166.22</ele>
        <time>2014-08-14T12:22:43Z</time>
      </trkpt>
      <trkpt lat="42.850180640" lon="-0.825570360">
        <ele>1167.66</ele>
        <time>2014-08-14T12:22:50Z</time>
      </trkpt>
      <trkpt lat="42.850323800" lon="-0.825434320">
        <ele>1167.66</ele>
        <time>2014-08-14T12:22:59Z</time>
      </trkpt>
      <trkpt lat="42.850444840" lon="-0.825311440">
        <ele>1168.14</ele>
        <time>2014-08-14T12:23:05Z</time>
      </trkpt>
      <trkpt lat="42.850657150" lon="-0.825209010">
        <ele>1169.58</ele>
        <time>2014-08-14T12:23:15Z</time>
      </trkpt>
      <trkpt lat="42.850824040" lon="-0.825218060">
        <ele>1170.06</ele>
        <time>2014-08-14T12:23:22Z</time>
      </trkpt>
      <trkpt lat="42.850925710" lon="-0.825243710">
        <ele>1171.98</ele>
        <time>2014-08-14T12:23:29Z</time>
      </trkpt>
      <trkpt lat="42.850934510" lon="-0.825288810">
        <ele>1176.79</ele>
        <time>2014-08-14T12:29:32Z</time>
      </trkpt>
      <trkpt lat="42.850944150" lon="-0.825286540">
        <ele>1177.27</ele>
        <time>2014-08-14T12:29:53Z</time>
      </trkpt>
      <trkpt lat="42.850966360" lon="-0.825294840">
        <ele>1176.79</ele>
        <time>2014-08-14T12:29:56Z</time>
      </trkpt>
      <trkpt lat="42.851057220" lon="-0.825341030">
        <ele>1176.79</ele>
        <time>2014-08-14T12:30:27Z</time>
      </trkpt>
      <trkpt lat="42.851016990" lon="-0.825151340">
        <ele>1176.79</ele>
        <time>2014-08-14T12:30:48Z</time>
      </trkpt>
      <trkpt lat="42.850965100" lon="-0.825048670">
        <ele>1175.83</ele>
        <time>2014-08-14T12:31:06Z</time>
      </trkpt>
      <trkpt lat="42.850965770" lon="-0.825052940">
        <ele>1175.35</ele>
        <time>2014-08-14T12:31:14Z</time>
      </trkpt>
      <trkpt lat="42.850966190" lon="-0.825021590">
        <ele>1176.31</ele>
        <time>2014-08-14T12:31:19Z</time>
      </trkpt>
      <trkpt lat="42.851079010" lon="-0.825107840">
        <ele>1176.31</ele>
        <time>2014-08-14T12:31:24Z</time>
      </trkpt>
      <trkpt lat="42.851361570" lon="-0.825263490">
        <ele>1178.23</ele>
        <time>2014-08-14T12:31:37Z</time>
      </trkpt>
      <trkpt lat="42.851524010" lon="-0.825359550">
        <ele>1179.67</ele>
        <time>2014-08-14T12:31:43Z</time>
      </trkpt>
      <trkpt lat="42.851687460" lon="-0.825436750">
        <ele>1180.64</ele>
        <time>2014-08-14T12:31:50Z</time>
      </trkpt>
      <trkpt lat="42.851840510" lon="-0.825368440">
        <ele>1182.56</ele>
        <time>2014-08-14T12:31:59Z</time>
      </trkpt>
      <trkpt lat="42.852014770" lon="-0.825296690">
        <ele>1184.48</ele>
        <time>2014-08-14T12:32:09Z</time>
      </trkpt>
      <trkpt lat="42.852208390" lon="-0.825332310">
        <ele>1185.44</ele>
        <time>2014-08-14T12:32:19Z</time>
      </trkpt>
      <trkpt lat="42.852413160" lon="-0.825430710">
        <ele>1186.88</ele>
        <time>2014-08-14T12:32:30Z</time>
      </trkpt>
      <trkpt lat="42.852628830" lon="-0.825551830">
        <ele>1188.33</ele>
        <time>2014-08-14T12:32:42Z</time>
      </trkpt>
      <trkpt lat="42.852811640" lon="-0.825595670">
        <ele>1189.29</ele>
        <time>2014-08-14T12:32:50Z</time>
      </trkpt>
      <trkpt lat="42.852983880" lon="-0.825639170">
        <ele>1190.25</ele>
        <time>2014-08-14T12:32:57Z</time>
      </trkpt>
      <trkpt lat="42.853160660" lon="-0.825767080">
        <ele>1190.25</ele>
        <time>2014-08-14T12:33:06Z</time>
      </trkpt>
      <trkpt lat="42.853275990" lon="-0.825867410">
        <ele>1190.73</ele>
        <time>2014-08-14T12:33:12Z</time>
      </trkpt>
      <trkpt lat="42.853507250" lon="-0.826039910">
        <ele>1190.25</ele>
        <time>2014-08-14T12:33:20Z</time>
      </trkpt>
      <trkpt lat="42.853820310" lon="-0.826121890">
        <ele>1190.25</ele>
        <time>2014-08-14T12:33:28Z</time>
      </trkpt>
      <trkpt lat="42.853923580" lon="-0.826111740">
        <ele>1190.25</ele>
        <time>2014-08-14T12:33:31Z</time>
      </trkpt>
      <trkpt lat="42.854258440" lon="-0.825991550">
        <ele>1189.77</ele>
        <time>2014-08-14T12:33:38Z</time>
      </trkpt>
      <trkpt lat="42.854484500" lon="-0.825936980">
        <ele>1189.77</ele>
        <time>2014-08-14T12:33:44Z</time>
      </trkpt>
      <trkpt lat="42.854730170" lon="-0.825972270">
        <ele>1191.21</ele>
        <time>2014-08-14T12:33:52Z</time>
      </trkpt>
      <trkpt lat="42.854939470" lon="-0.826082070">
        <ele>1192.17</ele>
        <time>2014-08-14T12:34:00Z</time>
      </trkpt>
      <trkpt lat="42.855187070" lon="-0.826128760">
        <ele>1192.65</ele>
        <time>2014-08-14T12:34:06Z</time>
      </trkpt>
      <trkpt lat="42.855214480" lon="-0.826124740">
        <ele>1194.09</ele>
        <time>2014-08-14T12:34:07Z</time>
      </trkpt>
      <trkpt lat="42.855506080" lon="-0.826181980">
        <ele>1194.58</ele>
        <time>2014-08-14T12:34:14Z</time>
      </trkpt>
      <trkpt lat="42.855744800" lon="-0.826224400">
        <ele>1195.06</ele>
        <time>2014-08-14T12:34:21Z</time>
      </trkpt>
      <trkpt lat="42.855785030" lon="-0.826213830">
        <ele>1195.06</ele>
        <time>2014-08-14T12:34:22Z</time>
      </trkpt>
      <trkpt lat="42.855827950" lon="-0.826192800">
        <ele>1194.58</ele>
        <time>2014-08-14T12:34:23Z</time>
      </trkpt>
      <trkpt lat="42.856166910" lon="-0.825873280">
        <ele>1193.13</ele>
        <time>2014-08-14T12:34:30Z</time>
      </trkpt>
      <trkpt lat="42.856631440" lon="-0.825518140">
        <ele>1192.65</ele>
        <time>2014-08-14T12:34:38Z</time>
      </trkpt>
      <trkpt lat="42.857099570" lon="-0.825152940">
        <ele>1193.61</ele>
        <time>2014-08-14T12:34:49Z</time>
      </trkpt>
      <trkpt lat="42.857422190" lon="-0.824873900">
        <ele>1194.09</ele>
        <time>2014-08-14T12:34:58Z</time>
      </trkpt>
      <trkpt lat="42.857570960" lon="-0.824614820">
        <ele>1196.02</ele>
        <time>2014-08-14T12:35:05Z</time>
      </trkpt>
      <trkpt lat="42.857599880" lon="-0.824573500">
        <ele>1196.02</ele>
        <time>2014-08-14T12:35:06Z</time>
      </trkpt>
      <trkpt lat="42.857681020" lon="-0.824511970">
        <ele>1194.58</ele>
        <time>2014-08-14T12:35:10Z</time>
      </trkpt>
      <trkpt lat="42.857693010" lon="-0.824512390">
        <ele>1196.98</ele>
        <time>2014-08-14T12:35:11Z</time>
      </trkpt>
      <trkpt lat="42.857815880" lon="-0.824373090">
        <ele>1196.98</ele>
        <time>2014-08-14T12:35:18Z</time>
      </trkpt>
      <trkpt lat="42.857929460" lon="-0.824233530">
        <ele>1198.42</ele>
        <time>2014-08-14T12:35:25Z</time>
      </trkpt>
      <trkpt lat="42.857995760" lon="-0.824154490">
        <ele>1198.90</ele>
        <time>2014-08-14T12:35:29Z</time>
      </trkpt>
      <trkpt lat="42.858057530" lon="-0.824089690">
        <ele>1200.82</ele>
        <time>2014-08-14T12:35:33Z</time>
      </trkpt>
      <trkpt lat="42.858081670" lon="-0.824067560">
        <ele>1199.86</ele>
        <time>2014-08-14T12:35:35Z</time>
      </trkpt>
      <trkpt lat="42.858093160" lon="-0.824059100">
        <ele>1199.38</ele>
        <time>2014-08-14T12:35:36Z</time>
      </trkpt>
      <trkpt lat="42.858151330" lon="-0.823847620">
        <ele>1200.82</ele>
        <time>2014-08-14T12:35:43Z</time>
      </trkpt>
      <trkpt lat="42.858222320" lon="-0.823554510">
        <ele>1202.27</ele>
        <time>2014-08-14T12:35:52Z</time>
      </trkpt>
      <trkpt lat="42.858250150" lon="-0.823511590">
        <ele>1203.23</ele>
        <time>2014-08-14T12:35:54Z</time>
      </trkpt>
      <trkpt lat="42.858329780" lon="-0.823265000">
        <ele>1203.23</ele>
        <time>2014-08-14T12:36:02Z</time>
      </trkpt>
      <trkpt lat="42.858349390" lon="-0.823203220">
        <ele>1204.19</ele>
        <time>2014-08-14T12:36:04Z</time>
      </trkpt>
      <trkpt lat="42.858408740" lon="-0.822976070">
        <ele>1204.19</ele>
        <time>2014-08-14T12:36:11Z</time>
      </trkpt>
      <trkpt lat="42.858430700" lon="-0.822650520">
        <ele>1206.11</ele>
        <time>2014-08-14T12:36:20Z</time>
      </trkpt>
      <trkpt lat="42.858437570" lon="-0.822614060">
        <ele>1206.59</ele>
        <time>2014-08-14T12:36:21Z</time>
      </trkpt>
      <trkpt lat="42.858537730" lon="-0.822393700">
        <ele>1208.03</ele>
        <time>2014-08-14T12:36:30Z</time>
      </trkpt>
      <trkpt lat="42.858591460" lon="-0.822349530">
        <ele>1208.51</ele>
        <time>2014-08-14T12:36:33Z</time>
      </trkpt>
      <trkpt lat="42.858681230" lon="-0.822188170">
        <ele>1209.48</ele>
        <time>2014-08-14T12:36:40Z</time>
      </trkpt>
      <trkpt lat="42.858784250" lon="-0.822091030">
        <ele>1210.44</ele>
        <time>2014-08-14T12:36:45Z</time>
      </trkpt>
      <trkpt lat="42.858792630" lon="-0.821950550">
        <ele>1209.96</ele>
        <time>2014-08-14T12:36:50Z</time>
      </trkpt>
      <trkpt lat="42.858785330" lon="-0.821884750">
        <ele>1211.40</ele>
        <time>2014-08-14T12:36:51Z</time>
      </trkpt>
      <trkpt lat="42.858829260" lon="-0.821665900">
        <ele>1213.32</ele>
        <time>2014-08-14T12:36:58Z</time>
      </trkpt>
      <trkpt lat="42.858918690" lon="-0.821461300">
        <ele>1214.76</ele>
        <time>2014-08-14T12:37:06Z</time>
      </trkpt>
      <trkpt lat="42.858982640" lon="-0.821320900">
        <ele>1216.21</ele>
        <time>2014-08-14T12:37:12Z</time>
      </trkpt>
      <trkpt lat="42.859138720" lon="-0.821233640">
        <ele>1217.65</ele>
        <time>2014-08-14T12:37:22Z</time>
      </trkpt>
      <trkpt lat="42.859252960" lon="-0.821159380">
        <ele>1219.57</ele>
        <time>2014-08-14T12:37:30Z</time>
      </trkpt>
      <trkpt lat="42.859268890" lon="-0.821155940">
        <ele>1219.57</ele>
        <time>2014-08-14T12:37:31Z</time>
      </trkpt>
      <trkpt lat="42.859471900" lon="-0.821179410">
        <ele>1221.97</ele>
        <time>2014-08-14T12:37:42Z</time>
      </trkpt>
      <trkpt lat="42.859625620" lon="-0.821233640">
        <ele>1222.93</ele>
        <time>2014-08-14T12:37:50Z</time>
      </trkpt>
      <trkpt lat="42.859713210" lon="-0.821184020">
        <ele>1223.42</ele>
        <time>2014-08-14T12:37:57Z</time>
      </trkpt>
      <trkpt lat="42.859791330" lon="-0.821089220">
        <ele>1223.42</ele>
        <time>2014-08-14T12:38:04Z</time>
      </trkpt>
      <trkpt lat="42.859817400" lon="-0.821077910">
        <ele>1224.38</ele>
        <time>2014-08-14T12:38:13Z</time>
      </trkpt>
      <trkpt lat="42.859841870" lon="-0.821094670">
        <ele>1224.38</ele>
        <time>2014-08-14T12:38:26Z</time>
      </trkpt>
      <trkpt lat="42.859889900" lon="-0.821195590">
        <ele>1224.38</ele>
        <time>2014-08-14T12:38:43Z</time>
      </trkpt>
      <trkpt lat="42.859906080" lon="-0.821164910">
        <ele>1224.38</ele>
        <time>2014-08-14T12:39:00Z</time>
      </trkpt>
      <trkpt lat="42.859942710" lon="-0.821108330">
        <ele>1223.90</ele>
        <time>2014-08-14T12:39:07Z</time>
      </trkpt>
      <trkpt lat="42.860035240" lon="-0.821023090">
        <ele>1224.86</ele>
        <time>2014-08-14T12:39:14Z</time>
      </trkpt>
      <trkpt lat="42.860240520" lon="-0.820916810">
        <ele>1225.34</ele>
        <time>2014-08-14T12:39:22Z</time>
      </trkpt>
      <trkpt lat="42.860436650" lon="-0.820698540">
        <ele>1225.82</ele>
        <time>2014-08-14T12:39:29Z</time>
      </trkpt>
      <trkpt lat="42.860626500" lon="-0.820589240">
        <ele>1226.30</ele>
        <time>2014-08-14T12:39:36Z</time>
      </trkpt>
      <trkpt lat="42.860823390" lon="-0.820619750">
        <ele>1225.34</ele>
        <time>2014-08-14T12:39:41Z</time>
      </trkpt>
      <trkpt lat="42.860938980" lon="-0.820615480">
        <ele>1224.86</ele>
        <time>2014-08-14T12:39:43Z</time>
      </trkpt>
      <trkpt lat="42.860994300" lon="-0.820587310">
        <ele>1224.86</ele>
        <time>2014-08-14T12:39:44Z</time>
      </trkpt>
      <trkpt lat="42.861150960" lon="-0.820474910">
        <ele>1223.90</ele>
        <time>2014-08-14T12:39:48Z</time>
      </trkpt>
      <trkpt lat="42.861209130" lon="-0.820444490">
        <ele>1222.93</ele>
        <time>2014-08-14T12:39:49Z</time>
      </trkpt>
      <trkpt lat="42.861262610" lon="-0.820428980">
        <ele>1222.93</ele>
        <time>2014-08-14T12:39:50Z</time>
      </trkpt>
      <trkpt lat="42.861319020" lon="-0.820429730">
        <ele>1222.93</ele>
        <time>2014-08-14T12:39:51Z</time>
      </trkpt>
      <trkpt lat="42.861394290" lon="-0.820447420">
        <ele>1222.45</ele>
        <time>2014-08-14T12:39:52Z</time>
      </trkpt>
      <trkpt lat="42.861471400" lon="-0.820446000">
        <ele>1221.97</ele>
        <time>2014-08-14T12:39:53Z</time>
      </trkpt>
      <trkpt lat="42.861547670" lon="-0.820407610">
        <ele>1221.01</ele>
        <time>2014-08-14T12:39:54Z</time>
      </trkpt>
      <trkpt lat="42.861598890" lon="-0.820329820">
        <ele>1221.01</ele>
        <time>2014-08-14T12:39:55Z</time>
      </trkpt>
      <trkpt lat="42.861619840" lon="-0.820236030">
        <ele>1220.53</ele>
        <time>2014-08-14T12:39:56Z</time>
      </trkpt>
      <trkpt lat="42.861610960" lon="-0.819927320">
        <ele>1221.97</ele>
        <time>2014-08-14T12:40:00Z</time>
      </trkpt>
      <trkpt lat="42.861737940" lon="-0.819485760">
        <ele>1221.01</ele>
        <time>2014-08-14T12:40:09Z</time>
      </trkpt>
      <trkpt lat="42.861757220" lon="-0.819433210">
        <ele>1221.01</ele>
        <time>2014-08-14T12:40:10Z</time>
      </trkpt>
      <trkpt lat="42.861838780" lon="-0.819165660">
        <ele>1222.93</ele>
        <time>2014-08-14T12:40:15Z</time>
      </trkpt>
      <trkpt lat="42.861853610" lon="-0.819117210">
        <ele>1220.53</ele>
        <time>2014-08-14T12:40:16Z</time>
      </trkpt>
      <trkpt lat="42.862014210" lon="-0.818600220">
        <ele>1220.53</ele>
        <time>2014-08-14T12:40:26Z</time>
      </trkpt>
      <trkpt lat="42.862224430" lon="-0.818129070">
        <ele>1221.01</ele>
        <time>2014-08-14T12:40:36Z</time>
      </trkpt>
      <trkpt lat="42.862434400" lon="-0.817798240">
        <ele>1221.49</ele>
        <time>2014-08-14T12:40:43Z</time>
      </trkpt>
      <trkpt lat="42.862634470" lon="-0.817357680">
        <ele>1221.97</ele>
        <time>2014-08-14T12:40:52Z</time>
      </trkpt>
      <trkpt lat="42.862791630" lon="-0.816872120">
        <ele>1222.45</ele>
        <time>2014-08-14T12:41:03Z</time>
      </trkpt>
      <trkpt lat="42.864119160" lon="-0.818218670">
        <ele>1223.42</ele>
        <time>2014-08-14T12:41:10Z</time>
      </trkpt>
      <trkpt lat="42.864232570" lon="-0.817842580">
        <ele>1222.93</ele>
        <time>2014-08-14T12:41:19Z</time>
      </trkpt>
      <trkpt lat="42.864404730" lon="-0.817578800">
        <ele>1225.34</ele>
        <time>2014-08-14T12:41:28Z</time>
      </trkpt>
      <trkpt lat="42.864557950" lon="-0.817338570">
        <ele>1226.30</ele>
        <time>2014-08-14T12:41:38Z</time>
      </trkpt>
      <trkpt lat="42.864718630" lon="-0.817089880">
        <ele>1226.78</ele>
        <time>2014-08-14T12:41:49Z</time>
      </trkpt>
      <trkpt lat="42.864807060" lon="-0.816942700">
        <ele>1229.18</ele>
        <time>2014-08-14T12:41:56Z</time>
      </trkpt>
      <trkpt lat="42.864886770" lon="-0.816788970">
        <ele>1228.70</ele>
        <time>2014-08-14T12:42:03Z</time>
      </trkpt>
      <trkpt lat="42.864935470" lon="-0.816745550">
        <ele>1230.62</ele>
        <time>2014-08-14T12:42:06Z</time>
      </trkpt>
      <trkpt lat="42.865068660" lon="-0.816750920">
        <ele>1232.07</ele>
        <time>2014-08-14T12:42:14Z</time>
      </trkpt>
      <trkpt lat="42.865102690" lon="-0.816916800">
        <ele>1232.55</ele>
        <time>2014-08-14T12:42:21Z</time>
      </trkpt>
      <trkpt lat="42.865072850" lon="-0.817117790">
        <ele>1233.51</ele>
        <time>2014-08-14T12:42:29Z</time>
      </trkpt>
      <trkpt lat="42.865032870" lon="-0.817320550">
        <ele>1235.43</ele>
        <time>2014-08-14T12:42:37Z</time>
      </trkpt>
      <trkpt lat="42.865000430" lon="-0.817645770">
        <ele>1237.35</ele>
        <time>2014-08-14T12:42:48Z</time>
      </trkpt>
      <trkpt lat="42.864966320" lon="-0.817947270">
        <ele>1238.32</ele>
        <time>2014-08-14T12:42:57Z</time>
      </trkpt>
      <trkpt lat="42.864936060" lon="-0.818132930">
        <ele>1239.76</ele>
        <time>2014-08-14T12:43:02Z</time>
      </trkpt>
      <trkpt lat="42.864914690" lon="-0.818452440">
        <ele>1240.72</ele>
        <time>2014-08-14T12:43:12Z</time>
      </trkpt>
      <trkpt lat="42.864900940" lon="-0.818683870">
        <ele>1241.68</ele>
        <time>2014-08-14T12:43:20Z</time>
      </trkpt>
      <trkpt lat="42.864895410" lon="-0.818885450">
        <ele>1243.12</ele>
        <time>2014-08-14T12:43:28Z</time>
      </trkpt>
      <trkpt lat="42.864874870" lon="-0.819117550">
        <ele>1245.04</ele>
        <time>2014-08-14T12:43:36Z</time>
      </trkpt>
      <trkpt lat="42.864882750" lon="-0.819353670">
        <ele>1246.01</ele>
        <time>2014-08-14T12:43:44Z</time>
      </trkpt>
      <trkpt lat="42.864880070" lon="-0.819657590">
        <ele>1246.97</ele>
        <time>2014-08-14T12:43:54Z</time>
      </trkpt>
      <trkpt lat="42.864887030" lon="-0.819961350">
        <ele>1248.89</ele>
        <time>2014-08-14T12:44:04Z</time>
      </trkpt>
      <trkpt lat="42.864878810" lon="-0.820265870">
        <ele>1250.81</ele>
        <time>2014-08-14T12:44:14Z</time>
      </trkpt>
      <trkpt lat="42.864819220" lon="-0.820599720">
        <ele>1253.22</ele>
        <time>2014-08-14T12:44:25Z</time>
      </trkpt>
      <trkpt lat="42.864800190" lon="-0.820696780">
        <ele>1254.66</ele>
        <time>2014-08-14T12:44:28Z</time>
      </trkpt>
      <trkpt lat="42.864772610" lon="-0.820982690">
        <ele>1256.10</ele>
        <time>2014-08-14T12:44:37Z</time>
      </trkpt>
      <trkpt lat="42.864712680" lon="-0.821350820">
        <ele>1258.50</ele>
        <time>2014-08-14T12:44:49Z</time>
      </trkpt>
      <trkpt lat="42.864671860" lon="-0.821689200">
        <ele>1260.91</ele>
        <time>2014-08-14T12:45:00Z</time>
      </trkpt>
      <trkpt lat="42.864700360" lon="-0.821945180">
        <ele>1261.87</ele>
        <time>2014-08-14T12:45:09Z</time>
      </trkpt>
      <trkpt lat="42.864761720" lon="-0.822166380">
        <ele>1263.79</ele>
        <time>2014-08-14T12:45:17Z</time>
      </trkpt>
      <trkpt lat="42.864849640" lon="-0.822388500">
        <ele>1265.23</ele>
        <time>2014-08-14T12:45:25Z</time>
      </trkpt>
      <trkpt lat="42.864932540" lon="-0.822604000">
        <ele>1267.64</ele>
        <time>2014-08-14T12:45:33Z</time>
      </trkpt>
      <trkpt lat="42.864991300" lon="-0.822857470">
        <ele>1269.56</ele>
        <time>2014-08-14T12:45:42Z</time>
      </trkpt>
      <trkpt lat="42.865048040" lon="-0.823184780">
        <ele>1270.52</ele>
        <time>2014-08-14T12:45:53Z</time>
      </trkpt>
      <trkpt lat="42.865106630" lon="-0.823427610">
        <ele>1272.44</ele>
        <time>2014-08-14T12:46:01Z</time>
      </trkpt>
      <trkpt lat="42.865195730" lon="-0.823686440">
        <ele>1274.36</ele>
        <time>2014-08-14T12:46:10Z</time>
      </trkpt>
      <trkpt lat="42.865299830" lon="-0.823969500">
        <ele>1275.81</ele>
        <time>2014-08-14T12:46:20Z</time>
      </trkpt>
      <trkpt lat="42.865417770" lon="-0.824252890">
        <ele>1277.73</ele>
        <time>2014-08-14T12:46:30Z</time>
      </trkpt>
      <trkpt lat="42.865517430" lon="-0.824562680">
        <ele>1280.13</ele>
        <time>2014-08-14T12:46:41Z</time>
      </trkpt>
      <trkpt lat="42.865558500" lon="-0.824880020">
        <ele>1282.06</ele>
        <time>2014-08-14T12:46:52Z</time>
      </trkpt>
      <trkpt lat="42.865581210" lon="-0.825185790">
        <ele>1284.94</ele>
        <time>2014-08-14T12:47:02Z</time>
      </trkpt>
      <trkpt lat="42.865632850" lon="-0.825550240">
        <ele>1287.34</ele>
        <time>2014-08-14T12:47:14Z</time>
      </trkpt>
      <trkpt lat="42.865780540" lon="-0.825712930">
        <ele>1289.27</ele>
        <time>2014-08-14T12:47:22Z</time>
      </trkpt>
      <trkpt lat="42.865972310" lon="-0.825828850">
        <ele>1291.67</ele>
        <time>2014-08-14T12:47:31Z</time>
      </trkpt>
      <trkpt lat="42.866024780" lon="-0.826102940">
        <ele>1293.59</ele>
        <time>2014-08-14T12:47:40Z</time>
      </trkpt>
      <trkpt lat="42.865944820" lon="-0.826356750">
        <ele>1294.07</ele>
        <time>2014-08-14T12:47:49Z</time>
      </trkpt>
      <trkpt lat="42.865829230" lon="-0.826694030">
        <ele>1296.96</ele>
        <time>2014-08-14T12:48:01Z</time>
      </trkpt>
      <trkpt lat="42.865892770" lon="-0.826917080">
        <ele>1299.36</ele>
        <time>2014-08-14T12:48:09Z</time>
      </trkpt>
      <trkpt lat="42.866075750" lon="-0.826984300">
        <ele>1300.32</ele>
        <time>2014-08-14T12:48:17Z</time>
      </trkpt>
      <trkpt lat="42.866322930" lon="-0.826928730">
        <ele>1302.24</ele>
        <time>2014-08-14T12:48:28Z</time>
      </trkpt>
      <trkpt lat="42.866580340" lon="-0.826862590">
        <ele>1304.17</ele>
        <time>2014-08-14T12:48:39Z</time>
      </trkpt>
      <trkpt lat="42.866649240" lon="-0.826895370">
        <ele>1303.20</ele>
        <time>2014-08-14T12:51:53Z</time>
      </trkpt>
      <trkpt lat="42.866667170" lon="-0.826952110">
        <ele>1304.17</ele>
        <time>2014-08-14T12:51:55Z</time>
      </trkpt>
      <trkpt lat="42.866783770" lon="-0.827128550">
        <ele>1304.17</ele>
        <time>2014-08-14T12:52:03Z</time>
      </trkpt>
      <trkpt lat="42.866863560" lon="-0.827304400">
        <ele>1305.13</ele>
        <time>2014-08-14T12:52:12Z</time>
      </trkpt>
      <trkpt lat="42.866889630" lon="-0.827332320">
        <ele>1304.65</ele>
        <time>2014-08-14T12:52:20Z</time>
      </trkpt>
      <trkpt lat="42.866933380" lon="-0.827319990">
        <ele>1305.13</ele>
        <time>2014-08-14T12:52:35Z</time>
      </trkpt>
      <trkpt lat="42.866946370" lon="-0.827378750">
        <ele>1305.61</ele>
        <time>2014-08-14T12:52:45Z</time>
      </trkpt>
      <trkpt lat="42.867015440" lon="-0.827507750">
        <ele>1304.65</ele>
        <time>2014-08-14T12:52:52Z</time>
      </trkpt>
      <trkpt lat="42.867098760" lon="-0.827683940">
        <ele>1303.69</ele>
        <time>2014-08-14T12:52:59Z</time>
      </trkpt>
      <trkpt lat="42.867096240" lon="-0.827778150">
        <ele>1303.20</ele>
        <time>2014-08-14T12:53:03Z</time>
      </trkpt>
      <trkpt lat="42.867181740" lon="-0.828128350">
        <ele>1303.69</ele>
        <time>2014-08-14T12:53:13Z</time>
      </trkpt>
      <trkpt lat="42.867243850" lon="-0.828404030">
        <ele>1304.17</ele>
        <time>2014-08-14T12:53:22Z</time>
      </trkpt>
      <trkpt lat="42.867274950" lon="-0.828557250">
        <ele>1304.17</ele>
        <time>2014-08-14T12:53:27Z</time>
      </trkpt>
      <trkpt lat="42.867287270" lon="-0.828630000">
        <ele>1304.65</ele>
        <time>2014-08-14T12:53:31Z</time>
      </trkpt>
      <trkpt lat="42.867265730" lon="-0.828886320">
        <ele>1304.65</ele>
        <time>2014-08-14T12:53:41Z</time>
      </trkpt>
      <trkpt lat="42.867338310" lon="-0.829141800">
        <ele>1303.69</ele>
        <time>2014-08-14T12:53:47Z</time>
      </trkpt>
      <trkpt lat="42.867344680" lon="-0.829395270">
        <ele>1303.69</ele>
        <time>2014-08-14T12:53:54Z</time>
      </trkpt>
      <trkpt lat="42.867375700" lon="-0.829439950">
        <ele>1303.69</ele>
        <time>2014-08-14T12:54:00Z</time>
      </trkpt>
      <trkpt lat="42.867419870" lon="-0.829461570">
        <ele>1303.69</ele>
        <time>2014-08-14T12:54:10Z</time>
      </trkpt>
      <trkpt lat="42.867427660" lon="-0.829488480">
        <ele>1303.20</ele>
        <time>2014-08-14T12:54:19Z</time>
      </trkpt>
      <trkpt lat="42.867398490" lon="-0.829511690">
        <ele>1303.69</ele>
        <time>2014-08-14T12:54:35Z</time>
      </trkpt>
      <trkpt lat="42.867354990" lon="-0.829546480">
        <ele>1304.17</ele>
        <time>2014-08-14T12:54:46Z</time>
      </trkpt>
      <trkpt lat="42.867336970" lon="-0.829661900">
        <ele>1305.13</ele>
        <time>2014-08-14T12:54:56Z</time>
      </trkpt>
      <trkpt lat="42.867336800" lon="-0.829676320">
        <ele>1304.17</ele>
        <time>2014-08-14T12:54:57Z</time>
      </trkpt>
      <trkpt lat="42.867320710" lon="-0.829803050">
        <ele>1306.57</ele>
        <time>2014-08-14T12:55:04Z</time>
      </trkpt>
      <trkpt lat="42.867312750" lon="-0.829849490">
        <ele>1307.53</ele>
        <time>2014-08-14T12:55:06Z</time>
      </trkpt>
      <trkpt lat="42.867443250" lon="-0.829919730">
        <ele>1303.20</ele>
        <time>2014-08-14T13:01:27Z</time>
      </trkpt>
      <trkpt lat="42.867498320" lon="-0.830041680">
        <ele>1300.32</ele>
        <time>2014-08-14T13:01:30Z</time>
      </trkpt>
      <trkpt lat="42.867515250" lon="-0.830234890">
        <ele>1299.36</ele>
        <time>2014-08-14T13:01:33Z</time>
      </trkpt>
      <trkpt lat="42.867488770" lon="-0.830579800">
        <ele>1295.51</ele>
        <time>2014-08-14T13:01:38Z</time>
      </trkpt>
      <trkpt lat="42.867487430" lon="-0.830619950">
        <ele>1295.03</ele>
        <time>2014-08-14T13:01:39Z</time>
      </trkpt>
      <trkpt lat="42.867493380" lon="-0.830692200">
        <ele>1292.15</ele>
        <time>2014-08-14T13:02:16Z</time>
      </trkpt>
      <trkpt lat="42.867528330" lon="-0.830722130">
        <ele>1292.63</ele>
        <time>2014-08-14T13:02:25Z</time>
      </trkpt>
      <trkpt lat="42.867519360" lon="-0.830746180">
        <ele>1290.23</ele>
        <time>2014-08-14T13:03:02Z</time>
      </trkpt>
      <trkpt lat="42.867484830" lon="-0.830838130">
        <ele>1287.82</ele>
        <time>2014-08-14T13:03:07Z</time>
      </trkpt>
      <trkpt lat="42.867463870" lon="-0.830892450">
        <ele>1285.42</ele>
        <time>2014-08-14T13:03:10Z</time>
      </trkpt>
      <trkpt lat="42.867440660" lon="-0.830960930">
        <ele>1283.98</ele>
        <time>2014-08-14T13:03:13Z</time>
      </trkpt>
      <trkpt lat="42.867492790" lon="-0.831070730">
        <ele>1280.61</ele>
        <time>2014-08-14T13:03:19Z</time>
      </trkpt>
      <trkpt lat="42.867596480" lon="-0.831153040">
        <ele>1279.17</ele>
        <time>2014-08-14T13:03:21Z</time>
      </trkpt>
      <trkpt lat="42.867661850" lon="-0.831213470">
        <ele>1277.73</ele>
        <time>2014-08-14T13:03:22Z</time>
      </trkpt>
      <trkpt lat="42.867699150" lon="-0.831244490">
        <ele>1277.25</ele>
        <time>2014-08-14T13:03:23Z</time>
      </trkpt>
      <trkpt lat="42.867745510" lon="-0.831360570">
        <ele>1276.29</ele>
        <time>2014-08-14T13:03:25Z</time>
      </trkpt>
      <trkpt lat="42.867710300" lon="-0.831505160">
        <ele>1276.29</ele>
        <time>2014-08-14T13:03:30Z</time>
      </trkpt>
      <trkpt lat="42.867618270" lon="-0.831610770">
        <ele>1276.29</ele>
        <time>2014-08-14T13:03:47Z</time>
      </trkpt>
      <trkpt lat="42.867567390" lon="-0.831682270">
        <ele>1277.73</ele>
        <time>2014-08-14T13:03:59Z</time>
      </trkpt>
      <trkpt lat="42.867544340" lon="-0.831789980">
        <ele>1276.29</ele>
        <time>2014-08-14T13:04:09Z</time>
      </trkpt>
      <trkpt lat="42.867553900" lon="-0.832012180">
        <ele>1272.44</ele>
        <time>2014-08-14T13:04:13Z</time>
      </trkpt>
      <trkpt lat="42.867550290" lon="-0.832159710">
        <ele>1271.00</ele>
        <time>2014-08-14T13:04:15Z</time>
      </trkpt>
      <trkpt lat="42.867553560" lon="-0.832342850">
        <ele>1269.08</ele>
        <time>2014-08-14T13:04:19Z</time>
      </trkpt>
      <trkpt lat="42.867500170" lon="-0.832530020">
        <ele>1265.71</ele>
        <time>2014-08-14T13:04:24Z</time>
      </trkpt>
      <trkpt lat="42.867504610" lon="-0.832600510">
        <ele>1264.75</ele>
        <time>2014-08-14T13:04:28Z</time>
      </trkpt>
      <trkpt lat="42.867580890" lon="-0.832704950">
        <ele>1261.87</ele>
        <time>2014-08-14T13:04:32Z</time>
      </trkpt>
      <trkpt lat="42.867681300" lon="-0.832768650">
        <ele>1261.39</ele>
        <time>2014-08-14T13:04:36Z</time>
      </trkpt>
      <trkpt lat="42.867845000" lon="-0.832913150">
        <ele>1259.46</ele>
        <time>2014-08-14T13:04:43Z</time>
      </trkpt>
      <trkpt lat="42.867999390" lon="-0.833084480">
        <ele>1256.58</ele>
        <time>2014-08-14T13:04:48Z</time>
      </trkpt>
      <trkpt lat="42.868151530" lon="-0.833264610">
        <ele>1252.25</ele>
        <time>2014-08-14T13:04:55Z</time>
      </trkpt>
      <trkpt lat="42.868185890" lon="-0.833318000">
        <ele>1251.29</ele>
        <time>2014-08-14T13:04:57Z</time>
      </trkpt>
      <trkpt lat="42.868328300" lon="-0.833566860">
        <ele>1246.49</ele>
        <time>2014-08-14T13:05:04Z</time>
      </trkpt>
      <trkpt lat="42.868494680" lon="-0.833718320">
        <ele>1243.12</ele>
        <time>2014-08-14T13:05:11Z</time>
      </trkpt>
      <trkpt lat="42.868590820" lon="-0.833820080">
        <ele>1239.76</ele>
        <time>2014-08-14T13:05:17Z</time>
      </trkpt>
      <trkpt lat="42.868598780" lon="-0.833832900">
        <ele>1239.76</ele>
        <time>2014-08-14T13:05:18Z</time>
      </trkpt>
      <trkpt lat="42.868622420" lon="-0.833890990">
        <ele>1239.28</ele>
        <time>2014-08-14T13:05:26Z</time>
      </trkpt>
      <trkpt lat="42.868590820" lon="-0.833970360">
        <ele>1239.28</ele>
        <time>2014-08-14T13:05:43Z</time>
      </trkpt>
      <trkpt lat="42.868618310" lon="-0.834010850">
        <ele>1239.28</ele>
        <time>2014-08-14T13:06:04Z</time>
      </trkpt>
      <trkpt lat="42.868671870" lon="-0.833996100">
        <ele>1239.76</ele>
        <time>2014-08-14T13:06:08Z</time>
      </trkpt>
      <trkpt lat="42.868846970" lon="-0.833994420">
        <ele>1238.32</ele>
        <time>2014-08-14T13:06:16Z</time>
      </trkpt>
      <trkpt lat="42.868864320" lon="-0.834005230">
        <ele>1237.83</ele>
        <time>2014-08-14T13:06:17Z</time>
      </trkpt>
      <trkpt lat="42.868940260" lon="-0.834059210">
        <ele>1236.39</ele>
        <time>2014-08-14T13:06:20Z</time>
      </trkpt>
      <trkpt lat="42.869115700" lon="-0.834192650">
        <ele>1233.51</ele>
        <time>2014-08-14T13:06:25Z</time>
      </trkpt>
      <trkpt lat="42.869296580" lon="-0.834352410">
        <ele>1229.66</ele>
        <time>2014-08-14T13:06:31Z</time>
      </trkpt>
      <trkpt lat="42.869352570" lon="-0.834423990">
        <ele>1227.26</ele>
        <time>2014-08-14T13:06:34Z</time>
      </trkpt>
      <trkpt lat="42.869463630" lon="-0.834521390">
        <ele>1225.34</ele>
        <time>2014-08-14T13:06:38Z</time>
      </trkpt>
      <trkpt lat="42.869610230" lon="-0.834652060">
        <ele>1222.45</ele>
        <time>2014-08-14T13:06:43Z</time>
      </trkpt>
      <trkpt lat="42.869661360" lon="-0.834714430">
        <ele>1221.97</ele>
        <time>2014-08-14T13:06:46Z</time>
      </trkpt>
      <trkpt lat="42.869769230" lon="-0.834828590">
        <ele>1219.09</ele>
        <time>2014-08-14T13:06:51Z</time>
      </trkpt>
      <trkpt lat="42.869864370" lon="-0.834955150">
        <ele>1215.72</ele>
        <time>2014-08-14T13:06:56Z</time>
      </trkpt>
      <trkpt lat="42.869912230" lon="-0.834973340">
        <ele>1213.32</ele>
        <time>2014-08-14T13:06:58Z</time>
      </trkpt>
      <trkpt lat="42.869944830" lon="-0.835035030">
        <ele>1211.40</ele>
        <time>2014-08-14T13:07:01Z</time>
      </trkpt>
      <trkpt lat="42.869952800" lon="-0.835294370">
        <ele>1208.51</ele>
        <time>2014-08-14T13:07:07Z</time>
      </trkpt>
      <trkpt lat="42.869961760" lon="-0.835296970">
        <ele>1208.03</ele>
        <time>2014-08-14T13:07:08Z</time>
      </trkpt>
      <trkpt lat="42.869802760" lon="-0.835476340">
        <ele>1208.03</ele>
        <time>2014-08-14T13:07:15Z</time>
      </trkpt>
      <trkpt lat="42.869794130" lon="-0.835465360">
        <ele>1206.59</ele>
        <time>2014-08-14T13:07:20Z</time>
      </trkpt>
      <trkpt lat="42.869772920" lon="-0.835457310">
        <ele>1209.48</ele>
        <time>2014-08-14T13:07:22Z</time>
      </trkpt>
      <trkpt lat="42.869655240" lon="-0.835470220">
        <ele>1209.00</ele>
        <time>2014-08-14T13:07:31Z</time>
      </trkpt>
      <trkpt lat="42.869652140" lon="-0.835481370">
        <ele>1204.67</ele>
        <time>2014-08-14T13:07:36Z</time>
      </trkpt>
      <trkpt lat="42.869649290" lon="-0.835482540">
        <ele>1204.67</ele>
        <time>2014-08-14T13:07:37Z</time>
      </trkpt>
      <trkpt lat="42.869647780" lon="-0.835481450">
        <ele>1209.96</ele>
        <time>2014-08-14T13:07:38Z</time>
      </trkpt>
      <trkpt lat="42.869652220" lon="-0.835484720">
        <ele>1207.07</ele>
        <time>2014-08-14T13:07:39Z</time>
      </trkpt>
      <trkpt lat="42.869648780" lon="-0.835494030">
        <ele>1210.44</ele>
        <time>2014-08-14T13:07:40Z</time>
      </trkpt>
      <trkpt lat="42.869485760" lon="-0.835677000">
        <ele>1209.48</ele>
        <time>2014-08-14T13:07:53Z</time>
      </trkpt>
      <trkpt lat="42.869528760" lon="-0.835672730">
        <ele>1209.48</ele>
        <time>2014-08-14T13:08:09Z</time>
      </trkpt>
      <trkpt lat="42.869485420" lon="-0.835783620">
        <ele>1210.44</ele>
        <time>2014-08-14T13:08:24Z</time>
      </trkpt>
      <trkpt lat="42.869537810" lon="-0.835792930">
        <ele>1210.44</ele>
        <time>2014-08-14T13:08:27Z</time>
      </trkpt>
      <trkpt lat="42.869656580" lon="-0.835863250">
        <ele>1208.51</ele>
        <time>2014-08-14T13:08:31Z</time>
      </trkpt>
      <trkpt lat="42.869818430" lon="-0.835942210">
        <ele>1204.67</ele>
        <time>2014-08-14T13:08:36Z</time>
      </trkpt>
      <trkpt lat="42.869925970" lon="-0.835915380">
        <ele>1201.30</ele>
        <time>2014-08-14T13:08:39Z</time>
      </trkpt>
      <trkpt lat="42.870163680" lon="-0.836105990">
        <ele>1197.94</ele>
        <time>2014-08-14T13:08:42Z</time>
      </trkpt>
      <trkpt lat="42.870246160" lon="-0.836173880">
        <ele>1196.98</ele>
        <time>2014-08-14T13:08:43Z</time>
      </trkpt>
      <trkpt lat="42.870531900" lon="-0.836432880">
        <ele>1194.09</ele>
        <time>2014-08-14T13:08:47Z</time>
      </trkpt>
      <trkpt lat="42.870751090" lon="-0.836688360">
        <ele>1190.73</ele>
        <time>2014-08-14T13:08:51Z</time>
      </trkpt>
      <trkpt lat="42.870816550" lon="-0.836775370">
        <ele>1188.81</ele>
        <time>2014-08-14T13:08:52Z</time>
      </trkpt>
      <trkpt lat="42.870900450" lon="-0.836920710">
        <ele>1185.92</ele>
        <time>2014-08-14T13:08:54Z</time>
      </trkpt>
      <trkpt lat="42.870933980" lon="-0.836977040">
        <ele>1185.44</ele>
        <time>2014-08-14T13:08:55Z</time>
      </trkpt>
      <trkpt lat="42.870274910" lon="-0.837815900">
        <ele>1184.00</ele>
        <time>2014-08-14T13:08:59Z</time>
      </trkpt>
      <trkpt lat="42.870303830" lon="-0.837810110">
        <ele>1180.64</ele>
        <time>2014-08-14T13:09:05Z</time>
      </trkpt>
      <trkpt lat="42.870337530" lon="-0.837854710">
        <ele>1178.23</ele>
        <time>2014-08-14T13:09:08Z</time>
      </trkpt>
      <trkpt lat="42.870390000" lon="-0.837995440">
        <ele>1175.35</ele>
        <time>2014-08-14T13:09:14Z</time>
      </trkpt>
      <trkpt lat="42.870394860" lon="-0.838027210">
        <ele>1173.91</ele>
        <time>2014-08-14T13:09:15Z</time>
      </trkpt>
      <trkpt lat="42.870417820" lon="-0.838081770">
        <ele>1172.95</ele>
        <time>2014-08-14T13:09:17Z</time>
      </trkpt>
      <trkpt lat="42.870474740" lon="-0.838217560">
        <ele>1169.10</ele>
        <time>2014-08-14T13:09:21Z</time>
      </trkpt>
      <trkpt lat="42.870500130" lon="-0.838242030">
        <ele>1168.14</ele>
        <time>2014-08-14T13:09:22Z</time>
      </trkpt>
      <trkpt lat="42.870521510" lon="-0.838363910">
        <ele>1164.77</ele>
        <time>2014-08-14T13:09:26Z</time>
      </trkpt>
      <trkpt lat="42.870525030" lon="-0.838398360">
        <ele>1163.81</ele>
        <time>2014-08-14T13:09:27Z</time>
      </trkpt>
      <trkpt lat="42.870576070" lon="-0.838505810">
        <ele>1161.41</ele>
        <time>2014-08-14T13:09:30Z</time>
      </trkpt>
      <trkpt lat="42.870608600" lon="-0.838627180">
        <ele>1158.53</ele>
        <time>2014-08-14T13:09:34Z</time>
      </trkpt>
      <trkpt lat="42.870641620" lon="-0.838768000">
        <ele>1155.16</ele>
        <time>2014-08-14T13:09:39Z</time>
      </trkpt>
      <trkpt lat="42.870710770" lon="-0.838932870">
        <ele>1152.28</ele>
        <time>2014-08-14T13:09:44Z</time>
      </trkpt>
      <trkpt lat="42.870803060" lon="-0.839137220">
        <ele>1148.43</ele>
        <time>2014-08-14T13:09:49Z</time>
      </trkpt>
      <trkpt lat="42.870829120" lon="-0.839196150">
        <ele>1146.99</ele>
        <time>2014-08-14T13:09:51Z</time>
      </trkpt>
      <trkpt lat="42.870880920" lon="-0.839393620">
        <ele>1143.63</ele>
        <time>2014-08-14T13:09:55Z</time>
      </trkpt>
      <trkpt lat="42.870962230" lon="-0.839582720">
        <ele>1140.26</ele>
        <time>2014-08-14T13:10:00Z</time>
      </trkpt>
      <trkpt lat="42.871013940" lon="-0.839645420">
        <ele>1138.82</ele>
        <time>2014-08-14T13:10:02Z</time>
      </trkpt>
      <trkpt lat="42.871136240" lon="-0.839761840">
        <ele>1135.94</ele>
        <time>2014-08-14T13:10:07Z</time>
      </trkpt>
      <trkpt lat="42.871141850" lon="-0.839859570">
        <ele>1134.97</ele>
        <time>2014-08-14T13:10:14Z</time>
      </trkpt>
      <trkpt lat="42.871140680" lon="-0.839926210">
        <ele>1134.49</ele>
        <time>2014-08-14T13:10:24Z</time>
      </trkpt>
      <trkpt lat="42.871188460" lon="-0.840023940">
        <ele>1134.01</ele>
        <time>2014-08-14T13:10:34Z</time>
      </trkpt>
      <trkpt lat="42.871138420" lon="-0.840159310">
        <ele>1133.53</ele>
        <time>2014-08-14T13:10:48Z</time>
      </trkpt>
      <trkpt lat="42.871164900" lon="-0.840216310">
        <ele>1133.05</ele>
        <time>2014-08-14T13:10:54Z</time>
      </trkpt>
      <trkpt lat="42.871269840" lon="-0.840406490">
        <ele>1130.65</ele>
        <time>2014-08-14T13:10:59Z</time>
      </trkpt>
      <trkpt lat="42.871335310" lon="-0.840512360">
        <ele>1128.24</ele>
        <time>2014-08-14T13:11:03Z</time>
      </trkpt>
      <trkpt lat="42.871459860" lon="-0.840635320">
        <ele>1125.36</ele>
        <time>2014-08-14T13:11:06Z</time>
      </trkpt>
      <trkpt lat="42.871537560" lon="-0.840742940">
        <ele>1123.44</ele>
        <time>2014-08-14T13:11:09Z</time>
      </trkpt>
      <trkpt lat="42.871559440" lon="-0.840759790">
        <ele>1123.44</ele>
        <time>2014-08-14T13:11:10Z</time>
      </trkpt>
      <trkpt lat="42.871679050" lon="-0.840975880">
        <ele>1120.55</ele>
        <time>2014-08-14T13:11:13Z</time>
      </trkpt>
      <trkpt lat="42.871785250" lon="-0.841107300">
        <ele>1118.15</ele>
        <time>2014-08-14T13:11:16Z</time>
      </trkpt>
      <trkpt lat="42.871807630" lon="-0.841169920">
        <ele>1116.71</ele>
        <time>2014-08-14T13:11:20Z</time>
      </trkpt>
      <trkpt lat="42.871762700" lon="-0.841220210">
        <ele>1117.67</ele>
        <time>2014-08-14T13:11:37Z</time>
      </trkpt>
      <trkpt lat="42.871736630" lon="-0.841254740">
        <ele>1117.67</ele>
        <time>2014-08-14T13:11:56Z</time>
      </trkpt>
      <trkpt lat="42.871835870" lon="-0.841392790">
        <ele>1116.71</ele>
        <time>2014-08-14T13:12:02Z</time>
      </trkpt>
      <trkpt lat="42.871908710" lon="-0.841476860">
        <ele>1115.75</ele>
        <time>2014-08-14T13:12:04Z</time>
      </trkpt>
      <trkpt lat="42.871961100" lon="-0.841585740">
        <ele>1115.27</ele>
        <time>2014-08-14T13:12:06Z</time>
      </trkpt>
      <trkpt lat="42.871999240" lon="-0.841671150">
        <ele>1113.34</ele>
        <time>2014-08-14T13:12:09Z</time>
      </trkpt>
      <trkpt lat="42.872020020" lon="-0.841698650">
        <ele>1112.38</ele>
        <time>2014-08-14T13:12:11Z</time>
      </trkpt>
      <trkpt lat="42.872053720" lon="-0.841726390">
        <ele>1110.94</ele>
        <time>2014-08-14T13:12:13Z</time>
      </trkpt>
      <trkpt lat="42.872073250" lon="-0.841753050">
        <ele>1109.50</ele>
        <time>2014-08-14T13:12:15Z</time>
      </trkpt>
      <trkpt lat="42.872084150" lon="-0.841949010">
        <ele>1108.06</ele>
        <time>2014-08-14T13:12:22Z</time>
      </trkpt>
      <trkpt lat="42.872086910" lon="-0.841999720">
        <ele>1106.13</ele>
        <time>2014-08-14T13:12:25Z</time>
      </trkpt>
      <trkpt lat="42.872107360" lon="-0.842042470">
        <ele>1105.17</ele>
        <time>2014-08-14T13:12:27Z</time>
      </trkpt>
      <trkpt lat="42.872195370" lon="-0.842264090">
        <ele>1104.21</ele>
        <time>2014-08-14T13:12:31Z</time>
      </trkpt>
      <trkpt lat="42.872195210" lon="-0.842327540">
        <ele>1103.73</ele>
        <time>2014-08-14T13:12:33Z</time>
      </trkpt>
      <trkpt lat="42.872228900" lon="-0.842444470">
        <ele>1103.73</ele>
        <time>2014-08-14T13:12:37Z</time>
      </trkpt>
      <trkpt lat="42.872270480" lon="-0.842597520">
        <ele>1102.77</ele>
        <time>2014-08-14T13:12:42Z</time>
      </trkpt>
      <trkpt lat="42.872262260" lon="-0.842690560">
        <ele>1103.73</ele>
        <time>2014-08-14T13:12:49Z</time>
      </trkpt>
      <trkpt lat="42.872247510" lon="-0.842725010">
        <ele>1103.73</ele>
        <time>2014-08-14T13:12:51Z</time>
      </trkpt>
      <trkpt lat="42.872240390" lon="-0.842864990">
        <ele>1102.29</ele>
        <time>2014-08-14T13:12:57Z</time>
      </trkpt>
      <trkpt lat="42.872313890" lon="-0.842910420">
        <ele>1102.29</ele>
        <time>2014-08-14T13:13:01Z</time>
      </trkpt>
      <trkpt lat="42.872340130" lon="-0.842952580">
        <ele>1101.81</ele>
        <time>2014-08-14T13:13:03Z</time>
      </trkpt>
      <trkpt lat="42.872473570" lon="-0.843195650">
        <ele>1102.29</ele>
        <time>2014-08-14T13:13:11Z</time>
      </trkpt>
      <trkpt lat="42.872508940" lon="-0.843418110">
        <ele>1101.81</ele>
        <time>2014-08-14T13:13:19Z</time>
      </trkpt>
      <trkpt lat="42.872516150" lon="-0.843470830">
        <ele>1101.33</ele>
        <time>2014-08-14T13:13:21Z</time>
      </trkpt>
      <trkpt lat="42.872520260" lon="-0.843498410">
        <ele>1101.81</ele>
        <time>2014-08-14T13:13:22Z</time>
      </trkpt>
      <trkpt lat="42.872532490" lon="-0.843520120">
        <ele>1102.29</ele>
        <time>2014-08-14T13:13:23Z</time>
      </trkpt>
      <trkpt lat="42.872589740" lon="-0.843630260">
        <ele>1101.33</ele>
        <time>2014-08-14T13:13:28Z</time>
      </trkpt>
      <trkpt lat="42.872599550" lon="-0.843674340">
        <ele>1101.81</ele>
        <time>2014-08-14T13:13:30Z</time>
      </trkpt>
      <trkpt lat="42.872615730" lon="-0.843716420">
        <ele>1101.81</ele>
        <time>2014-08-14T13:13:32Z</time>
      </trkpt>
      <trkpt lat="42.872621850" lon="-0.843801160">
        <ele>1102.77</ele>
        <time>2014-08-14T13:13:36Z</time>
      </trkpt>
      <trkpt lat="42.872655710" lon="-0.843947090">
        <ele>1103.25</ele>
        <time>2014-08-14T13:13:43Z</time>
      </trkpt>
      <trkpt lat="42.872661580" lon="-0.844021020">
        <ele>1104.69</ele>
        <time>2014-08-14T13:13:46Z</time>
      </trkpt>
      <trkpt lat="42.872636770" lon="-0.844115230">
        <ele>1104.69</ele>
        <time>2014-08-14T13:13:52Z</time>
      </trkpt>
      <trkpt lat="42.872581030" lon="-0.844186310">
        <ele>1105.17</ele>
        <time>2014-08-14T13:14:03Z</time>
      </trkpt>
      <trkpt lat="42.872561410" lon="-0.844214140">
        <ele>1104.69</ele>
        <time>2014-08-14T13:14:05Z</time>
      </trkpt>
      <trkpt lat="42.872614220" lon="-0.844302480">
        <ele>1104.21</ele>
        <time>2014-08-14T13:14:12Z</time>
      </trkpt>
      <trkpt lat="42.872600300" lon="-0.844390660">
        <ele>1104.21</ele>
        <time>2014-08-14T13:14:20Z</time>
      </trkpt>
      <trkpt lat="42.872563590" lon="-0.844480680">
        <ele>1104.21</ele>
        <time>2014-08-14T13:14:31Z</time>
      </trkpt>
      <trkpt lat="42.872569460" lon="-0.844526110">
        <ele>1104.69</ele>
        <time>2014-08-14T13:14:33Z</time>
      </trkpt>
      <trkpt lat="42.872684630" lon="-0.844698110">
        <ele>1103.25</ele>
        <time>2014-08-14T13:14:39Z</time>
      </trkpt>
      <trkpt lat="42.872725280" lon="-0.844812780">
        <ele>1103.25</ele>
        <time>2014-08-14T13:14:44Z</time>
      </trkpt>
      <trkpt lat="42.872723520" lon="-0.844832640">
        <ele>1102.77</ele>
        <time>2014-08-14T13:14:45Z</time>
      </trkpt>
      <trkpt lat="42.872662920" lon="-0.844864410">
        <ele>1102.29</ele>
        <time>2014-08-14T13:14:55Z</time>
      </trkpt>
      <trkpt lat="42.872587060" lon="-0.844861810">
        <ele>1102.77</ele>
        <time>2014-08-14T13:15:07Z</time>
      </trkpt>
      <trkpt lat="42.872413220" lon="-0.845085610">
        <ele>1102.77</ele>
        <time>2014-08-14T13:15:26Z</time>
      </trkpt>
      <trkpt lat="42.872394530" lon="-0.845134470">
        <ele>1103.73</ele>
        <time>2014-08-14T13:15:47Z</time>
      </trkpt>
      <trkpt lat="42.872406600" lon="-0.845150820">
        <ele>1103.25</ele>
        <time>2014-08-14T13:16:22Z</time>
      </trkpt>
      <trkpt lat="42.872470640" lon="-0.845211500">
        <ele>1101.81</ele>
        <time>2014-08-14T13:18:24Z</time>
      </trkpt>
      <trkpt lat="42.872477260" lon="-0.845219050">
        <ele>1101.33</ele>
        <time>2014-08-14T13:18:25Z</time>
      </trkpt>
      <trkpt lat="42.872535760" lon="-0.845288530">
        <ele>1101.81</ele>
        <time>2014-08-14T13:18:33Z</time>
      </trkpt>
      <trkpt lat="42.872607090" lon="-0.845366570">
        <ele>1102.29</ele>
        <time>2014-08-14T13:18:39Z</time>
      </trkpt>
      <trkpt lat="42.872587650" lon="-0.845411910">
        <ele>1103.25</ele>
        <time>2014-08-14T13:18:45Z</time>
      </trkpt>
      <trkpt lat="42.872640540" lon="-0.845486680">
        <ele>1103.25</ele>
        <time>2014-08-14T13:18:52Z</time>
      </trkpt>
      <trkpt lat="42.872700220" lon="-0.845491960">
        <ele>1100.37</ele>
        <time>2014-08-14T13:19:19Z</time>
      </trkpt>
      <trkpt lat="42.872812790" lon="-0.845636210">
        <ele>1097.96</ele>
        <time>2014-08-14T13:19:24Z</time>
      </trkpt>
      <trkpt lat="42.872834490" lon="-0.845677450">
        <ele>1098.44</ele>
        <time>2014-08-14T13:19:25Z</time>
      </trkpt>
      <trkpt lat="42.872844800" lon="-0.845745430">
        <ele>1097.48</ele>
        <time>2014-08-14T13:19:27Z</time>
      </trkpt>
      <trkpt lat="42.872851010" lon="-0.845795720">
        <ele>1097.96</ele>
        <time>2014-08-14T13:19:29Z</time>
      </trkpt>
      <trkpt lat="42.872834330" lon="-0.846039800">
        <ele>1097.00</ele>
        <time>2014-08-14T13:19:36Z</time>
      </trkpt>
      <trkpt lat="42.872831390" lon="-0.846078530">
        <ele>1097.48</ele>
        <time>2014-08-14T13:19:37Z</time>
      </trkpt>
      <trkpt lat="42.872832060" lon="-0.846338450">
        <ele>1097.00</ele>
        <time>2014-08-14T13:19:43Z</time>
      </trkpt>
      <trkpt lat="42.872864750" lon="-0.846434840">
        <ele>1097.00</ele>
        <time>2014-08-14T13:19:46Z</time>
      </trkpt>
      <trkpt lat="42.872875570" lon="-0.846655370">
        <ele>1096.04</ele>
        <time>2014-08-14T13:19:51Z</time>
      </trkpt>
      <trkpt lat="42.872917310" lon="-0.846805820">
        <ele>1095.56</ele>
        <time>2014-08-14T13:19:57Z</time>
      </trkpt>
      <trkpt lat="42.872934830" lon="-0.846826020">
        <ele>1095.08</ele>
        <time>2014-08-14T13:19:59Z</time>
      </trkpt>
      <trkpt lat="42.872963410" lon="-0.846891070">
        <ele>1095.08</ele>
        <time>2014-08-14T13:20:02Z</time>
      </trkpt>
      <trkpt lat="42.872894510" lon="-0.847056690">
        <ele>1096.52</ele>
        <time>2014-08-14T13:20:09Z</time>
      </trkpt>
      <trkpt lat="42.872912950" lon="-0.847127350">
        <ele>1097.00</ele>
        <time>2014-08-14T13:20:13Z</time>
      </trkpt>
      <trkpt lat="42.872914370" lon="-0.847240590">
        <ele>1097.48</ele>
        <time>2014-08-14T13:20:19Z</time>
      </trkpt>
      <trkpt lat="42.872859470" lon="-0.847292560">
        <ele>1097.48</ele>
        <time>2014-08-14T13:20:32Z</time>
      </trkpt>
      <trkpt lat="42.872844470" lon="-0.847313680">
        <ele>1097.00</ele>
        <time>2014-08-14T13:20:53Z</time>
      </trkpt>
      <trkpt lat="42.872847230" lon="-0.847330280">
        <ele>1097.00</ele>
        <time>2014-08-14T13:20:55Z</time>
      </trkpt>
      <trkpt lat="42.872907420" lon="-0.847390800">
        <ele>1097.00</ele>
        <time>2014-08-14T13:20:59Z</time>
      </trkpt>
      <trkpt lat="42.872939770" lon="-0.847455170">
        <ele>1095.56</ele>
        <time>2014-08-14T13:21:07Z</time>
      </trkpt>
      <trkpt lat="42.872973470" lon="-0.847505800">
        <ele>1096.04</ele>
        <time>2014-08-14T13:21:14Z</time>
      </trkpt>
      <trkpt lat="42.872997610" lon="-0.847552740">
        <ele>1096.04</ele>
        <time>2014-08-14T13:21:21Z</time>
      </trkpt>
      <trkpt lat="42.873002640" lon="-0.847591290">
        <ele>1095.56</ele>
        <time>2014-08-14T13:21:29Z</time>
      </trkpt>
      <trkpt lat="42.873015790" lon="-0.847666390">
        <ele>1096.04</ele>
        <time>2014-08-14T13:21:37Z</time>
      </trkpt>
      <trkpt lat="42.873026100" lon="-0.847717100">
        <ele>1096.04</ele>
        <time>2014-08-14T13:21:39Z</time>
      </trkpt>
      <trkpt lat="42.873107070" lon="-0.847816930">
        <ele>1096.04</ele>
        <time>2014-08-14T13:21:46Z</time>
      </trkpt>
      <trkpt lat="42.873120820" lon="-0.847866810">
        <ele>1095.56</ele>
        <time>2014-08-14T13:21:50Z</time>
      </trkpt>
      <trkpt lat="42.873112190" lon="-0.848026820">
        <ele>1095.56</ele>
        <time>2014-08-14T13:21:56Z</time>
      </trkpt>
      <trkpt lat="42.873103220" lon="-0.848179700">
        <ele>1096.52</ele>
        <time>2014-08-14T13:22:02Z</time>
      </trkpt>
      <trkpt lat="42.873127530" lon="-0.848229740">
        <ele>1096.52</ele>
        <time>2014-08-14T13:22:05Z</time>
      </trkpt>
      <trkpt lat="42.873160970" lon="-0.848317250">
        <ele>1096.52</ele>
        <time>2014-08-14T13:22:08Z</time>
      </trkpt>
      <trkpt lat="42.873179240" lon="-0.848492430">
        <ele>1096.04</ele>
        <time>2014-08-14T13:22:13Z</time>
      </trkpt>
      <trkpt lat="42.873180750" lon="-0.848511460">
        <ele>1089.31</ele>
        <time>2014-08-14T13:42:28Z</time>
      </trkpt>
      <trkpt lat="42.873164320" lon="-0.848535760">
        <ele>1088.83</ele>
        <time>2014-08-14T13:43:59Z</time>
      </trkpt>
      <trkpt lat="42.873165160" lon="-0.848788650">
        <ele>1087.87</ele>
        <time>2014-08-14T13:44:45Z</time>
      </trkpt>
      <trkpt lat="42.873167170" lon="-0.848857710">
        <ele>1087.39</ele>
        <time>2014-08-14T13:44:48Z</time>
      </trkpt>
      <trkpt lat="42.873183680" lon="-0.848861230">
        <ele>1087.87</ele>
        <time>2014-08-14T13:44:51Z</time>
      </trkpt>
      <trkpt lat="42.873244620" lon="-0.849059550">
        <ele>1085.95</ele>
        <time>2014-08-14T13:44:57Z</time>
      </trkpt>
      <trkpt lat="42.873353420" lon="-0.849352330">
        <ele>1085.47</ele>
        <time>2014-08-14T13:45:03Z</time>
      </trkpt>
      <trkpt lat="42.873505800" lon="-0.849832190">
        <ele>1083.54</ele>
        <time>2014-08-14T13:45:11Z</time>
      </trkpt>
      <trkpt lat="42.873564470" lon="-0.850289010">
        <ele>1082.10</ele>
        <time>2014-08-14T13:45:19Z</time>
      </trkpt>
      <trkpt lat="42.873597000" lon="-0.850488250">
        <ele>1081.62</ele>
        <time>2014-08-14T13:45:25Z</time>
      </trkpt>
      <trkpt lat="42.873604120" lon="-0.850563680">
        <ele>1081.62</ele>
        <time>2014-08-14T13:45:29Z</time>
      </trkpt>
      <trkpt lat="42.873580400" lon="-0.850657140">
        <ele>1081.62</ele>
        <time>2014-08-14T13:45:36Z</time>
      </trkpt>
      <trkpt lat="42.873571180" lon="-0.850668460">
        <ele>1082.10</ele>
        <time>2014-08-14T13:45:37Z</time>
      </trkpt>
      <trkpt lat="42.873570010" lon="-0.850878170">
        <ele>1082.10</ele>
        <time>2014-08-14T13:45:44Z</time>
      </trkpt>
      <trkpt lat="42.873645690" lon="-0.851114120">
        <ele>1083.06</ele>
        <time>2014-08-14T13:45:52Z</time>
      </trkpt>
      <trkpt lat="42.873752480" lon="-0.851431880">
        <ele>1083.54</ele>
        <time>2014-08-14T13:46:01Z</time>
      </trkpt>
      <trkpt lat="42.873759020" lon="-0.851462810">
        <ele>1083.06</ele>
        <time>2014-08-14T13:46:02Z</time>
      </trkpt>
      <trkpt lat="42.873837810" lon="-0.851661130">
        <ele>1083.54</ele>
        <time>2014-08-14T13:46:10Z</time>
      </trkpt>
      <trkpt lat="42.873944260" lon="-0.851880650">
        <ele>1084.50</ele>
        <time>2014-08-14T13:46:19Z</time>
      </trkpt>
      <trkpt lat="42.874024470" lon="-0.852014590">
        <ele>1084.50</ele>
        <time>2014-08-14T13:46:24Z</time>
      </trkpt>
      <trkpt lat="42.874063370" lon="-0.852057670">
        <ele>1084.50</ele>
        <time>2014-08-14T13:46:30Z</time>
      </trkpt>
      <trkpt lat="42.874016510" lon="-0.852092290">
        <ele>1084.02</ele>
        <time>2014-08-14T13:46:38Z</time>
      </trkpt>
      <trkpt lat="42.874041990" lon="-0.852145850">
        <ele>1084.02</ele>
        <time>2014-08-14T13:46:41Z</time>
      </trkpt>
      <trkpt lat="42.874135950" lon="-0.852292870">
        <ele>1083.54</ele>
        <time>2014-08-14T13:46:47Z</time>
      </trkpt>
      <trkpt lat="42.874250030" lon="-0.852352300">
        <ele>1082.58</ele>
        <time>2014-08-14T13:46:51Z</time>
      </trkpt>
      <trkpt lat="42.874367130" lon="-0.852492780">
        <ele>1082.10</ele>
        <time>2014-08-14T13:46:56Z</time>
      </trkpt>
      <trkpt lat="42.874399310" lon="-0.852686230">
        <ele>1081.14</ele>
        <time>2014-08-14T13:47:03Z</time>
      </trkpt>
      <trkpt lat="42.874435440" lon="-0.852670050">
        <ele>1082.10</ele>
        <time>2014-08-14T13:47:16Z</time>
      </trkpt>
      <trkpt lat="42.874459410" lon="-0.852659660">
        <ele>1081.14</ele>
        <time>2014-08-14T13:47:24Z</time>
      </trkpt>
      <trkpt lat="42.874454800" lon="-0.852634100">
        <ele>1081.62</ele>
        <time>2014-08-14T13:47:26Z</time>
      </trkpt>
      <trkpt lat="42.874440220" lon="-0.852416670">
        <ele>1082.10</ele>
        <time>2014-08-14T13:47:34Z</time>
      </trkpt>
      <trkpt lat="42.874416080" lon="-0.852246350">
        <ele>1082.58</ele>
        <time>2014-08-14T13:47:40Z</time>
      </trkpt>
      <trkpt lat="42.874452960" lon="-0.852236460">
        <ele>1082.10</ele>
        <time>2014-08-14T13:47:47Z</time>
      </trkpt>
      <trkpt lat="42.874457480" lon="-0.852256490">
        <ele>1082.10</ele>
        <time>2014-08-14T13:47:55Z</time>
      </trkpt>
      <trkpt lat="42.874454050" lon="-0.852277200">
        <ele>1082.10</ele>
        <time>2014-08-14T13:47:59Z</time>
      </trkpt>
      <trkpt lat="42.874445160" lon="-0.852356490">
        <ele>1082.58</ele>
        <time>2014-08-14T13:48:03Z</time>
      </trkpt>
      <trkpt lat="42.874509370" lon="-0.852563690">
        <ele>1081.62</ele>
        <time>2014-08-14T13:48:13Z</time>
      </trkpt>
      <trkpt lat="42.874615060" lon="-0.852644240">
        <ele>1079.22</ele>
        <time>2014-08-14T13:48:18Z</time>
      </trkpt>
      <trkpt lat="42.874793090" lon="-0.852616660">
        <ele>1077.78</ele>
        <time>2014-08-14T13:48:25Z</time>
      </trkpt>
      <trkpt lat="42.874800890" lon="-0.852615820">
        <ele>1078.26</ele>
        <time>2014-08-14T13:48:31Z</time>
      </trkpt>
      <trkpt lat="42.874813630" lon="-0.852608360">
        <ele>1076.81</ele>
        <time>2014-08-14T13:48:36Z</time>
      </trkpt>
      <trkpt lat="42.874854700" lon="-0.852616410">
        <ele>1077.29</ele>
        <time>2014-08-14T13:48:42Z</time>
      </trkpt>
      <trkpt lat="42.874923520" lon="-0.852609960">
        <ele>1077.78</ele>
        <time>2014-08-14T13:48:47Z</time>
      </trkpt>
      <trkpt lat="42.875088050" lon="-0.852615400">
        <ele>1078.26</ele>
        <time>2014-08-14T13:48:53Z</time>
      </trkpt>
      <trkpt lat="42.875238170" lon="-0.852631580">
        <ele>1079.22</ele>
        <time>2014-08-14T13:48:59Z</time>
      </trkpt>
      <trkpt lat="42.875328280" lon="-0.852744490">
        <ele>1081.62</ele>
        <time>2014-08-14T13:49:05Z</time>
      </trkpt>
      <trkpt lat="42.875425510" lon="-0.852816910">
        <ele>1082.58</ele>
        <time>2014-08-14T13:49:12Z</time>
      </trkpt>
      <trkpt lat="42.875473290" lon="-0.853100720">
        <ele>1081.62</ele>
        <time>2014-08-14T13:49:19Z</time>
      </trkpt>
      <trkpt lat="42.875474960" lon="-0.853183530">
        <ele>1081.14</ele>
        <time>2014-08-14T13:49:21Z</time>
      </trkpt>
      <trkpt lat="42.875541770" lon="-0.853732960">
        <ele>1080.18</ele>
        <time>2014-08-14T13:49:29Z</time>
      </trkpt>
      <trkpt lat="42.875555260" lon="-0.853866740">
        <ele>1079.22</ele>
        <time>2014-08-14T13:49:31Z</time>
      </trkpt>
      <trkpt lat="42.875558530" lon="-0.854131940">
        <ele>1079.22</ele>
        <time>2014-08-14T13:49:35Z</time>
      </trkpt>
      <trkpt lat="42.875487870" lon="-0.854702080">
        <ele>1079.22</ele>
        <time>2014-08-14T13:49:46Z</time>
      </trkpt>
      <trkpt lat="42.875445120" lon="-0.854991420">
        <ele>1079.70</ele>
        <time>2014-08-14T13:49:54Z</time>
      </trkpt>
      <trkpt lat="42.875411010" lon="-0.855474300">
        <ele>1080.18</ele>
        <time>2014-08-14T13:50:04Z</time>
      </trkpt>
      <trkpt lat="42.875426430" lon="-0.855680920">
        <ele>1080.18</ele>
        <time>2014-08-14T13:50:08Z</time>
      </trkpt>
      <trkpt lat="42.875445960" lon="-0.856411740">
        <ele>1079.22</ele>
        <time>2014-08-14T13:50:20Z</time>
      </trkpt>
      <trkpt lat="42.875455010" lon="-0.856533440">
        <ele>1079.22</ele>
        <time>2014-08-14T13:50:22Z</time>
      </trkpt>
      <trkpt lat="42.875629360" lon="-0.857075420">
        <ele>1078.26</ele>
        <time>2014-08-14T13:50:31Z</time>
      </trkpt>
      <trkpt lat="42.875850640" lon="-0.857560220">
        <ele>1077.29</ele>
        <time>2014-08-14T13:50:38Z</time>
      </trkpt>
      <trkpt lat="42.875885510" lon="-0.857635160">
        <ele>1076.33</ele>
        <time>2014-08-14T13:50:39Z</time>
      </trkpt>
      <trkpt lat="42.876124310" lon="-0.858324070">
        <ele>1074.41</ele>
        <time>2014-08-14T13:50:47Z</time>
      </trkpt>
      <trkpt lat="42.876256570" lon="-0.859238450">
        <ele>1071.05</ele>
        <time>2014-08-14T13:50:56Z</time>
      </trkpt>
      <trkpt lat="42.876335200" lon="-0.859910590">
        <ele>1071.05</ele>
        <time>2014-08-14T13:51:03Z</time>
      </trkpt>
      <trkpt lat="42.876394370" lon="-0.860378300">
        <ele>1070.08</ele>
        <time>2014-08-14T13:51:09Z</time>
      </trkpt>
      <trkpt lat="42.876399650" lon="-0.860425830">
        <ele>1069.60</ele>
        <time>2014-08-14T13:51:10Z</time>
      </trkpt>
      <trkpt lat="42.876358080" lon="-0.860443180">
        <ele>1068.64</ele>
        <time>2014-08-14T13:51:44Z</time>
      </trkpt>
      <trkpt lat="42.876173010" lon="-0.860537060">
        <ele>1068.16</ele>
        <time>2014-08-14T13:52:00Z</time>
      </trkpt>
      <trkpt lat="42.876118520" lon="-0.860586850">
        <ele>1068.64</ele>
        <time>2014-08-14T13:52:14Z</time>
      </trkpt>
      <trkpt lat="42.876199160" lon="-0.860668570">
        <ele>1068.64</ele>
        <time>2014-08-14T13:52:18Z</time>
      </trkpt>
      <trkpt lat="42.876308460" lon="-0.861189170">
        <ele>1068.64</ele>
        <time>2014-08-14T13:52:26Z</time>
      </trkpt>
      <trkpt lat="42.876391020" lon="-0.861972880">
        <ele>1066.24</ele>
        <time>2014-08-14T13:52:35Z</time>
      </trkpt>
      <trkpt lat="42.876401500" lon="-0.862791540">
        <ele>1066.72</ele>
        <time>2014-08-14T13:52:44Z</time>
      </trkpt>
      <trkpt lat="42.876398980" lon="-0.863824270">
        <ele>1064.32</ele>
        <time>2014-08-14T13:52:55Z</time>
      </trkpt>
      <trkpt lat="42.876426730" lon="-0.865091360">
        <ele>1062.39</ele>
        <time>2014-08-14T13:53:08Z</time>
      </trkpt>
      <trkpt lat="42.876469730" lon="-0.866069950">
        <ele>1060.95</ele>
        <time>2014-08-14T13:53:19Z</time>
      </trkpt>
      <trkpt lat="42.876596960" lon="-0.866768670">
        <ele>1059.99</ele>
        <time>2014-08-14T13:53:27Z</time>
      </trkpt>
      <trkpt lat="42.876910450" lon="-0.867675090">
        <ele>1059.03</ele>
        <time>2014-08-14T13:53:38Z</time>
      </trkpt>
      <trkpt lat="42.877150590" lon="-0.868649400">
        <ele>1055.67</ele>
        <time>2014-08-14T13:53:48Z</time>
      </trkpt>
      <trkpt lat="42.877487460" lon="-0.869811890">
        <ele>1052.78</ele>
        <time>2014-08-14T13:54:00Z</time>
      </trkpt>
      <trkpt lat="42.877736570" lon="-0.870882510">
        <ele>1052.30</ele>
        <time>2014-08-14T13:54:11Z</time>
      </trkpt>
      <trkpt lat="42.877783420" lon="-0.871585240">
        <ele>1051.34</ele>
        <time>2014-08-14T13:54:18Z</time>
      </trkpt>
      <trkpt lat="42.877656350" lon="-0.872508090">
        <ele>1050.38</ele>
        <time>2014-08-14T13:54:27Z</time>
      </trkpt>
      <trkpt lat="42.877572530" lon="-0.873716430">
        <ele>1047.97</ele>
        <time>2014-08-14T13:54:39Z</time>
      </trkpt>
      <trkpt lat="42.877506150" lon="-0.874653780">
        <ele>1046.05</ele>
        <time>2014-08-14T13:54:48Z</time>
      </trkpt>
      <trkpt lat="42.877358290" lon="-0.875881810">
        <ele>1044.61</ele>
        <time>2014-08-14T13:55:00Z</time>
      </trkpt>
      <trkpt lat="42.877176570" lon="-0.876653860">
        <ele>1044.13</ele>
        <time>2014-08-14T13:55:09Z</time>
      </trkpt>
      <trkpt lat="42.876923190" lon="-0.877430530">
        <ele>1043.65</ele>
        <time>2014-08-14T13:55:19Z</time>
      </trkpt>
      <trkpt lat="42.876688660" lon="-0.878152470">
        <ele>1043.65</ele>
        <time>2014-08-14T13:55:29Z</time>
      </trkpt>
      <trkpt lat="42.876621270" lon="-0.878511130">
        <ele>1045.09</ele>
        <time>2014-08-14T13:55:34Z</time>
      </trkpt>
      <trkpt lat="42.876602160" lon="-0.878643730">
        <ele>1043.65</ele>
        <time>2014-08-14T13:55:36Z</time>
      </trkpt>
      <trkpt lat="42.876519510" lon="-0.878816230">
        <ele>1041.73</ele>
        <time>2014-08-14T13:59:52Z</time>
      </trkpt>
      <trkpt lat="42.876476180" lon="-0.878976830">
        <ele>1041.73</ele>
        <time>2014-08-14T13:59:56Z</time>
      </trkpt>
      <trkpt lat="42.876414990" lon="-0.879228030">
        <ele>1040.28</ele>
        <time>2014-08-14T14:00:01Z</time>
      </trkpt>
      <trkpt lat="42.876316920" lon="-0.879472280">
        <ele>1039.80</ele>
        <time>2014-08-14T14:00:06Z</time>
      </trkpt>
      <trkpt lat="42.876035790" lon="-0.879916020">
        <ele>1036.92</ele>
        <time>2014-08-14T14:00:15Z</time>
      </trkpt>
      <trkpt lat="42.876002940" lon="-0.879952060">
        <ele>1036.44</ele>
        <time>2014-08-14T14:00:16Z</time>
      </trkpt>
      <trkpt lat="42.875833710" lon="-0.880074770">
        <ele>1034.52</ele>
        <time>2014-08-14T14:00:21Z</time>
      </trkpt>
      <trkpt lat="42.875802610" lon="-0.880205530">
        <ele>1034.04</ele>
        <time>2014-08-14T14:00:24Z</time>
      </trkpt>
      <trkpt lat="42.875781490" lon="-0.880536450">
        <ele>1033.55</ele>
        <time>2014-08-14T14:00:33Z</time>
      </trkpt>
      <trkpt lat="42.875805630" lon="-0.880737190">
        <ele>1034.52</ele>
        <time>2014-08-14T14:00:39Z</time>
      </trkpt>
      <trkpt lat="42.875840160" lon="-0.881010690">
        <ele>1034.52</ele>
        <time>2014-08-14T14:00:46Z</time>
      </trkpt>
      <trkpt lat="42.875811410" lon="-0.881321750">
        <ele>1035.48</ele>
        <time>2014-08-14T14:00:53Z</time>
      </trkpt>
      <trkpt lat="42.875702780" lon="-0.881590390">
        <ele>1034.04</ele>
        <time>2014-08-14T14:01:00Z</time>
      </trkpt>
      <trkpt lat="42.875500110" lon="-0.881715440">
        <ele>1033.07</ele>
        <time>2014-08-14T14:01:06Z</time>
      </trkpt>
      <trkpt lat="42.875447640" lon="-0.881733050">
        <ele>1032.11</ele>
        <time>2014-08-14T14:01:07Z</time>
      </trkpt>
      <trkpt lat="42.875418640" lon="-0.881727510">
        <ele>1031.63</ele>
        <time>2014-08-14T14:01:35Z</time>
      </trkpt>
      <trkpt lat="42.875412010" lon="-0.881747040">
        <ele>1032.11</ele>
        <time>2014-08-14T14:01:47Z</time>
      </trkpt>
      <trkpt lat="42.875408490" lon="-0.881754090">
        <ele>1031.63</ele>
        <time>2014-08-14T14:01:49Z</time>
      </trkpt>
      <trkpt lat="42.875374040" lon="-0.881868920">
        <ele>1032.11</ele>
        <time>2014-08-14T14:01:54Z</time>
      </trkpt>
      <trkpt lat="42.875396590" lon="-0.882189690">
        <ele>1032.59</ele>
        <time>2014-08-14T14:02:03Z</time>
      </trkpt>
      <trkpt lat="42.875466160" lon="-0.882345010">
        <ele>1032.59</ele>
        <time>2014-08-14T14:02:08Z</time>
      </trkpt>
      <trkpt lat="42.875506810" lon="-0.882331510">
        <ele>1033.07</ele>
        <time>2014-08-14T14:02:13Z</time>
      </trkpt>
      <trkpt lat="42.875510330" lon="-0.882349540">
        <ele>1032.59</ele>
        <time>2014-08-14T14:02:21Z</time>
      </trkpt>
      <trkpt lat="42.875449480" lon="-0.882465290">
        <ele>1032.11</ele>
        <time>2014-08-14T14:02:26Z</time>
      </trkpt>
      <trkpt lat="42.875341610" lon="-0.882662350">
        <ele>1031.63</ele>
        <time>2014-08-14T14:02:35Z</time>
      </trkpt>
      <trkpt lat="42.875323000" lon="-0.882691520">
        <ele>1032.11</ele>
        <time>2014-08-14T14:02:59Z</time>
      </trkpt>
      <trkpt lat="42.875353510" lon="-0.882677770">
        <ele>1031.63</ele>
        <time>2014-08-14T14:03:11Z</time>
      </trkpt>
      <trkpt lat="42.875355100" lon="-0.882729400">
        <ele>1031.63</ele>
        <time>2014-08-14T14:03:14Z</time>
      </trkpt>
      <trkpt lat="42.875235410" lon="-0.882955300">
        <ele>1031.63</ele>
        <time>2014-08-14T14:03:22Z</time>
      </trkpt>
      <trkpt lat="42.875013620" lon="-0.883190580">
        <ele>1030.67</ele>
        <time>2014-08-14T14:03:31Z</time>
      </trkpt>
      <trkpt lat="42.874749170" lon="-0.883329630">
        <ele>1030.19</ele>
        <time>2014-08-14T14:03:40Z</time>
      </trkpt>
      <trkpt lat="42.874476010" lon="-0.883435910">
        <ele>1031.15</ele>
        <time>2014-08-14T14:03:49Z</time>
      </trkpt>
      <trkpt lat="42.874306520" lon="-0.883475230">
        <ele>1031.63</ele>
        <time>2014-08-14T14:03:56Z</time>
      </trkpt>
      <trkpt lat="42.874080300" lon="-0.883494840">
        <ele>1031.63</ele>
        <time>2014-08-14T14:04:04Z</time>
      </trkpt>
      <trkpt lat="42.873930680" lon="-0.883541360">
        <ele>1032.11</ele>
        <time>2014-08-14T14:04:10Z</time>
      </trkpt>
      <trkpt lat="42.873785920" lon="-0.883573460">
        <ele>1032.11</ele>
        <time>2014-08-14T14:04:16Z</time>
      </trkpt>
      <trkpt lat="42.873676710" lon="-0.883603220">
        <ele>1032.11</ele>
        <time>2014-08-14T14:04:21Z</time>
      </trkpt>
      <trkpt lat="42.873571770" lon="-0.883670520">
        <ele>1032.59</ele>
        <time>2014-08-14T14:04:27Z</time>
      </trkpt>
      <trkpt lat="42.873518630" lon="-0.883734310">
        <ele>1033.55</ele>
        <time>2014-08-14T14:04:32Z</time>
      </trkpt>
      <trkpt lat="42.873435230" lon="-0.883832970">
        <ele>1034.04</ele>
        <time>2014-08-14T14:04:39Z</time>
      </trkpt>
      <trkpt lat="42.873360710" lon="-0.883905220">
        <ele>1034.04</ele>
        <time>2014-08-14T14:04:47Z</time>
      </trkpt>
      <trkpt lat="42.873338410" lon="-0.883926420">
        <ele>1033.07</ele>
        <time>2014-08-14T14:04:55Z</time>
      </trkpt>
      <trkpt lat="42.873316710" lon="-0.883907310">
        <ele>1031.15</ele>
        <time>2014-08-14T14:05:00Z</time>
      </trkpt>
      <trkpt lat="42.873305890" lon="-0.883907900">
        <ele>1034.04</ele>
        <time>2014-08-14T14:05:02Z</time>
      </trkpt>
      <trkpt lat="42.873300280" lon="-0.883912090">
        <ele>1034.52</ele>
        <time>2014-08-14T14:05:03Z</time>
      </trkpt>
      <trkpt lat="42.873268840" lon="-0.883912590">
        <ele>1034.04</ele>
        <time>2014-08-14T14:05:08Z</time>
      </trkpt>
      <trkpt lat="42.873238750" lon="-0.883933630">
        <ele>1022.98</ele>
        <time>2014-08-14T14:05:12Z</time>
      </trkpt>
      <trkpt lat="42.873232220" lon="-0.883949390">
        <ele>1041.25</ele>
        <time>2014-08-14T14:05:13Z</time>
      </trkpt>
      <trkpt lat="42.873227440" lon="-0.883967240">
        <ele>1040.76</ele>
        <time>2014-08-14T14:05:14Z</time>
      </trkpt>
      <trkpt lat="42.873223080" lon="-0.883982750">
        <ele>1033.55</ele>
        <time>2014-08-14T14:05:15Z</time>
      </trkpt>
      <trkpt lat="42.873218890" lon="-0.883996410">
        <ele>1033.55</ele>
        <time>2014-08-14T14:05:16Z</time>
      </trkpt>
      <trkpt lat="42.873191650" lon="-0.884010240">
        <ele>1033.07</ele>
        <time>2014-08-14T14:05:21Z</time>
      </trkpt>
      <trkpt lat="42.873332970" lon="-0.884003200">
        <ele>1032.59</ele>
        <time>2014-08-14T14:06:15Z</time>
      </trkpt>
      <trkpt lat="42.873311680" lon="-0.884025920">
        <ele>1032.59</ele>
        <time>2014-08-14T14:06:25Z</time>
      </trkpt>
      <trkpt lat="42.873252750" lon="-0.884089620">
        <ele>1031.15</ele>
        <time>2014-08-14T14:06:29Z</time>
      </trkpt>
      <trkpt lat="42.873136580" lon="-0.884268740">
        <ele>1029.23</ele>
        <time>2014-08-14T14:06:36Z</time>
      </trkpt>
      <trkpt lat="42.873132810" lon="-0.884297740">
        <ele>1028.27</ele>
        <time>2014-08-14T14:06:38Z</time>
      </trkpt>
      <trkpt lat="42.873115960" lon="-0.884397570">
        <ele>1027.31</ele>
        <time>2014-08-14T14:06:45Z</time>
      </trkpt>
      <trkpt lat="42.873107660" lon="-0.884408550">
        <ele>1026.83</ele>
        <time>2014-08-14T14:06:47Z</time>
      </trkpt>
      <trkpt lat="42.873025770" lon="-0.884532270">
        <ele>1025.38</ele>
        <time>2014-08-14T14:06:56Z</time>
      </trkpt>
      <trkpt lat="42.872977150" lon="-0.884635110">
        <ele>1023.94</ele>
        <time>2014-08-14T14:07:03Z</time>
      </trkpt>
      <trkpt lat="42.872968020" lon="-0.884665540">
        <ele>1023.94</ele>
        <time>2014-08-14T14:07:06Z</time>
      </trkpt>
      <trkpt lat="42.872959300" lon="-0.884766790">
        <ele>1022.50</ele>
        <time>2014-08-14T14:07:13Z</time>
      </trkpt>
      <trkpt lat="42.872971620" lon="-0.884823790">
        <ele>1021.54</ele>
        <time>2014-08-14T14:07:17Z</time>
      </trkpt>
      <trkpt lat="42.872996350" lon="-0.884912220">
        <ele>1018.65</ele>
        <time>2014-08-14T14:07:27Z</time>
      </trkpt>
      <trkpt lat="42.872947400" lon="-0.885014730">
        <ele>1017.21</ele>
        <time>2014-08-14T14:07:37Z</time>
      </trkpt>
      <trkpt lat="42.872895930" lon="-0.885036520">
        <ele>1016.73</ele>
        <time>2014-08-14T14:07:44Z</time>
      </trkpt>
      <trkpt lat="42.872896190" lon="-0.885084720">
        <ele>1016.25</ele>
        <time>2014-08-14T14:07:48Z</time>
      </trkpt>
      <trkpt lat="42.872906330" lon="-0.885137520">
        <ele>1015.77</ele>
        <time>2014-08-14T14:07:55Z</time>
      </trkpt>
      <trkpt lat="42.872913950" lon="-0.885168120">
        <ele>1014.81</ele>
        <time>2014-08-14T14:08:17Z</time>
      </trkpt>
      <trkpt lat="42.872879510" lon="-0.885163340">
        <ele>1015.77</ele>
        <time>2014-08-14T14:08:33Z</time>
      </trkpt>
      <trkpt lat="42.872817730" lon="-0.885221510">
        <ele>1014.33</ele>
        <time>2014-08-14T14:08:41Z</time>
      </trkpt>
      <trkpt lat="42.872796860" lon="-0.885257050">
        <ele>1012.41</ele>
        <time>2014-08-14T14:08:52Z</time>
      </trkpt>
      <trkpt lat="42.872765600" lon="-0.885338190">
        <ele>1012.41</ele>
        <time>2014-08-14T14:09:02Z</time>
      </trkpt>
      <trkpt lat="42.872762580" lon="-0.885461990">
        <ele>1010.00</ele>
        <time>2014-08-14T14:09:10Z</time>
      </trkpt>
      <trkpt lat="42.872784040" lon="-0.885540020">
        <ele>1006.64</ele>
        <time>2014-08-14T14:09:17Z</time>
      </trkpt>
      <trkpt lat="42.872762490" lon="-0.885625270">
        <ele>1005.20</ele>
        <time>2014-08-14T14:09:24Z</time>
      </trkpt>
      <trkpt lat="42.872750760" lon="-0.885645970">
        <ele>1005.20</ele>
        <time>2014-08-14T14:09:25Z</time>
      </trkpt>
      <trkpt lat="42.872669450" lon="-0.885809590">
        <ele>1002.31</ele>
        <time>2014-08-14T14:09:35Z</time>
      </trkpt>
      <trkpt lat="42.872609360" lon="-0.885918470">
        <ele>999.91</ele>
        <time>2014-08-14T14:09:44Z</time>
      </trkpt>
      <trkpt lat="42.872600970" lon="-0.886028860">
        <ele>999.91</ele>
        <time>2014-08-14T14:09:51Z</time>
      </trkpt>
      <trkpt lat="42.872555210" lon="-0.886102780">
        <ele>997.51</ele>
        <time>2014-08-14T14:10:01Z</time>
      </trkpt>
      <trkpt lat="42.872548670" lon="-0.886190380">
        <ele>995.10</ele>
        <time>2014-08-14T14:10:10Z</time>
      </trkpt>
      <trkpt lat="42.872509280" lon="-0.886241420">
        <ele>992.70</ele>
        <time>2014-08-14T14:10:20Z</time>
      </trkpt>
      <trkpt lat="42.872465860" lon="-0.886302020">
        <ele>991.74</ele>
        <time>2014-08-14T14:10:27Z</time>
      </trkpt>
      <trkpt lat="42.872436770" lon="-0.886373690">
        <ele>990.78</ele>
        <time>2014-08-14T14:10:35Z</time>
      </trkpt>
      <trkpt lat="42.872398800" lon="-0.886430520">
        <ele>989.33</ele>
        <time>2014-08-14T14:10:47Z</time>
      </trkpt>
      <trkpt lat="42.872352870" lon="-0.886490280">
        <ele>988.37</ele>
        <time>2014-08-14T14:10:57Z</time>
      </trkpt>
      <trkpt lat="42.872347760" lon="-0.886526820">
        <ele>986.93</ele>
        <time>2014-08-14T14:11:07Z</time>
      </trkpt>
      <trkpt lat="42.872321440" lon="-0.886593130">
        <ele>985.49</ele>
        <time>2014-08-14T14:11:15Z</time>
      </trkpt>
      <trkpt lat="42.872292600" lon="-0.886644090">
        <ele>984.53</ele>
        <time>2014-08-14T14:11:23Z</time>
      </trkpt>
      <trkpt lat="42.872285140" lon="-0.886690940">
        <ele>983.09</ele>
        <time>2014-08-14T14:11:33Z</time>
      </trkpt>
      <trkpt lat="42.872282630" lon="-0.886746100">
        <ele>981.16</ele>
        <time>2014-08-14T14:11:41Z</time>
      </trkpt>
      <trkpt lat="42.872236530" lon="-0.886840140">
        <ele>978.76</ele>
        <time>2014-08-14T14:11:49Z</time>
      </trkpt>
      <trkpt lat="42.872227980" lon="-0.886854220">
        <ele>979.72</ele>
        <time>2014-08-14T14:12:03Z</time>
      </trkpt>
      <trkpt lat="42.872225380" lon="-0.886863020">
        <ele>978.76</ele>
        <time>2014-08-14T14:12:15Z</time>
      </trkpt>
      <trkpt lat="42.872193780" lon="-0.886894540">
        <ele>976.36</ele>
        <time>2014-08-14T14:12:26Z</time>
      </trkpt>
      <trkpt lat="42.872155980" lon="-0.886837710">
        <ele>977.80</ele>
        <time>2014-08-14T14:13:15Z</time>
      </trkpt>
      <trkpt lat="42.872134270" lon="-0.886844330">
        <ele>974.43</ele>
        <time>2014-08-14T14:14:47Z</time>
      </trkpt>
      <trkpt lat="42.872090180" lon="-0.886868890">
        <ele>972.03</ele>
        <time>2014-08-14T14:14:54Z</time>
      </trkpt>
      <trkpt lat="42.872057160" lon="-0.886929660">
        <ele>971.55</ele>
        <time>2014-08-14T14:15:00Z</time>
      </trkpt>
      <trkpt lat="42.872045250" lon="-0.886956400">
        <ele>971.55</ele>
        <time>2014-08-14T14:15:24Z</time>
      </trkpt>
      <trkpt lat="42.872047770" lon="-0.886974920">
        <ele>972.99</ele>
        <time>2014-08-14T14:31:09Z</time>
      </trkpt>
      <trkpt lat="42.872069980" lon="-0.887011130">
        <ele>972.03</ele>
        <time>2014-08-14T14:31:14Z</time>
      </trkpt>
      <trkpt lat="42.872084570" lon="-0.887047930">
        <ele>972.51</ele>
        <time>2014-08-14T14:31:21Z</time>
      </trkpt>
      <trkpt lat="42.872054980" lon="-0.887086320">
        <ele>972.51</ele>
        <time>2014-08-14T14:31:35Z</time>
      </trkpt>
      <trkpt lat="42.872039640" lon="-0.887142890">
        <ele>973.47</ele>
        <time>2014-08-14T14:31:44Z</time>
      </trkpt>
      <trkpt lat="42.872010640" lon="-0.887178520">
        <ele>973.47</ele>
        <time>2014-08-14T14:31:52Z</time>
      </trkpt>
      <trkpt lat="42.871975600" lon="-0.887224790">
        <ele>971.55</ele>
        <time>2014-08-14T14:31:58Z</time>
      </trkpt>
      <trkpt lat="42.871947100" lon="-0.887263010">
        <ele>971.07</ele>
        <time>2014-08-14T14:33:02Z</time>
      </trkpt>
      <trkpt lat="42.871844090" lon="-0.887421430">
        <ele>970.11</ele>
        <time>2014-08-14T14:33:08Z</time>
      </trkpt>
      <trkpt lat="42.871819700" lon="-0.887452350">
        <ele>969.63</ele>
        <time>2014-08-14T14:33:09Z</time>
      </trkpt>
      <trkpt lat="42.871724560" lon="-0.887698280">
        <ele>968.67</ele>
        <time>2014-08-14T14:33:14Z</time>
      </trkpt>
      <trkpt lat="42.871668990" lon="-0.887789220">
        <ele>968.18</ele>
        <time>2014-08-14T14:33:16Z</time>
      </trkpt>
      <trkpt lat="42.871590540" lon="-0.888026350">
        <ele>968.18</ele>
        <time>2014-08-14T14:33:21Z</time>
      </trkpt>
      <trkpt lat="42.871595480" lon="-0.888126680">
        <ele>968.67</ele>
        <time>2014-08-14T14:33:23Z</time>
      </trkpt>
      <trkpt lat="42.871515600" lon="-0.888263890">
        <ele>968.67</ele>
        <time>2014-08-14T14:33:30Z</time>
      </trkpt>
      <trkpt lat="42.871507970" lon="-0.888289040">
        <ele>968.67</ele>
        <time>2014-08-14T14:33:31Z</time>
      </trkpt>
      <trkpt lat="42.871480650" lon="-0.888366740">
        <ele>968.67</ele>
        <time>2014-08-14T14:33:34Z</time>
      </trkpt>
      <trkpt lat="42.871445860" lon="-0.888453570">
        <ele>969.15</ele>
        <time>2014-08-14T14:33:38Z</time>
      </trkpt>
      <trkpt lat="42.871403030" lon="-0.888523310">
        <ele>969.15</ele>
        <time>2014-08-14T14:33:42Z</time>
      </trkpt>
      <trkpt lat="42.871303040" lon="-0.888762450">
        <ele>969.63</ele>
        <time>2014-08-14T14:33:49Z</time>
      </trkpt>
      <trkpt lat="42.871251490" lon="-0.889006360">
        <ele>969.15</ele>
        <time>2014-08-14T14:33:56Z</time>
      </trkpt>
      <trkpt lat="42.871244030" lon="-0.889041730">
        <ele>968.67</ele>
        <time>2014-08-14T14:33:57Z</time>
      </trkpt>
      <trkpt lat="42.871225090" lon="-0.889320760">
        <ele>968.18</ele>
        <time>2014-08-14T14:34:03Z</time>
      </trkpt>
      <trkpt lat="42.871077650" lon="-0.889649420">
        <ele>967.70</ele>
        <time>2014-08-14T14:34:10Z</time>
      </trkpt>
      <trkpt lat="42.870966340" lon="-0.889851590">
        <ele>968.18</ele>
        <time>2014-08-14T14:34:17Z</time>
      </trkpt>
      <trkpt lat="42.870906820" lon="-0.889960050">
        <ele>966.74</ele>
        <time>2014-08-14T14:34:20Z</time>
      </trkpt>
      <trkpt lat="42.870778580" lon="-0.890209410">
        <ele>967.22</ele>
        <time>2014-08-14T14:34:27Z</time>
      </trkpt>
      <trkpt lat="42.870631730" lon="-0.890518710">
        <ele>966.26</ele>
        <time>2014-08-14T14:34:34Z</time>
      </trkpt>
      <trkpt lat="42.870581100" lon="-0.890615940">
        <ele>966.26</ele>
        <time>2014-08-14T14:34:36Z</time>
      </trkpt>
      <trkpt lat="42.870455790" lon="-0.891064200">
        <ele>968.18</ele>
        <time>2014-08-14T14:34:44Z</time>
      </trkpt>
      <trkpt lat="42.870406510" lon="-0.891208620">
        <ele>968.18</ele>
        <time>2014-08-14T14:34:49Z</time>
      </trkpt>
      <trkpt lat="42.870292180" lon="-0.891467370">
        <ele>968.67</ele>
        <time>2014-08-14T14:34:58Z</time>
      </trkpt>
      <trkpt lat="42.870159660" lon="-0.891650350">
        <ele>968.18</ele>
        <time>2014-08-14T14:35:05Z</time>
      </trkpt>
      <trkpt lat="42.870032760" lon="-0.891812540">
        <ele>968.67</ele>
        <time>2014-08-14T14:35:12Z</time>
      </trkpt>
      <trkpt lat="42.869930420" lon="-0.891986460">
        <ele>967.22</ele>
        <time>2014-08-14T14:35:19Z</time>
      </trkpt>
      <trkpt lat="42.869910050" lon="-0.892022500">
        <ele>965.78</ele>
        <time>2014-08-14T14:35:20Z</time>
      </trkpt>
      <trkpt lat="42.869779710" lon="-0.892287200">
        <ele>964.34</ele>
        <time>2014-08-14T14:35:27Z</time>
      </trkpt>
      <trkpt lat="42.869646100" lon="-0.892629190">
        <ele>961.94</ele>
        <time>2014-08-14T14:35:37Z</time>
      </trkpt>
      <trkpt lat="42.869625400" lon="-0.892725240">
        <ele>960.49</ele>
        <time>2014-08-14T14:35:40Z</time>
      </trkpt>
      <trkpt lat="42.869608380" lon="-0.892938230">
        <ele>959.05</ele>
        <time>2014-08-14T14:35:44Z</time>
      </trkpt>
      <trkpt lat="42.869611400" lon="-0.893002430">
        <ele>958.57</ele>
        <time>2014-08-14T14:35:45Z</time>
      </trkpt>
      <trkpt lat="42.869621960" lon="-0.893069910">
        <ele>957.61</ele>
        <time>2014-08-14T14:35:46Z</time>
      </trkpt>
      <trkpt lat="42.869667640" lon="-0.893231260">
        <ele>955.69</ele>
        <time>2014-08-14T14:35:49Z</time>
      </trkpt>
      <trkpt lat="42.869694720" lon="-0.893325390">
        <ele>955.21</ele>
        <time>2014-08-14T14:35:50Z</time>
      </trkpt>
      <trkpt lat="42.869724390" lon="-0.893676420">
        <ele>954.73</ele>
        <time>2014-08-14T14:35:55Z</time>
      </trkpt>
      <trkpt lat="42.869723130" lon="-0.893780440">
        <ele>954.25</ele>
        <time>2014-08-14T14:35:56Z</time>
      </trkpt>
      <trkpt lat="42.869653900" lon="-0.894019070">
        <ele>953.28</ele>
        <time>2014-08-14T14:35:57Z</time>
      </trkpt>
      <trkpt lat="42.869591200" lon="-0.894224850">
        <ele>953.28</ele>
        <time>2014-08-14T14:35:59Z</time>
      </trkpt>
      <trkpt lat="42.869531860" lon="-0.894335660">
        <ele>952.32</ele>
        <time>2014-08-14T14:36:00Z</time>
      </trkpt>
      <trkpt lat="42.869246700" lon="-0.894692470">
        <ele>950.40</ele>
        <time>2014-08-14T14:36:04Z</time>
      </trkpt>
      <trkpt lat="42.869035480" lon="-0.894913420">
        <ele>949.44</ele>
        <time>2014-08-14T14:36:07Z</time>
      </trkpt>
      <trkpt lat="42.868723090" lon="-0.895331930">
        <ele>947.04</ele>
        <time>2014-08-14T14:36:12Z</time>
      </trkpt>
      <trkpt lat="42.868463250" lon="-0.895789920">
        <ele>946.07</ele>
        <time>2014-08-14T14:36:17Z</time>
      </trkpt>
      <trkpt lat="42.868274910" lon="-0.896078930">
        <ele>945.59</ele>
        <time>2014-08-14T14:36:21Z</time>
      </trkpt>
      <trkpt lat="42.867868800" lon="-0.896371620">
        <ele>944.15</ele>
        <time>2014-08-14T14:36:27Z</time>
      </trkpt>
      <trkpt lat="42.867569820" lon="-0.896512440">
        <ele>944.63</ele>
        <time>2014-08-14T14:36:32Z</time>
      </trkpt>
      <trkpt lat="42.867279140" lon="-0.896443120">
        <ele>939.83</ele>
        <time>2014-08-14T14:36:37Z</time>
      </trkpt>
      <trkpt lat="42.867145780" lon="-0.896402050">
        <ele>937.90</ele>
        <time>2014-08-14T14:36:39Z</time>
      </trkpt>
      <trkpt lat="42.866870180" lon="-0.896421580">
        <ele>934.54</ele>
        <time>2014-08-14T14:36:43Z</time>
      </trkpt>
      <trkpt lat="42.866575730" lon="-0.896379920">
        <ele>930.21</ele>
        <time>2014-08-14T14:36:46Z</time>
      </trkpt>
      <trkpt lat="42.866142720" lon="-0.896409930">
        <ele>926.37</ele>
        <time>2014-08-14T14:36:50Z</time>
      </trkpt>
      <trkpt lat="42.866046330" lon="-0.896420820">
        <ele>924.93</ele>
        <time>2014-08-14T14:36:51Z</time>
      </trkpt>
      <trkpt lat="42.865725720" lon="-0.896283110">
        <ele>923.00</ele>
        <time>2014-08-14T14:36:55Z</time>
      </trkpt>
      <trkpt lat="42.865613740" lon="-0.896140700">
        <ele>923.00</ele>
        <time>2014-08-14T14:36:57Z</time>
      </trkpt>
      <trkpt lat="42.865484990" lon="-0.895995690">
        <ele>921.08</ele>
        <time>2014-08-14T14:36:59Z</time>
      </trkpt>
      <trkpt lat="42.865368480" lon="-0.895909020">
        <ele>920.12</ele>
        <time>2014-08-14T14:37:01Z</time>
      </trkpt>
      <trkpt lat="42.865192710" lon="-0.895840710">
        <ele>917.24</ele>
        <time>2014-08-14T14:37:03Z</time>
      </trkpt>
      <trkpt lat="42.865020720" lon="-0.895808360">
        <ele>915.31</ele>
        <time>2014-08-14T14:37:06Z</time>
      </trkpt>
      <trkpt lat="42.864798850" lon="-0.895907930">
        <ele>912.43</ele>
        <time>2014-08-14T14:37:09Z</time>
      </trkpt>
      <trkpt lat="42.864698850" lon="-0.896031060">
        <ele>910.03</ele>
        <time>2014-08-14T14:37:11Z</time>
      </trkpt>
      <trkpt lat="42.864504390" lon="-0.896214210">
        <ele>907.14</ele>
        <time>2014-08-14T14:37:16Z</time>
      </trkpt>
      <trkpt lat="42.864481010" lon="-0.896247820">
        <ele>905.70</ele>
        <time>2014-08-14T14:37:19Z</time>
      </trkpt>
      <trkpt lat="42.864510340" lon="-0.896313200">
        <ele>905.70</ele>
        <time>2014-08-14T14:37:32Z</time>
      </trkpt>
      <trkpt lat="42.864560890" lon="-0.896351170">
        <ele>906.66</ele>
        <time>2014-08-14T14:37:47Z</time>
      </trkpt>
      <trkpt lat="42.864654260" lon="-0.896420240">
        <ele>907.62</ele>
        <time>2014-08-14T14:37:59Z</time>
      </trkpt>
      <trkpt lat="42.864615700" lon="-0.896497010">
        <ele>906.66</ele>
        <time>2014-08-14T14:38:02Z</time>
      </trkpt>
      <trkpt lat="42.864446050" lon="-0.896774290">
        <ele>905.70</ele>
        <time>2014-08-14T14:38:08Z</time>
      </trkpt>
      <trkpt lat="42.864401550" lon="-0.896807900">
        <ele>905.22</ele>
        <time>2014-08-14T14:38:09Z</time>
      </trkpt>
      <trkpt lat="42.864081270" lon="-0.897069580">
        <ele>904.74</ele>
        <time>2014-08-14T14:38:15Z</time>
      </trkpt>
      <trkpt lat="42.863893940" lon="-0.897355570">
        <ele>905.22</ele>
        <time>2014-08-14T14:38:19Z</time>
      </trkpt>
      <trkpt lat="42.863668800" lon="-0.898022860">
        <ele>903.78</ele>
        <time>2014-08-14T14:38:27Z</time>
      </trkpt>
      <trkpt lat="42.863386580" lon="-0.898640440">
        <ele>903.30</ele>
        <time>2014-08-14T14:38:34Z</time>
      </trkpt>
      <trkpt lat="42.863019540" lon="-0.899048890">
        <ele>902.33</ele>
        <time>2014-08-14T14:38:40Z</time>
      </trkpt>
      <trkpt lat="42.862955500" lon="-0.899120720">
        <ele>901.85</ele>
        <time>2014-08-14T14:38:41Z</time>
      </trkpt>
      <trkpt lat="42.862795150" lon="-0.899371840">
        <ele>899.93</ele>
        <time>2014-08-14T14:38:44Z</time>
      </trkpt>
      <trkpt lat="42.862753080" lon="-0.899468570">
        <ele>898.97</ele>
        <time>2014-08-14T14:38:45Z</time>
      </trkpt>
      <trkpt lat="42.862614780" lon="-0.899935860">
        <ele>894.16</ele>
        <time>2014-08-14T14:38:49Z</time>
      </trkpt>
      <trkpt lat="42.862475300" lon="-0.900327710">
        <ele>890.80</ele>
        <time>2014-08-14T14:38:52Z</time>
      </trkpt>
      <trkpt lat="42.862313450" lon="-0.900700710">
        <ele>887.43</ele>
        <time>2014-08-14T14:38:55Z</time>
      </trkpt>
      <trkpt lat="42.862258210" lon="-0.900816040">
        <ele>885.99</ele>
        <time>2014-08-14T14:38:56Z</time>
      </trkpt>
      <trkpt lat="42.861893600" lon="-0.901386260">
        <ele>881.67</ele>
        <time>2014-08-14T14:39:01Z</time>
      </trkpt>
      <trkpt lat="42.861824610" lon="-0.901501680">
        <ele>881.19</ele>
        <time>2014-08-14T14:39:02Z</time>
      </trkpt>
      <trkpt lat="42.861689500" lon="-0.901678710">
        <ele>880.22</ele>
        <time>2014-08-14T14:39:04Z</time>
      </trkpt>
      <trkpt lat="42.861625210" lon="-0.901777110">
        <ele>879.26</ele>
        <time>2014-08-14T14:39:05Z</time>
      </trkpt>
      <trkpt lat="42.861565440" lon="-0.902061170">
        <ele>877.34</ele>
        <time>2014-08-14T14:39:08Z</time>
      </trkpt>
      <trkpt lat="42.861563010" lon="-0.902731560">
        <ele>874.94</ele>
        <time>2014-08-14T14:39:13Z</time>
      </trkpt>
      <trkpt lat="42.861528480" lon="-0.902986120">
        <ele>873.98</ele>
        <time>2014-08-14T14:39:15Z</time>
      </trkpt>
      <trkpt lat="42.861465530" lon="-0.903348800">
        <ele>873.01</ele>
        <time>2014-08-14T14:39:18Z</time>
      </trkpt>
      <trkpt lat="42.861275930" lon="-0.903916010">
        <ele>873.50</ele>
        <time>2014-08-14T14:39:24Z</time>
      </trkpt>
      <trkpt lat="42.861172330" lon="-0.904457900">
        <ele>874.46</ele>
        <time>2014-08-14T14:39:30Z</time>
      </trkpt>
      <trkpt lat="42.861108710" lon="-0.905075050">
        <ele>873.01</ele>
        <time>2014-08-14T14:39:38Z</time>
      </trkpt>
      <trkpt lat="42.861074010" lon="-0.905747450">
        <ele>871.57</ele>
        <time>2014-08-14T14:39:45Z</time>
      </trkpt>
      <trkpt lat="42.861052140" lon="-0.906078030">
        <ele>870.13</ele>
        <time>2014-08-14T14:39:48Z</time>
      </trkpt>
      <trkpt lat="42.861032100" lon="-0.906318850">
        <ele>868.69</ele>
        <time>2014-08-14T14:39:50Z</time>
      </trkpt>
      <trkpt lat="42.860969160" lon="-0.907309840">
        <ele>865.32</ele>
        <time>2014-08-14T14:39:58Z</time>
      </trkpt>
      <trkpt lat="42.860964130" lon="-0.907435650">
        <ele>865.32</ele>
        <time>2014-08-14T14:39:59Z</time>
      </trkpt>
      <trkpt lat="42.860953230" lon="-0.907816190">
        <ele>861.48</ele>
        <time>2014-08-14T14:40:02Z</time>
      </trkpt>
      <trkpt lat="42.860949120" lon="-0.908354140">
        <ele>859.08</ele>
        <time>2014-08-14T14:40:06Z</time>
      </trkpt>
      <trkpt lat="42.860927750" lon="-0.908757900">
        <ele>857.63</ele>
        <time>2014-08-14T14:40:09Z</time>
      </trkpt>
      <trkpt lat="42.860826410" lon="-0.909676380">
        <ele>854.75</ele>
        <time>2014-08-14T14:40:16Z</time>
      </trkpt>
      <trkpt lat="42.860790790" lon="-0.910082570">
        <ele>853.31</ele>
        <time>2014-08-14T14:40:19Z</time>
      </trkpt>
      <trkpt lat="42.860770670" lon="-0.910496640">
        <ele>850.42</ele>
        <time>2014-08-14T14:40:22Z</time>
      </trkpt>
      <trkpt lat="42.860776200" lon="-0.910768040">
        <ele>849.46</ele>
        <time>2014-08-14T14:40:24Z</time>
      </trkpt>
      <trkpt lat="42.860784590" lon="-0.911016320">
        <ele>846.10</ele>
        <time>2014-08-14T14:40:26Z</time>
      </trkpt>
      <trkpt lat="42.860789360" lon="-0.911226200">
        <ele>842.73</ele>
        <time>2014-08-14T14:40:28Z</time>
      </trkpt>
      <trkpt lat="42.860732620" lon="-0.911509000">
        <ele>841.29</ele>
        <time>2014-08-14T14:40:31Z</time>
      </trkpt>
      <trkpt lat="42.860623400" lon="-0.911659710">
        <ele>840.81</ele>
        <time>2014-08-14T14:40:33Z</time>
      </trkpt>
      <trkpt lat="42.860489040" lon="-0.911786860">
        <ele>839.37</ele>
        <time>2014-08-14T14:40:35Z</time>
      </trkpt>
      <trkpt lat="42.859963660" lon="-0.912157180">
        <ele>836.96</ele>
        <time>2014-08-14T14:40:42Z</time>
      </trkpt>
      <trkpt lat="42.859764170" lon="-0.912317520">
        <ele>836.00</ele>
        <time>2014-08-14T14:40:45Z</time>
      </trkpt>
      <trkpt lat="42.859559150" lon="-0.912718680">
        <ele>834.56</ele>
        <time>2014-08-14T14:40:50Z</time>
      </trkpt>
      <trkpt lat="42.859462010" lon="-0.913301890">
        <ele>833.12</ele>
        <time>2014-08-14T14:40:56Z</time>
      </trkpt>
      <trkpt lat="42.859430410" lon="-0.913419570">
        <ele>833.12</ele>
        <time>2014-08-14T14:40:57Z</time>
      </trkpt>
      <trkpt lat="42.859326390" lon="-0.914176130">
        <ele>834.56</ele>
        <time>2014-08-14T14:41:07Z</time>
      </trkpt>
      <trkpt lat="42.859234270" lon="-0.914659840">
        <ele>834.56</ele>
        <time>2014-08-14T14:41:14Z</time>
      </trkpt>
      <trkpt lat="42.859143070" lon="-0.915011630">
        <ele>834.08</ele>
        <time>2014-08-14T14:41:19Z</time>
      </trkpt>
      <trkpt lat="42.859022040" lon="-0.915280360">
        <ele>833.12</ele>
        <time>2014-08-14T14:41:23Z</time>
      </trkpt>
      <trkpt lat="42.858706550" lon="-0.915855520">
        <ele>829.76</ele>
        <time>2014-08-14T14:41:31Z</time>
      </trkpt>
      <trkpt lat="42.858635380" lon="-0.916369920">
        <ele>830.24</ele>
        <time>2014-08-14T14:41:37Z</time>
      </trkpt>
      <trkpt lat="42.858648960" lon="-0.916947010">
        <ele>829.27</ele>
        <time>2014-08-14T14:41:43Z</time>
      </trkpt>
      <trkpt lat="42.858705120" lon="-0.917617900">
        <ele>825.91</ele>
        <time>2014-08-14T14:41:50Z</time>
      </trkpt>
      <trkpt lat="42.858711570" lon="-0.917707920">
        <ele>825.91</ele>
        <time>2014-08-14T14:41:51Z</time>
      </trkpt>
      <trkpt lat="42.858863620" lon="-0.918392560">
        <ele>823.99</ele>
        <time>2014-08-14T14:41:59Z</time>
      </trkpt>
      <trkpt lat="42.858846690" lon="-0.918855410">
        <ele>823.03</ele>
        <time>2014-08-14T14:42:04Z</time>
      </trkpt>
      <trkpt lat="42.858817940" lon="-0.919041480">
        <ele>822.55</ele>
        <time>2014-08-14T14:42:06Z</time>
      </trkpt>
      <trkpt lat="42.858721380" lon="-0.919388410">
        <ele>821.58</ele>
        <time>2014-08-14T14:42:11Z</time>
      </trkpt>
      <trkpt lat="42.858673770" lon="-0.919434850">
        <ele>820.62</ele>
        <time>2014-08-14T14:42:16Z</time>
      </trkpt>
      <trkpt lat="42.858646700" lon="-0.919442730">
        <ele>821.10</ele>
        <time>2014-08-14T14:42:32Z</time>
      </trkpt>
      <trkpt lat="42.858650640" lon="-0.919460500">
        <ele>820.62</ele>
        <time>2014-08-14T14:42:47Z</time>
      </trkpt>
      <trkpt lat="42.858645940" lon="-0.919455800">
        <ele>821.10</ele>
        <time>2014-08-14T14:43:00Z</time>
      </trkpt>
      <trkpt lat="42.858649970" lon="-0.919439880">
        <ele>821.10</ele>
        <time>2014-08-14T14:43:15Z</time>
      </trkpt>
      <trkpt lat="42.858658520" lon="-0.919421860">
        <ele>821.10</ele>
        <time>2014-08-14T14:43:25Z</time>
      </trkpt>
      <trkpt lat="42.858581570" lon="-0.919603830">
        <ele>821.10</ele>
        <time>2014-08-14T14:43:32Z</time>
      </trkpt>
      <trkpt lat="42.858501860" lon="-0.919765510">
        <ele>819.18</ele>
        <time>2014-08-14T14:43:35Z</time>
      </trkpt>
      <trkpt lat="42.858474450" lon="-0.919829050">
        <ele>818.70</ele>
        <time>2014-08-14T14:43:36Z</time>
      </trkpt>
      <trkpt lat="42.858366410" lon="-0.920214030">
        <ele>815.34</ele>
        <time>2014-08-14T14:43:41Z</time>
      </trkpt>
      <trkpt lat="42.858336740" lon="-0.920414360">
        <ele>814.37</ele>
        <time>2014-08-14T14:43:43Z</time>
      </trkpt>
      <trkpt lat="42.858332710" lon="-0.920579560">
        <ele>813.41</ele>
        <time>2014-08-14T14:43:44Z</time>
      </trkpt>
      <trkpt lat="42.858461790" lon="-0.921040400">
        <ele>812.45</ele>
        <time>2014-08-14T14:43:49Z</time>
      </trkpt>
      <trkpt lat="42.858566900" lon="-0.921387660">
        <ele>812.93</ele>
        <time>2014-08-14T14:43:53Z</time>
      </trkpt>
      <trkpt lat="42.858628430" lon="-0.922136670">
        <ele>810.05</ele>
        <time>2014-08-14T14:44:02Z</time>
      </trkpt>
      <trkpt lat="42.858634290" lon="-0.922350490">
        <ele>809.09</ele>
        <time>2014-08-14T14:44:05Z</time>
      </trkpt>
      <trkpt lat="42.858649380" lon="-0.922495500">
        <ele>808.13</ele>
        <time>2014-08-14T14:44:07Z</time>
      </trkpt>
      <trkpt lat="42.858729260" lon="-0.922892890">
        <ele>804.76</ele>
        <time>2014-08-14T14:44:12Z</time>
      </trkpt>
      <trkpt lat="42.858754320" lon="-0.923053820">
        <ele>803.80</ele>
        <time>2014-08-14T14:44:13Z</time>
      </trkpt>
      <trkpt lat="42.858754320" lon="-0.923584310">
        <ele>801.88</ele>
        <time>2014-08-14T14:44:17Z</time>
      </trkpt>
      <trkpt lat="42.858790780" lon="-0.924214380">
        <ele>799.47</ele>
        <time>2014-08-14T14:44:22Z</time>
      </trkpt>
      <trkpt lat="42.858792460" lon="-0.924432140">
        <ele>798.51</ele>
        <time>2014-08-14T14:44:24Z</time>
      </trkpt>
      <trkpt lat="42.858818610" lon="-0.924950640">
        <ele>797.55</ele>
        <time>2014-08-14T14:44:30Z</time>
      </trkpt>
      <trkpt lat="42.858820120" lon="-0.925015770">
        <ele>796.59</ele>
        <time>2014-08-14T14:44:31Z</time>
      </trkpt>
      <trkpt lat="42.858913160" lon="-0.925174020">
        <ele>797.07</ele>
        <time>2014-08-14T14:44:36Z</time>
      </trkpt>
      <trkpt lat="42.858939980" lon="-0.925172510">
        <ele>797.55</ele>
        <time>2014-08-14T14:44:37Z</time>
      </trkpt>
      <trkpt lat="42.859081640" lon="-0.925157340">
        <ele>799.95</ele>
        <time>2014-08-14T14:44:43Z</time>
      </trkpt>
      <trkpt lat="42.859142910" lon="-0.925073350">
        <ele>799.95</ele>
        <time>2014-08-14T14:44:47Z</time>
      </trkpt>
      <trkpt lat="42.859270230" lon="-0.924822230">
        <ele>802.36</ele>
        <time>2014-08-14T14:44:57Z</time>
      </trkpt>
      <trkpt lat="42.859366790" lon="-0.924579410">
        <ele>803.32</ele>
        <time>2014-08-14T14:45:06Z</time>
      </trkpt>
      <trkpt lat="42.859436690" lon="-0.924254610">
        <ele>803.80</ele>
        <time>2014-08-14T14:45:16Z</time>
      </trkpt>
      <trkpt lat="42.859518750" lon="-0.923941460">
        <ele>805.72</ele>
        <time>2014-08-14T14:45:26Z</time>
      </trkpt>
      <trkpt lat="42.859576590" lon="-0.923732170">
        <ele>806.20</ele>
        <time>2014-08-14T14:45:34Z</time>
      </trkpt>
      <trkpt lat="42.859632410" lon="-0.923465540">
        <ele>806.68</ele>
        <time>2014-08-14T14:45:43Z</time>
      </trkpt>
      <trkpt lat="42.859657970" lon="-0.923358420">
        <ele>807.64</ele>
        <time>2014-08-14T14:45:47Z</time>
      </trkpt>
      <trkpt lat="42.859726040" lon="-0.923187840">
        <ele>809.09</ele>
        <time>2014-08-14T14:45:55Z</time>
      </trkpt>
      <trkpt lat="42.859914460" lon="-0.923104780">
        <ele>810.53</ele>
        <time>2014-08-14T14:46:05Z</time>
      </trkpt>
      <trkpt lat="42.860015630" lon="-0.923042500">
        <ele>812.45</ele>
        <time>2014-08-14T14:46:13Z</time>
      </trkpt>
      <trkpt lat="42.860202970" lon="-0.923020290">
        <ele>812.45</ele>
        <time>2014-08-14T14:46:23Z</time>
      </trkpt>
      <trkpt lat="42.860249990" lon="-0.923016690">
        <ele>813.41</ele>
        <time>2014-08-14T14:46:26Z</time>
      </trkpt>
      <trkpt lat="42.860275970" lon="-0.923106540">
        <ele>813.41</ele>
        <time>2014-08-14T14:46:32Z</time>
      </trkpt>
      <trkpt lat="42.860314450" lon="-0.923275770">
        <ele>813.89</ele>
        <time>2014-08-14T14:46:40Z</time>
      </trkpt>
      <trkpt lat="42.860359540" lon="-0.923468140">
        <ele>814.37</ele>
        <time>2014-08-14T14:46:49Z</time>
      </trkpt>
      <trkpt lat="42.860401790" lon="-0.923644990">
        <ele>814.85</ele>
        <time>2014-08-14T14:46:57Z</time>
      </trkpt>
      <trkpt lat="42.860407400" lon="-0.923697380">
        <ele>815.34</ele>
        <time>2014-08-14T14:47:00Z</time>
      </trkpt>
      <trkpt lat="42.860457440" lon="-0.923600990">
        <ele>816.78</ele>
        <time>2014-08-14T14:47:07Z</time>
      </trkpt>
      <trkpt lat="42.860533630" lon="-0.923380290">
        <ele>817.74</ele>
        <time>2014-08-14T14:47:17Z</time>
      </trkpt>
      <trkpt lat="42.860614100" lon="-0.923160020">
        <ele>818.70</ele>
        <time>2014-08-14T14:47:28Z</time>
      </trkpt>
      <trkpt lat="42.860719460" lon="-0.923038900">
        <ele>820.14</ele>
        <time>2014-08-14T14:47:37Z</time>
      </trkpt>
      <trkpt lat="42.860832700" lon="-0.922971260">
        <ele>821.58</ele>
        <time>2014-08-14T14:47:46Z</time>
      </trkpt>
      <trkpt lat="42.860855160" lon="-0.922990030">
        <ele>820.14</ele>
        <time>2014-08-14T14:47:55Z</time>
      </trkpt>
      <trkpt lat="42.860876280" lon="-0.923000090">
        <ele>820.62</ele>
        <time>2014-08-14T14:48:08Z</time>
      </trkpt>
      <trkpt lat="42.860880310" lon="-0.923001430">
        <ele>821.10</ele>
        <time>2014-08-14T14:48:09Z</time>
      </trkpt>
      <trkpt lat="42.860809060" lon="-0.923053230">
        <ele>821.10</ele>
        <time>2014-08-14T14:48:18Z</time>
      </trkpt>
      <trkpt lat="42.860796240" lon="-0.923072010">
        <ele>822.55</ele>
        <time>2014-08-14T14:48:22Z</time>
      </trkpt>
      <trkpt lat="42.860768330" lon="-0.923248530">
        <ele>822.55</ele>
        <time>2014-08-14T14:48:30Z</time>
      </trkpt>
      <trkpt lat="42.860758600" lon="-0.923438300">
        <ele>822.55</ele>
        <time>2014-08-14T14:48:38Z</time>
      </trkpt>
      <trkpt lat="42.860867060" lon="-0.923529830">
        <ele>823.99</ele>
        <time>2014-08-14T14:48:46Z</time>
      </trkpt>
      <trkpt lat="42.860883830" lon="-0.923554390">
        <ele>824.47</ele>
        <time>2014-08-14T14:48:48Z</time>
      </trkpt>
      <trkpt lat="42.860851560" lon="-0.923783880">
        <ele>823.99</ele>
        <time>2014-08-14T14:48:57Z</time>
      </trkpt>
      <trkpt lat="42.860848290" lon="-0.923967190">
        <ele>823.99</ele>
        <time>2014-08-14T14:49:03Z</time>
      </trkpt>
      <trkpt lat="42.860857840" lon="-0.924050340">
        <ele>823.51</ele>
        <time>2014-08-14T14:49:09Z</time>
      </trkpt>
      <trkpt lat="42.860840330" lon="-0.924099120">
        <ele>823.51</ele>
        <time>2014-08-14T14:49:40Z</time>
      </trkpt>
      <trkpt lat="42.860845610" lon="-0.924158970">
        <ele>822.55</ele>
        <time>2014-08-14T14:51:27Z</time>
      </trkpt>
    </trkseg>
  </trk>
</gpx>
